[[{"header":{"parameterUnit":"m.s-1","parameterCategory":1,"la1":31.0,"la2":29.5877,"lo1":-88.7671,"lo2":-86.6584,"dy":0.0162,"dx":0.0185,"nx":115,"ny":88,"refTime":"2024-03-07T06:00:00:Z","depth":0,"parameterNumber":2,"parameterNumberName":"U-component_of_WINDS"},"data":[0.0,0.0,0.0,0.0,0.0,0.0,0.0,0.0,0.0,0.0,0.0,0.0,0.0,0.0,0.0,0.0,0.0,0.0,0.0,0.0,0.0,0.0,0.0,0.0,0.0,0.0,0.0,0.0,0.0,0.0,0.0,0.0,0.0,0.0,0.0,0.0,0.0,0.0,0.0,0.0,0.0,0.0,0.0,0.0,0.0,0.0,0.0,0.0,0.0,0.0,0.0,0.0,0.0,0.0,0.0,0.0,0.0,0.0,0.0,0.0,0.0,0.0,0.0,0.0,0.0,0.0,0.0,0.0,0.0,0.0,0.0,0.0,0.0,0.0,0.0,0.0,0.0,0.0,0.0,0.0,0.0,0.0,0.0,0.0,0.0,0.0,0.0,0.0,0.0,0.0,0.0,0.0,0.0,0.0,0.0,0.0,0.0,0.0,0.0,0.0,0.0,0.0,0.0,0.0,0.0,0.0,0.0,0.0,0.0,0.0,0.0,0.0,0.0,0.0,0.0,0.0,0.0,0.0,0.0,0.0,0.0,0.0,0.0,0.0,0.0,0.0,0.0,0.0,0.0,0.0,0.0,0.0,0.0,0.0,0.0,0.0,0.0,0.0,0.0,0.0,0.0,0.0,0.0,0.0,0.0,0.0,0.0,0.0,0.0,0.0,0.0,0.0,0.0,0.0,0.0,0.0,0.0,0.0,0.0,0.0,0.0,0.0,0.0,0.0,0.0,0.0,0.0,0.0,0.0,0.0,0.0,0.0,0.0,0.0,0.0,0.0,0.0,0.0,0.0,0.0,0.0,0.0,0.0,0.0,0.0,0.0,0.0,0.0,0.0,0.0,0.0,0.0,0.0,0.0,0.0,0.0,0.0,0.0,0.0,0.0,0.0,0.0,0.0,0.0,0.0,0.0,0.0,0.0,0.0,0.0,0.0,0.0,0.0,0.0,0.0,0.0,0.0,0.0,0.0,0.0,0.0,0.0,0.0,0.0,0.0,0.0,0.0,0.0,0.0,0.0,0.0,0.0,0.0,0.0,0.0,0.0,0.0,0.0,0.0,0.0,0.0,0.0,0.0,0.0,0.0,0.0,0.0,0.0,0.0,0.0,0.0,0.0,0.0,0.0,0.0,0.0,0.0,0.0,0.0,0.0,0.0,0.0,0.0,0.0,0.0,0.0,0.0,0.0,0.0,0.0,0.0,0.0,0.0,0.0,0.0,0.0,0.0,0.0,0.0,0.0,0.0,0.0,0.0,0.0,0.0,0.0,0.0,0.0,0.0,0.0,0.0,0.0,0.0,0.0,0.0,0.0,0.0,0.0,0.0,0.0,0.0,0.0,0.0,0.0,0.0,0.0,0.0,0.0,0.0,0.0,0.0,0.0,0.0,0.0,0.0,0.0,0.0,0.0,0.0,0.0,0.0,0.0,0.0,0.0,0.0,0.0,0.0,0.0,0.0,0.0,0.0,0.0,0.0,0.0,0.0,0.0,0.0,0.0,0.0,0.0,0.0,0.0,0.0,0.0,0.0,0.0,0.0,0.0,0.0,0.0,0.0,0.0,0.0,0.0,0.0,0.0,0.0,0.0,0.0,0.0,0.0,0.0,0.0,0.0,0.0,0.0,0.0,0.0,0.0,0.0,0.0,0.0,0.0,0.0,0.0,0.0,0.0,0.0,0.0,0.0,0.0,0.0,0.0,0.0,0.0,0.0,0.0,0.0,0.0,0.0,0.0,0.0,0.0,0.0,0.0,0.0,0.0,0.0,0.0,0.0,0.0,0.0,0.0,0.0,0.0,0.0,0.0,0.0,0.0,0.0,0.0,0.0,0.0,0.0,0.0,0.0,0.0,0.0,0.0,0.0,0.0,0.0,0.0,0.0,0.0,0.0,0.0,0.0,0.0,0.0,0.0,0.0,0.0,0.0,0.0,0.0,0.0,0.0,0.0,0.0,0.0,0.0,0.0,0.0,0.0,0.0,0.0,0.0,0.0,0.0,0.0,0.0,0.0,0.0,0.0,0.0,0.0,0.0,0.0,0.0,0.0,0.0,0.0,0.0,0.0,0.0,0.0,0.0,0.0,0.0,0.0,0.0,0.0,0.0,0.0,0.0,0.0,0.0,0.0,0.0,0.0,0.0,0.0,0.0,0.0,0.0,0.0,0.0,0.0,0.0,0.0,0.0,0.0,0.0,0.0,0.0,0.0,0.0,0.0,0.0,0.0,0.0,0.0,0.0,0.0,0.0,0.0,0.0,0.0,0.0,0.0,0.0,0.0,0.0,0.0,0.0,0.0,0.0,0.0,0.0,0.0,0.0,0.0,0.0,0.0,0.0,0.0,0.0,0.0,0.0,0.0,0.0,0.0,0.0,0.0,0.0,0.0,0.0,0.0,0.0,0.0,0.0,0.0,0.0,0.0,0.0,0.0,0.0,0.0,0.0,0.0,0.0,0.0,0.0,0.0,0.0,0.0,0.0,0.0,0.0,0.0,0.0,0.0,0.0,0.0,0.0,0.0,0.0,0.0,0.0,0.0,0.0,0.0,0.0,0.0,0.0,0.0,0.0,0.0,0.0,0.0,0.0,0.0,0.0,0.0,0.0,0.0,0.0,0.0,0.0,0.0,0.0,0.0,0.0,0.0,0.0,0.0,0.0,0.0,0.0,0.0,0.0,0.0,0.0,0.0,0.0,0.0,0.0,0.0,0.0,0.0,0.0,0.0,0.0,0.0,0.0,0.0,0.0,0.0,0.0,0.0,0.0,0.0,0.0,0.0,0.0,0.0,0.0,0.0,0.0,0.0,0.0,0.0,0.0,0.0,0.0,0.0,0.0,0.0,0.0,0.0,0.0,0.0,0.0,0.0,0.0,0.0,0.0,0.0,0.0,0.0,0.0,0.0,0.0,0.0,0.0,0.0,0.0,0.0,0.0,0.0,0.0,0.0,0.0,0.0,0.0,0.0,0.0,0.0,0.0,0.0,0.0,0.0,0.0,0.0,0.0,0.0,0.0,0.0,0.0,0.0,0.0,0.0,0.0,0.0,0.0,0.0,0.0,0.0,0.0,0.0,0.0,0.0,0.0,0.0,0.0,0.0,0.0,0.0,0.0,0.0,0.0,0.0,0.0,0.0,0.0,0.0,0.0,0.0,0.0,0.0,0.0,0.0,0.0,0.0,0.0,0.0,0.0,0.0,0.0,0.0,0.0,0.0,0.0,0.0,0.0,0.0,0.0,0.0,0.0,0.0,0.0,0.0,0.0,0.0,0.0,0.0,0.0,0.0,0.0,0.0,0.0,0.0,0.0,0.0,0.0,0.0,0.0,0.0,0.0,0.0,0.0,0.0,0.0,0.0,0.0,0.0,0.0,0.0,0.0,0.0,0.0,0.0,0.0,0.0,0.0,0.0,0.0,0.0,0.0,0.0,0.0,0.0,0.0,0.0,0.0,0.0,0.0,0.0,0.0,0.0,0.0,0.0,0.0,0.0,0.0,0.0,0.0,0.0,0.0,0.0,0.0,0.0,0.0,0.0,0.0,0.0,0.0,0.0,0.0,0.0,0.0,0.0,0.0,0.0,0.0,0.0,0.0,0.0,0.0,0.0,0.0,0.0,0.0,0.0,0.0,0.0,0.0,0.0,0.0,0.0,0.0,0.0,0.0,0.0,0.0,0.0,0.0,0.0,0.0,0.0,0.0,0.0,0.0,0.0,0.0,0.0,0.0,0.0,0.0,0.0,0.0,0.0,0.0,0.0,0.0,0.0,0.0,0.0,0.0,0.0,0.0,0.0,0.0,0.0,0.0,0.0,0.0,0.0,0.0,0.0,0.0,0.0,0.0,0.0,0.0,0.0,0.0,0.0,0.0,0.0,0.0,0.0,0.0,0.0,0.0,0.0,0.0,0.0,0.0,0.0,0.0,0.0,0.0,0.0,0.0,0.0,0.0,0.0,0.0,0.0,0.0,0.0,0.0,0.0,0.0,0.0,0.0,0.0,0.0,0.0,0.0,0.0,0.0,0.0,0.0,0.0,0.0,0.0,0.0,0.0,0.0,0.0,0.0,0.0,0.0,0.0,0.0,0.0,0.0,0.0,0.0,0.0,0.0,0.0,0.0,0.0,0.0,0.0,0.0,0.0,0.0,0.0,0.0,0.0,0.0,0.0,0.0,0.0,0.0,0.0,0.0,0.0,0.0,0.0,0.0,0.0,0.0,0.0,0.0,0.0,0.0,0.0,0.0,0.0,0.0,0.0,0.0,0.0,0.0,0.0,0.0,0.0,0.0,0.0,0.0,-0.9211,0.0,0.0,0.0,0.0,0.0,0.0,0.0,0.0,0.0,0.0,0.0,0.0,0.0,0.0,0.0,0.0,0.0,0.0,0.0,0.0,0.0,0.0,0.0,0.0,0.0,0.0,0.0,0.0,0.0,0.0,0.0,0.0,0.0,0.0,0.0,0.0,0.0,0.0,0.0,0.0,0.0,0.0,0.0,0.0,0.0,0.0,0.0,0.0,0.0,0.0,0.0,0.0,0.0,0.0,0.0,0.0,0.0,0.0,0.0,0.0,0.0,0.0,0.0,0.0,0.0,0.0,0.0,0.0,0.0,0.0,0.0,0.0,0.0,0.0,0.0,0.0,0.0,0.0,0.0,0.0,0.0,0.0,0.0,0.0,0.0,0.0,0.0,0.0,0.0,0.0,0.0,0.0,0.0,0.0,0.0,0.0,0.0,0.0,0.0,0.0,0.0,0.0,0.0,0.0,0.0,0.0,0.0,0.0,0.0,0.0,-0.8501,-0.8712,-0.9028,-0.9237,-0.9316,0.0,0.0,0.0,0.0,0.0,0.0,0.0,0.0,0.0,0.0,0.0,0.0,0.0,0.0,0.0,0.0,0.0,0.0,0.0,0.0,0.0,0.0,0.0,0.0,0.0,0.0,0.0,0.0,0.0,0.0,0.0,0.0,0.0,0.0,0.0,0.0,0.0,0.0,0.0,0.0,0.0,0.0,0.0,0.0,0.0,0.0,0.0,0.0,0.0,0.0,0.0,0.0,0.0,0.0,0.0,0.0,0.0,0.0,0.0,0.0,0.0,0.0,0.0,0.0,0.0,0.0,0.0,0.0,0.0,0.0,0.0,0.0,0.0,0.0,0.0,0.0,0.0,0.0,0.0,0.0,0.0,0.0,0.0,0.0,0.0,0.0,0.0,0.0,0.0,0.0,0.0,0.0,0.0,0.0,0.0,0.0,0.0,0.0,0.0,0.0,0.0,0.0,0.0,0.0,0.0,0.0,0.0,0.0,0.0,0.0,0.0,0.0,-0.908,-0.929,-0.9432,0.0,0.0,0.0,0.0,0.0,0.0,0.0,0.0,0.0,0.0,0.0,0.0,0.0,0.0,0.0,0.0,0.0,0.0,0.0,0.0,0.0,0.0,0.0,0.0,0.0,0.0,0.0,0.0,0.0,0.0,0.0,0.0,0.0,0.0,0.0,0.0,0.0,0.0,0.0,0.0,0.0,0.0,0.0,0.0,0.0,0.0,0.0,0.0,0.0,0.0,0.0,0.0,0.0,0.0,0.0,0.0,0.0,0.0,0.0,0.0,0.0,0.0,0.0,0.0,0.0,0.0,0.0,0.0,0.0,0.0,0.0,0.0,0.0,0.0,0.0,0.0,0.0,0.0,0.0,0.0,0.0,0.0,0.0,0.0,0.0,0.0,0.0,0.0,0.0,0.0,0.0,0.0,0.0,0.0,0.0,0.0,0.0,0.0,0.0,0.0,0.0,0.0,0.0,0.0,0.0,0.0,0.0,0.0,0.0,0.0,-0.8712,-0.8989,-0.9106,0.0,-0.9562,0.0,0.0,0.0,0.0,0.0,0.0,0.0,0.0,0.0,0.0,0.0,0.0,0.0,0.0,0.0,0.0,0.0,0.0,0.0,0.0,0.0,0.0,0.0,0.0,0.0,0.0,0.0,0.0,0.0,0.0,0.0,0.0,0.0,0.0,0.0,0.0,0.0,0.0,0.0,0.0,0.0,0.0,0.0,0.0,0.0,0.0,0.0,0.0,0.0,0.0,0.0,0.0,0.0,0.0,0.0,0.0,0.0,0.0,0.0,0.0,0.0,0.0,0.0,0.0,0.0,0.0,0.0,0.0,0.0,0.0,0.0,0.0,0.0,0.0,0.0,0.0,0.0,0.0,0.0,0.0,0.0,0.0,0.0,0.0,0.0,0.0,0.0,0.0,0.0,0.0,0.0,0.0,0.0,0.0,0.0,0.0,0.0,0.0,0.0,0.0,0.0,0.0,0.0,0.0,0.0,0.0,0.0,0.0,0.0,0.0,-0.8991,-0.9518,-0.9665,-0.9773,0.0,0.0,0.0,0.0,0.0,0.0,0.0,0.0,0.0,0.0,0.0,0.0,0.0,0.0,0.0,0.0,0.0,0.0,0.0,0.0,0.0,0.0,0.0,0.0,0.0,0.0,0.0,0.0,0.0,0.0,0.0,0.0,0.0,0.0,0.0,0.0,0.0,0.0,0.0,0.0,0.0,0.0,0.0,0.0,0.0,0.0,0.0,0.0,0.0,0.0,0.0,0.0,0.0,0.0,0.0,0.0,0.0,0.0,0.0,0.0,0.0,0.0,0.0,0.0,0.0,0.0,0.0,0.0,0.0,0.0,0.0,0.0,0.0,0.0,0.0,0.0,0.0,0.0,0.0,0.0,0.0,0.0,0.0,0.0,0.0,0.0,0.0,0.0,0.0,0.0,0.0,0.0,0.0,0.0,0.0,0.0,0.0,0.0,0.0,0.0,0.0,0.0,0.0,0.0,0.0,0.0,0.0,0.0,0.0,0.0,-0.9058,-0.9356,-0.9993,-1.016,-1.0243,-1.0228,0.0,0.0,0.0,0.0,0.0,0.0,0.0,0.0,0.0,0.0,0.0,0.0,0.0,0.0,0.0,0.0,0.0,0.0,0.0,0.0,0.0,0.0,0.0,0.0,0.0,0.0,0.0,0.0,0.0,0.0,0.0,0.0,0.0,0.0,0.0,0.0,0.0,0.0,0.0,0.0,0.0,0.0,0.0,0.0,0.0,0.0,0.0,0.0,0.0,0.0,0.0,0.0,0.0,0.0,0.0,0.0,0.0,0.0,0.0,0.0,0.0,0.0,0.0,0.0,0.0,0.0,0.0,0.0,0.0,0.0,0.0,0.0,0.0,0.0,0.0,0.0,0.0,0.0,0.0,0.0,0.0,0.0,0.0,0.0,0.0,0.0,0.0,0.0,0.0,0.0,0.0,0.0,0.0,0.0,0.0,0.0,0.0,0.0,0.0,0.0,0.0,0.0,0.0,0.0,0.0,0.0,0.0,0.0,-0.9645,-0.9687,-0.9883,-1.0394,-1.0508,-1.0594,0.0,0.0,0.0,0.0,0.0,0.0,0.0,0.0,0.0,0.0,0.0,0.0,0.0,0.0,0.0,0.0,0.0,0.0,0.0,0.0,0.0,0.0,0.0,0.0,0.0,0.0,0.0,0.0,0.0,0.0,0.0,0.0,0.0,0.0,0.0,0.0,0.0,0.0,0.0,0.0,0.0,0.0,0.0,0.0,0.0,0.0,0.0,0.0,0.0,0.0,0.0,0.0,0.0,0.0,0.0,0.0,0.0,0.0,0.0,0.0,0.0,0.0,0.0,0.0,0.0,0.0,0.0,0.0,0.0,0.0,0.0,0.0,0.0,0.0,0.0,0.0,0.0,0.0,0.0,0.0,0.0,0.0,0.0,0.0,0.0,0.0,0.0,0.0,0.0,0.0,0.0,0.0,0.0,0.0,0.0,0.0,0.0,0.0,0.0,0.0,0.0,0.0,0.0,0.0,0.0,0.0,0.0,0.0,0.0,-1.0475,-1.0767,-1.0988,-1.1151,-1.1225,-1.1195,0.0,0.0,0.0,0.0,0.0,0.0,0.0,0.0,0.0,0.0,0.0,0.0,0.0,0.0,0.0,0.0,0.0,0.0,0.0,0.0,0.0,0.0,0.0,0.0,0.0,0.0,0.0,0.0,0.0,0.0,0.0,0.0,0.0,0.0,0.0,0.0,0.0,0.0,0.0,0.0,0.0,0.0,0.0,0.0,0.0,0.0,0.0,0.0,0.0,0.0,0.0,0.0,0.0,0.0,0.0,0.0,0.0,0.0,0.0,0.0,0.0,0.0,0.0,0.0,0.0,0.0,0.0,0.0,0.0,0.0,0.0,0.0,0.0,0.0,0.0,0.0,0.0,0.0,0.0,0.0,0.0,0.0,0.0,0.0,0.0,0.0,0.0,0.0,0.0,0.0,0.0,0.0,0.0,0.0,0.0,0.0,0.0,0.0,0.0,0.0,0.0,0.0,0.0,0.0,0.0,0.0,0.0,0.0,0.0,-1.1443,0.0,-1.229,-1.229,-1.2228,-1.2043,0.0,0.0,0.0,0.0,0.0,0.0,0.0,0.0,0.0,0.0,0.0,0.0,0.0,0.0,0.0,0.0,0.0,0.0,0.0,0.0,0.0,0.0,0.0,0.0,0.0,0.0,0.0,0.0,0.0,0.0,0.0,0.0,0.0,0.0,0.0,0.0,0.0,0.0,0.0,0.0,0.0,0.0,0.0,0.0,0.0,0.0,0.0,0.0,0.0,0.0,0.0,0.0,0.0,0.0,0.0,0.0,0.0,0.0,0.0,0.0,0.0,0.0,0.0,0.0,0.0,0.0,0.0,0.0,0.0,0.0,0.0,0.0,0.0,0.0,0.0,0.0,0.0,0.0,0.0,0.0,0.0,0.0,0.0,0.0,0.0,0.0,0.0,0.0,0.0,0.0,0.0,0.0,0.0,0.0,0.0,0.0,0.0,0.0,0.0,0.0,0.0,0.0,0.0,0.0,0.0,0.0,0.0,0.0,-1.1826,-1.2628,-1.3332,-1.3717,-1.37,-1.3535,-1.3162,0.0,0.0,0.0,0.0,0.0,0.0,0.0,0.0,0.0,0.0,0.0,0.0,0.0,0.0,0.0,0.0,0.0,0.0,0.0,0.0,0.0,0.0,0.0,0.0,0.0,0.0,0.0,0.0,0.0,0.0,0.0,0.0,0.0,0.0,0.0,0.0,0.0,0.0,0.0,0.0,0.0,0.0,0.0,0.0,0.0,0.0,0.0,0.0,0.0,0.0,0.0,0.0,0.0,0.0,0.0,0.0,0.0,0.0,0.0,0.0,0.0,0.0,0.0,0.0,0.0,0.0,0.0,0.0,0.0,0.0,0.0,0.0,0.0,0.0,0.0,0.0,0.0,0.0,0.0,0.0,0.0,0.0,0.0,0.0,0.0,0.0,0.0,0.0,0.0,0.0,0.0,0.0,0.0,0.0,0.0,0.0,0.0,0.0,0.0,0.0,0.0,0.0,0.0,0.0,0.0,0.0,0.0,0.0,0.0,-1.4692,-1.5036,-1.529,-1.5463,-1.4866,-1.436,0.0,0.0,0.0,0.0,0.0,0.0,0.0,0.0,0.0,0.0,0.0,0.0,0.0,0.0,0.0,0.0,0.0,0.0,0.0,0.0,0.0,0.0,0.0,0.0,0.0,0.0,0.0,0.0,0.0,0.0,0.0,0.0,0.0,0.0,0.0,0.0,0.0,0.0,0.0,0.0,0.0,0.0,0.0,0.0,0.0,0.0,0.0,0.0,0.0,0.0,0.0,0.0,0.0,0.0,0.0,0.0,0.0,0.0,0.0,0.0,0.0,0.0,0.0,0.0,0.0,0.0,0.0,0.0,0.0,0.0,0.0,0.0,0.0,0.0,0.0,0.0,0.0,0.0,0.0,0.0,0.0,0.0,0.0,0.0,0.0,0.0,0.0,0.0,0.0,0.0,0.0,0.0,0.0,0.0,0.0,0.0,0.0,0.0,0.0,0.0,0.0,0.0,0.0,0.0,0.0,0.0,0.0,0.0,0.0,-1.8264,-1.777,-1.7533,-1.7606,-1.6757,-1.5925,-1.5213,0.0,0.0,0.0,0.0,0.0,0.0,0.0,0.0,0.0,0.0,0.0,0.0,0.0,0.0,0.0,0.0,0.0,0.0,0.0,0.0,0.0,0.0,0.0,0.0,0.0,0.0,0.0,0.0,0.0,0.0,0.0,0.0,0.0,0.0,0.0,0.0,0.0,0.0,0.0,0.0,0.0,0.0,0.0,0.0,0.0,0.0,0.0,0.0,0.0,0.0,0.0,0.0,0.0,0.0,0.0,0.0,0.0,0.0,0.0,0.0,0.0,0.0,0.0,0.0,0.0,0.0,0.0,0.0,0.0,0.0,0.0,0.0,0.0,0.0,0.0,0.0,0.0,0.0,0.0,0.0,0.0,0.0,0.0,0.0,0.0,0.0,0.0,0.0,0.0,0.0,0.0,0.0,0.0,0.0,0.0,0.0,0.0,0.0,0.0,0.0,0.0,0.0,0.0,0.0,0.0,0.0,0.0,0.0,-2.2859,-2.1431,-2.0446,-2.0016,-1.8978,-1.7823,0.0,0.0,0.0,0.0,0.0,0.0,0.0,0.0,0.0,0.0,0.0,0.0,0.0,0.0,0.0,0.0,0.0,0.0,0.0,0.0,0.0,0.0,0.0,0.0,0.0,0.0,0.0,0.0,0.0,0.0,0.0,0.0,0.0,0.0,0.0,0.0,0.0,0.0,0.0,0.0,0.0,0.0,0.0,0.0,0.0,0.0,0.0,0.0,0.0,0.0,0.0,0.0,0.0,0.0,0.0,0.0,0.0,0.0,0.0,0.0,0.0,0.0,0.0,0.0,0.0,0.0,0.0,0.0,0.0,0.0,0.0,0.0,0.0,0.0,0.0,0.0,0.0,0.0,0.0,0.0,0.0,0.0,0.0,0.0,0.0,0.0,0.0,0.0,0.0,0.0,0.0,0.0,0.0,0.0,0.0,0.0,0.0,0.0,0.0,0.0,0.0,0.0,0.0,0.0,0.0,0.0,0.0,0.0,0.0,-2.5063,-2.5719,-2.4951,-2.267,-2.11,-1.9706,0.0,0.0,0.0,0.0,0.0,0.0,0.0,0.0,0.0,0.0,0.0,0.0,0.0,0.0,0.0,0.0,0.0,0.0,0.0,0.0,0.0,0.0,0.0,0.0,0.0,0.0,0.0,0.0,0.0,0.0,0.0,0.0,0.0,0.0,0.0,0.0,0.0,0.0,0.0,0.0,0.0,0.0,0.0,0.0,0.0,0.0,0.0,0.0,0.0,0.0,0.0,0.0,0.0,0.0,0.0,0.0,0.0,0.0,0.0,0.0,0.0,0.0,0.0,0.0,0.0,0.0,0.0,0.0,0.0,0.0,0.0,0.0,0.0,0.0,0.0,0.0,0.0,0.0,0.0,0.0,0.0,0.0,0.0,0.0,0.0,0.0,0.0,0.0,0.0,0.0,0.0,0.0,0.0,0.0,0.0,0.0,0.0,0.0,0.0,0.0,0.0,0.0,0.0,0.0,0.0,0.0,0.0,0.0,-2.5647,-2.7117,-2.8206,-2.7883,-2.6212,-2.3654,-2.1504,0.0,0.0,0.0,0.0,0.0,0.0,0.0,0.0,0.0,0.0,0.0,0.0,0.0,0.0,0.0,0.0,0.0,0.0,0.0,0.0,0.0,0.0,0.0,0.0,0.0,0.0,0.0,0.0,0.0,0.0,0.0,0.0,0.0,0.0,0.0,0.0,0.0,0.0,0.0,0.0,0.0,0.0,0.0,0.0,0.0,0.0,0.0,0.0,0.0,0.0,0.0,0.0,0.0,0.0,0.0,0.0,0.0,0.0,0.0,0.0,0.0,0.0,0.0,0.0,0.0,0.0,0.0,0.0,0.0,0.0,0.0,0.0,0.0,0.0,0.0,0.0,0.0,0.0,0.0,0.0,0.0,0.0,0.0,0.0,0.0,0.0,0.0,0.0,0.0,0.0,0.0,0.0,0.0,0.0,0.0,0.0,0.0,0.0,0.0,0.0,0.0,0.0,0.0,0.0,0.0,0.0,0.0,0.0,-2.7201,-2.9031,-2.9565,-2.987,-2.9728,-2.6202,-2.3246,0.0,0.0,0.0,0.0,0.0,0.0,0.0,0.0,0.0,0.0,0.0,0.0,0.0,0.0,0.0,0.0,0.0,0.0,0.0,0.0,0.0,0.0,0.0,0.0,0.0,0.0,0.0,0.0,0.0,0.0,0.0,0.0,0.0,0.0,0.0,0.0,0.0,0.0,0.0,0.0,0.0,0.0,0.0,0.0,0.0,0.0,0.0,0.0,0.0,0.0,0.0,0.0,0.0,0.0,0.0,0.0,0.0,0.0,0.0,0.0,0.0,0.0,0.0,0.0,0.0,0.0,0.0,0.0,0.0,0.0,0.0,0.0,0.0,0.0,0.0,0.0,0.0,0.0,0.0,0.0,0.0,0.0,0.0,0.0,0.0,0.0,0.0,0.0,0.0,0.0,0.0,0.0,0.0,0.0,0.0,0.0,0.0,0.0,0.0,0.0,0.0,0.0,0.0,0.0,0.0,0.0,0.0,0.0,-2.919,-3.0737,-3.1815,-3.1789,-3.0678,-2.7472,-2.4777,0.0,0.0,0.0,0.0,0.0,0.0,0.0,0.0,0.0,0.0,0.0,0.0,0.0,0.0,0.0,0.0,0.0,0.0,0.0,0.0,0.0,0.0,0.0,0.0,0.0,0.0,0.0,0.0,0.0,0.0,0.0,0.0,0.0,0.0,0.0,0.0,0.0,0.0,0.0,0.0,0.0,0.0,0.0,0.0,0.0,0.0,0.0,0.0,-0.5014,0.0,0.0,0.0,0.0,0.0,0.0,0.0,0.0,0.0,0.0,0.0,0.0,0.0,0.0,0.0,0.0,0.0,0.0,0.0,0.0,0.0,0.0,0.0,0.0,0.0,0.0,0.0,0.0,0.0,0.0,0.0,0.0,0.0,0.0,0.0,0.0,0.0,0.0,0.0,0.0,0.0,0.0,0.0,0.0,0.0,0.0,0.0,0.0,0.0,0.0,0.0,0.0,0.0,0.0,0.0,0.0,0.0,0.0,0.0,-3.0027,-3.1594,-3.2594,-3.2618,-3.1497,-2.8818,-2.6143,0.0,0.0,0.0,0.0,0.0,0.0,0.0,0.0,0.0,0.0,0.0,0.0,0.0,0.0,0.0,0.0,0.0,0.0,0.0,0.0,0.0,0.0,0.0,0.0,0.0,0.0,0.0,0.0,0.0,0.0,0.0,0.0,0.0,0.0,0.0,0.0,0.0,0.0,0.0,0.0,0.0,0.0,0.0,0.0,0.0,0.0,0.0,0.0,0.0,0.0,0.0,0.0,0.0,0.0,0.0,0.0,0.0,0.0,0.0,0.0,0.0,0.0,0.0,0.0,0.0,0.0,0.0,0.0,0.0,0.0,0.0,0.0,0.0,0.0,0.0,0.0,0.0,0.0,0.0,0.0,0.0,0.0,0.0,0.0,0.0,0.0,0.0,0.0,0.0,0.0,0.0,0.0,0.0,0.0,0.0,0.0,0.0,0.0,0.0,0.0,0.0,0.0,0.0,0.0,0.0,0.0,0.0,-2.8549,-3.0643,-3.21,-3.2952,-3.3009,-3.2286,-2.9951,-2.7272,-2.4173,0.0,0.0,0.0,0.0,0.0,0.0,0.0,0.0,0.0,0.0,0.0,0.0,0.0,0.0,0.0,0.0,0.0,0.0,0.0,0.0,0.0,0.0,0.0,0.0,0.0,0.0,0.0,0.0,0.0,0.0,0.0,0.0,0.0,0.0,0.0,0.0,0.0,0.0,-0.7026,-0.7446,0.0,0.0,0.0,0.0,0.0,0.0,0.0,0.0,-0.6285,0.0,0.0,0.0,0.0,0.0,0.0,0.0,0.0,0.0,0.0,0.0,0.0,0.0,0.0,0.0,0.0,0.0,0.0,0.0,0.0,0.0,0.0,0.0,0.0,0.0,0.0,0.0,0.0,0.0,0.0,0.0,0.0,0.0,0.0,0.0,0.0,0.0,0.0,0.0,0.0,0.0,0.0,0.0,0.0,0.0,0.0,0.0,0.0,0.0,0.0,0.0,0.0,0.0,0.0,0.0,0.0,-2.7343,-3.0149,-3.2045,-3.2887,-3.3814,-3.3626,-3.2307,-3.0261,-2.787,-2.4995,0.0,0.0,0.0,0.0,0.0,0.0,0.0,0.0,0.0,0.0,0.0,0.0,0.0,0.0,0.0,0.0,0.0,0.0,0.0,0.0,0.0,0.0,0.0,0.0,0.0,0.0,0.0,0.0,0.0,0.0,0.0,0.0,0.0,0.0,0.0,0.0,0.0,0.0,0.0,-0.8139,-0.8263,0.0,0.0,0.0,0.0,0.0,0.0,0.0,0.0,-0.6806,0.0,0.0,0.0,0.0,0.0,0.0,0.0,0.0,0.0,0.0,0.0,0.0,0.0,0.0,0.0,0.0,0.0,0.0,0.0,0.0,0.0,0.0,0.0,0.0,0.0,0.0,0.0,0.0,0.0,0.0,0.0,0.0,0.0,0.0,0.0,0.0,0.0,0.0,0.0,0.0,0.0,0.0,0.0,0.0,0.0,0.0,0.0,0.0,0.0,0.0,0.0,0.0,0.0,0.0,0.0,-2.8431,-3.0777,-3.2488,-3.3442,-3.4163,-3.3778,-3.2307,-3.0323,-2.7958,0.0,0.0,0.0,0.0,0.0,0.0,0.0,0.0,0.0,0.0,0.0,0.0,0.0,0.0,0.0,0.0,0.0,0.0,0.0,0.0,0.0,0.0,0.0,0.0,0.0,0.0,0.0,0.0,0.0,0.0,0.0,0.0,0.0,0.0,0.0,0.0,0.0,0.0,0.0,0.0,-0.9201,-0.9439,-0.9507,0.0,0.0,0.0,0.0,0.0,0.0,-0.8369,-0.7871,0.0,0.0,0.0,0.0,0.0,0.0,0.0,0.0,0.0,0.0,0.0,0.0,0.0,0.0,0.0,0.0,0.0,0.0,0.0,0.0,0.0,0.0,0.0,0.0,0.0,0.0,0.0,0.0,0.0,0.0,0.0,0.0,0.0,0.0,0.0,0.0,0.0,0.0,0.0,0.0,0.0,0.0,0.0,0.0,0.0,0.0,0.0,0.0,0.0,0.0,0.0,0.0,0.0,0.0,0.0,-2.9303,-3.1253,-3.2758,-3.3825,-3.4272,-3.38,-3.2307,-3.0376,-2.8061,0.0,0.0,0.0,0.0,0.0,0.0,0.0,0.0,0.0,0.0,0.0,0.0,0.0,0.0,0.0,0.0,0.0,0.0,0.0,0.0,0.0,0.0,0.0,0.0,0.0,0.0,0.0,0.0,0.0,0.0,0.0,0.0,0.0,0.0,0.0,0.0,0.0,0.0,0.0,0.0,0.0,-1.0731,-1.0876,-1.0999,0.0,0.0,0.0,0.0,-0.9989,-0.9538,0.0,0.0,0.0,0.0,0.0,0.0,0.0,0.0,0.0,0.0,0.0,0.0,0.0,0.0,0.0,0.0,0.0,0.0,0.0,0.0,0.0,0.0,0.0,0.0,0.0,0.0,0.0,0.0,0.0,0.0,0.0,0.0,0.0,0.0,0.0,0.0,0.0,0.0,0.0,0.0,0.0,0.0,0.0,0.0,0.0,0.0,0.0,0.0,0.0,0.0,0.0,0.0,0.0,0.0,0.0,0.0,-3.0161,-3.2044,-3.3353,-3.4097,-3.4383,-3.3778,-3.2361,-3.0609,-2.8215,0.0,0.0,0.0,0.0,0.0,0.0,0.0,0.0,0.0,0.0,0.0,0.0,0.0,0.0,0.0,0.0,0.0,0.0,0.0,0.0,0.0,0.0,0.0,0.0,0.0,0.0,0.0,0.0,0.0,0.0,0.0,0.0,0.0,0.0,0.0,0.0,0.0,0.0,0.0,0.0,0.0,-1.1827,-1.2514,-1.2439,-1.2303,0.0,0.0,-1.151,-1.1207,-1.0455,0.0,0.0,0.0,0.0,0.0,0.0,0.0,0.0,0.0,0.0,0.0,0.0,0.0,0.0,0.0,0.0,0.0,0.0,0.0,0.0,0.0,0.0,0.0,0.0,0.0,0.0,0.0,0.0,0.0,0.0,0.0,0.0,0.0,0.0,0.0,0.0,0.0,0.0,0.0,0.0,0.0,0.0,0.0,0.0,0.0,0.0,0.0,0.0,0.0,0.0,0.0,0.0,0.0,0.0,0.0,-2.87,-3.1024,-3.3003,-3.4348,-3.5024,-3.5156,-3.4544,-3.3151,-3.1129,-2.877,0.0,0.0,0.0,0.0,0.0,0.0,0.0,0.0,0.0,0.0,0.0,0.0,0.0,0.0,0.0,0.0,0.0,0.0,0.0,0.0,0.0,0.0,0.0,0.0,0.0,0.0,0.0,0.0,0.0,0.0,0.0,0.0,0.0,0.0,0.0,0.0,0.0,0.0,0.0,0.0,0.0,0.0,-1.3258,-1.3565,0.0,0.0,0.0,-1.2892,-1.2507,0.0,0.0,0.0,0.0,0.0,0.0,0.0,0.0,0.0,0.0,0.0,0.0,0.0,0.0,0.0,0.0,0.0,0.0,0.0,0.0,0.0,0.0,0.0,0.0,0.0,0.0,0.0,0.0,0.0,0.0,0.0,0.0,0.0,0.0,0.0,0.0,0.0,0.0,0.0,0.0,0.0,0.0,0.0,0.0,0.0,0.0,0.0,0.0,0.0,0.0,0.0,0.0,0.0,0.0,0.0,0.0,0.0,-3.2039,-3.3919,-3.5211,-3.587,-3.5801,-3.5106,-3.3818,-3.1634,0.0,0.0,0.0,0.0,0.0,0.0,0.0,0.0,0.0,0.0,0.0,0.0,0.0,0.0,0.0,0.0,0.0,0.0,0.0,0.0,0.0,0.0,0.0,0.0,0.0,0.0,0.0,-0.8149,0.0,0.0,0.0,0.0,0.0,0.0,0.0,0.0,0.0,0.0,0.0,0.0,0.0,0.0,-1.416,-1.4359,-1.4949,-1.5271,0.0,0.0,-1.4366,-1.3751,-1.3226,-1.2507,0.0,0.0,0.0,0.0,0.0,0.0,0.0,0.0,0.0,0.0,0.0,0.0,0.0,0.0,0.0,0.0,0.0,0.0,0.0,0.0,0.0,0.0,0.0,0.0,0.0,0.0,0.0,0.0,0.0,0.0,0.0,0.0,0.0,0.0,0.0,0.0,0.0,0.0,0.0,0.0,0.0,0.0,0.0,0.0,0.0,0.0,0.0,0.0,0.0,0.0,0.0,0.0,0.0,0.0,0.0,-3.3034,-3.4571,-3.5768,-3.651,-3.5971,-3.5163,-3.4099,-3.1906,-2.9542,0.0,0.0,0.0,0.0,0.0,0.0,0.0,0.0,0.0,0.0,0.0,0.0,0.0,0.0,0.0,0.0,0.0,0.0,0.0,0.0,0.0,0.0,0.0,0.0,0.0,0.0,0.0,0.0,0.0,0.0,0.0,0.0,0.0,0.0,0.0,0.0,0.0,0.0,0.0,0.0,0.0,-1.5732,-1.6468,-1.6823,-1.6938,0.0,0.0,-1.594,-1.5114,-1.4323,-1.3629,-1.3114,0.0,0.0,0.0,0.0,0.0,0.0,0.0,0.0,0.0,0.0,0.0,0.0,0.0,0.0,0.0,0.0,0.0,0.0,0.0,0.0,0.0,0.0,0.0,0.0,0.0,0.0,0.0,0.0,0.0,0.0,0.0,0.0,0.0,0.0,0.0,0.0,0.0,0.0,0.0,0.0,0.0,0.0,0.0,0.0,0.0,0.0,0.0,0.0,0.0,0.0,0.0,0.0,0.0,-3.1456,-3.3771,-3.5495,-3.6688,-3.7223,-3.6736,-3.6099,-3.5294,-3.2772,-3.0516,0.0,0.0,0.0,0.0,0.0,0.0,0.0,0.0,0.0,0.0,0.0,0.0,0.0,0.0,0.0,0.0,0.0,0.0,0.0,0.0,0.0,0.0,0.0,0.0,0.0,0.0,0.0,0.0,-1.0593,-1.0723,-1.0589,0.0,0.0,0.0,0.0,0.0,0.0,0.0,0.0,0.0,0.0,-1.6767,-1.7009,-1.7559,0.0,0.0,-1.7222,-1.6888,-1.6172,-1.5717,-1.5214,-1.4498,-1.3545,0.0,0.0,0.0,0.0,0.0,0.0,0.0,0.0,0.0,0.0,0.0,0.0,0.0,0.0,0.0,0.0,0.0,0.0,0.0,0.0,0.0,0.0,0.0,0.0,0.0,0.0,0.0,0.0,0.0,0.0,0.0,0.0,0.0,0.0,0.0,0.0,0.0,0.0,0.0,0.0,0.0,0.0,0.0,0.0,0.0,0.0,0.0,0.0,0.0,0.0,0.0,0.0,-3.2419,-3.4308,-3.6394,-3.7627,-3.786,-3.7565,-3.7014,-3.6165,-3.3802,-3.1655,0.0,0.0,0.0,0.0,0.0,0.0,0.0,0.0,0.0,0.0,0.0,0.0,0.0,0.0,0.0,0.0,0.0,0.0,0.0,0.0,0.0,0.0,0.0,0.0,0.0,0.0,0.0,0.0,-1.1736,-1.1911,-1.1908,0.0,0.0,0.0,0.0,0.0,0.0,0.0,0.0,0.0,0.0,-1.8076,-1.8123,-1.88,-1.9098,-1.8498,-1.8441,-1.8173,-1.7444,-1.7097,-1.6622,-1.5881,0.0,0.0,0.0,0.0,0.0,0.0,0.0,0.0,0.0,0.0,0.0,0.0,0.0,0.0,0.0,0.0,0.0,0.0,0.0,0.0,0.0,0.0,0.0,0.0,0.0,0.0,0.0,0.0,0.0,0.0,-2.3691,0.0,0.0,0.0,0.0,0.0,0.0,0.0,0.0,0.0,0.0,0.0,0.0,0.0,0.0,0.0,0.0,0.0,0.0,0.0,0.0,0.0,0.0,-3.3724,-3.4814,-3.7317,-3.848,-3.8189,-3.8447,-3.7871,-3.6511,-3.4993,-3.2912,-3.0314,0.0,0.0,0.0,0.0,0.0,0.0,0.0,0.0,0.0,0.0,0.0,0.0,0.0,0.0,0.0,0.0,0.0,0.0,0.0,0.0,0.0,0.0,0.0,0.0,0.0,0.0,-1.2025,-1.2529,-1.3005,0.0,0.0,0.0,0.0,0.0,0.0,0.0,0.0,0.0,0.0,-1.8902,-1.9935,-2.0186,-2.076,-2.0856,-2.0295,-2.0248,-1.99,-1.8954,-1.8391,-1.7778,0.0,0.0,0.0,0.0,0.0,0.0,0.0,0.0,0.0,0.0,0.0,0.0,0.0,0.0,0.0,0.0,0.0,0.0,0.0,0.0,0.0,0.0,0.0,0.0,0.0,0.0,0.0,-2.7836,-2.7954,0.0,0.0,0.0,0.0,0.0,0.0,0.0,0.0,0.0,0.0,0.0,-3.289,-3.289,0.0,0.0,0.0,0.0,0.0,0.0,0.0,0.0,0.0,0.0,0.0,0.0,-3.4492,-3.5894,-3.7692,-3.8727,-3.8807,-3.8676,-3.8183,-3.7394,-3.5467,-3.3026,-3.0031,0.0,0.0,0.0,0.0,0.0,0.0,0.0,0.0,0.0,0.0,0.0,0.0,0.0,0.0,0.0,0.0,0.0,0.0,0.0,0.0,0.0,0.0,0.0,0.0,0.0,-1.3455,0.0,0.0,0.0,0.0,0.0,0.0,0.0,0.0,0.0,0.0,0.0,-1.7738,-1.8401,-1.9638,-2.0515,-2.0653,-2.1166,-2.1375,0.0,0.0,0.0,0.0,0.0,0.0,0.0,0.0,0.0,0.0,0.0,0.0,0.0,0.0,-1.4179,-1.2499,-1.2167,-1.224,-1.2638,0.0,0.0,0.0,0.0,0.0,0.0,0.0,0.0,0.0,0.0,0.0,0.0,0.0,0.0,0.0,0.0,-3.0775,0.0,0.0,0.0,0.0,0.0,0.0,0.0,0.0,-3.4754,-3.519,-3.5835,-3.5858,-3.5379,0.0,-3.4338,-3.2743,0.0,0.0,0.0,0.0,0.0,0.0,0.0,0.0,-3.5387,-3.6673,-3.8209,-3.9157,-3.9347,-3.9218,-3.8805,-3.8045,-3.5815,-3.342,-3.0842,-2.8886,-2.6844,0.0,0.0,0.0,0.0,0.0,0.0,0.0,0.0,0.0,0.0,0.0,0.0,0.0,0.0,0.0,0.0,0.0,0.0,0.0,0.0,0.0,0.0,0.0,-1.4982,0.0,0.0,0.0,0.0,0.0,0.0,0.0,0.0,0.0,-1.7287,-1.8116,-1.9098,-1.9892,-2.0927,-2.1642,-2.1786,0.0,0.0,0.0,0.0,0.0,0.0,0.0,-2.0719,-2.0041,-1.9701,-1.9389,-1.9145,-1.8751,-1.8324,-1.784,0.0,0.0,-1.4521,-1.4054,-1.4109,-1.4439,-1.4723,-1.4943,-1.5222,-1.5388,-1.5444,0.0,0.0,0.0,0.0,0.0,0.0,0.0,0.0,-3.5161,-3.4832,0.0,-3.4273,0.0,0.0,0.0,0.0,0.0,0.0,0.0,0.0,-3.7699,-3.8057,-3.8225,-3.8248,-3.7882,-3.7096,-3.6544,-3.5972,-3.5366,-3.313,0.0,0.0,0.0,0.0,0.0,0.0,-3.6437,-3.7244,-3.883,-3.9706,-3.9879,-4.0114,-3.9674,-3.8539,-3.5993,-3.4054,-3.2846,-3.0842,-2.901,-2.7357,-2.5096,0.0,0.0,0.0,0.0,0.0,0.0,0.0,0.0,0.0,0.0,0.0,0.0,0.0,0.0,0.0,0.0,0.0,0.0,0.0,0.0,-1.5919,0.0,0.0,0.0,0.0,0.0,0.0,0.0,0.0,0.0,0.0,-1.9161,-1.9826,-2.0818,-2.1896,0.0,0.0,0.0,0.0,-2.3479,-2.3183,-2.287,-2.2557,-2.2195,-2.2209,-2.202,-2.1339,0.0,0.0,-2.0425,-2.0297,-2.0157,-1.9864,-1.9775,-1.8959,-1.6549,-1.5979,-1.5957,-1.6253,-1.6526,-1.6832,-1.7138,-1.7372,-1.7572,-3.8644,0.0,0.0,0.0,0.0,-3.6827,-3.7455,-3.8254,-3.8254,-3.7973,-3.7457,-3.7052,0.0,0.0,0.0,0.0,0.0,0.0,-3.8237,-3.9358,-3.9954,-4.0269,-4.0375,-4.0398,-3.9758,-3.8638,-3.8478,-3.7976,-3.7132,-3.645,-3.5359,-3.3874,0.0,0.0,0.0,0.0,-3.7244,-3.8082,-3.9467,-4.0178,-4.0266,-4.0195,-3.9395,-3.7794,-3.6095,-3.4648,-3.3541,-3.2212,-3.0757,-2.901,-2.6981,0.0,0.0,0.0,0.0,0.0,0.0,0.0,0.0,0.0,0.0,0.0,0.0,0.0,0.0,0.0,0.0,0.0,0.0,0.0,-1.7738,-1.8072,-1.8309,0.0,0.0,0.0,0.0,0.0,0.0,0.0,0.0,0.0,-2.1846,-2.1683,-2.1718,0.0,0.0,-2.349,-2.3581,-2.3779,-2.4005,-2.4184,0.0,0.0,0.0,-2.3357,-2.3035,-2.2646,-2.2582,-2.2517,-2.2308,-2.2257,-2.2127,-2.1802,-2.1737,-2.1422,-2.0464,-1.8949,-1.8113,-1.8324,-1.8313,-1.83,-1.859,-1.8772,-1.8832,-4.1733,-4.0279,-3.8803,-3.8536,-3.9198,-3.9471,-4.009,-4.0854,-4.0854,-4.0568,-4.0069,-3.976,-3.914,-3.8342,-3.8231,0.0,0.0,0.0,-4.0405,-4.1294,-4.1816,-4.1979,-4.1775,-4.1798,-4.1228,-4.0203,-3.979,-3.9285,-3.8688,-3.8298,-3.7485,-3.6261,0.0,0.0,-3.668,-3.7395,-3.8178,-3.9054,-3.9954,-4.0499,-4.0715,-4.0158,-3.9254,-3.7816,-3.6543,-3.5445,-3.4647,-3.3508,-3.2287,-3.0958,-2.8962,-2.7042,0.0,0.0,0.0,0.0,0.0,0.0,0.0,0.0,0.0,0.0,0.0,-1.5881,-1.6141,0.0,0.0,0.0,-1.8331,-1.9057,-1.9641,-1.9824,0.0,0.0,0.0,0.0,0.0,0.0,0.0,-2.1549,-2.2198,-2.2951,-2.3755,-2.3604,-2.3468,-2.3468,-2.3885,-2.4264,-2.4389,0.0,-2.4578,-2.4778,-2.4662,-2.4509,-2.4575,-2.4319,-2.4057,-2.3724,-2.3539,-2.3472,-2.3472,-2.3472,-2.3406,-2.3206,-2.314,-2.3073,-2.2873,-2.166,-2.0541,-2.0451,-2.036,-2.037,-2.0545,-2.0579,-2.0611,-4.4021,-4.3396,-4.1401,-4.1011,-4.165,-4.1674,-4.2162,-4.294,-4.2988,-4.2699,-4.2169,-4.2086,-4.1681,-4.0864,-4.0632,0.0,-4.0888,-4.1412,-4.209,-4.2891,-4.3361,-4.3211,-4.2559,-4.2621,-4.2312,-4.1598,-4.0571,-4.0149,-4.0057,-3.9101,-3.8642,-3.8619,-3.816,-3.8055,-3.8325,-3.8629,-3.9202,-3.9983,-4.0314,-4.0691,-4.1091,-4.005,-3.9098,-3.8292,-3.7153,-3.6317,-3.5808,-3.4625,-3.3584,-3.276,-3.0937,-2.9054,-2.7232,0.0,0.0,0.0,0.0,0.0,0.0,0.0,0.0,0.0,0.0,0.0,0.0,0.0,0.0,0.0,-2.0778,0.0,-2.128,-2.1306,0.0,0.0,0.0,-2.1795,-2.2374,-2.249,-2.2921,-2.3933,0.0,0.0,-2.5019,0.0,-2.5724,-2.5724,-2.5425,-2.5298,-2.5656,-2.5405,-2.5203,-2.5297,-2.5291,-2.5313,-2.534,-2.5227,-2.5034,-2.4665,-2.436,-2.4128,-2.4128,-2.4128,-2.4088,-2.406,-2.4088,-2.4074,-2.4088,-2.3725,-2.3381,-2.2495,-2.2451,-2.2555,-2.2487,-2.2475,-2.2474,-4.4573,-4.4069,-4.3562,-4.3227,-4.3048,-4.3479,-4.3719,-4.401,-4.4395,-4.4034,-4.3144,-4.3144,-4.2796,-4.2316,-4.2256,-4.2256,-4.234,-4.2784,-4.3132,-4.3361,-4.389,-4.376,-4.3138,-4.3138,-4.2638,-4.1621,-4.0938,-4.0433,-4.0103,-3.9423,-3.9124,-3.9124,-3.901,-3.8839,-3.8629,-3.9094,-3.9637,-4.029,-4.0787,-4.0937,-4.0803,-3.958,-3.87,-3.8325,-3.7054,-3.6196,-3.5808,-3.5508,-3.4779,-3.3563,-3.2201,-3.0841,-2.9415,-2.7653,0.0,0.0,0.0,0.0,0.0,0.0,0.0,0.0,0.0,-1.9947,-2.0422,0.0,-2.1817,0.0,-2.3026,-2.3546,-2.3587,-2.3595,0.0,0.0,-2.3652,-2.3548,-2.3738,-2.4059,-2.4395,-2.465,-2.5394,-2.599,-2.616,-2.6517,-2.6772,-2.6755,-2.6254,-2.6022,-2.6306,-2.6313,-2.6323,-2.6552,-2.6485,-2.6383,-2.6289,-2.608,-2.5838,-2.5712,-2.539,-2.5255,-2.5187,-2.4984,-2.4849,-2.4849,-2.4849,-2.4849,-2.4849,-2.4776,-2.4651,-2.4334,-2.3643,-2.2976,-2.2976,-2.2986,-2.2925,-4.4765,-4.4285,-4.4285,-4.4093,-4.3914,-4.4165,-4.4285,-4.4309,-4.4597,-4.4381,-4.3866,-4.3866,-4.3601,-4.312,-4.3361,-4.3337,-4.3144,-4.3649,-4.389,-4.3829,-4.4141,-4.3974,-4.3326,-4.3326,-4.2786,-4.188,-4.1168,-4.0686,-4.0364,-3.9652,-3.9308,-3.9308,-3.9308,-3.9267,-3.9195,-3.9625,-4.0053,-4.0535,-4.0995,-4.1115,-4.0942,-3.9846,-3.9042,-3.847,-3.7423,-3.6562,-3.6027,-3.5895,-3.534,-3.439,-3.3375,-3.2285,-3.1199,-2.9578,-2.8197,0.0,0.0,0.0,0.0,0.0,0.0,0.0,0.0,0.0,0.0,0.0,-2.4335,0.0,-2.5057,-2.5389,-2.5511,-2.5426,-2.5509,-2.5935,-2.5739,-2.5576,-2.5646,-2.5872,-2.6039,-2.6044,-2.6563,-2.7033,-2.7131,-2.7339,-2.7496,-2.7496,-2.7056,-2.6682,-2.661,-2.6769,-2.6961,-2.7164,-2.7296,-2.7292,-2.6969,-2.6599,-2.6331,-2.6145,-2.5944,-2.5809,-2.5809,-2.5674,-2.5539,-2.5524,-2.5524,-2.5524,-2.5524,-2.5524,-2.5524,-2.5412,-2.4974,-2.4407,-2.4046,-2.3865,-2.3679,-4.4765,-4.4285,-4.4285,-4.4285,-4.4285,-4.4285,-4.4285,-4.4285,-4.4357,-4.4357,-4.4285,-4.4285,-4.4021,-4.3673,-4.4069,-4.4021,-4.3673,-4.4069,-4.4285,-4.4285,-4.4285,-4.3974,-4.3326,-4.3326,-4.2949,-4.2293,-4.1306,-4.0823,-4.08,-3.979,-3.9308,-3.9308,-3.9308,-3.9426,-3.9743,-4.0013,-4.0363,-4.0792,-4.1081,-4.1196,-4.1172,-4.044,-3.9599,-3.8845,-3.7924,-3.7136,-3.6447,-3.6027,-3.5659,-3.5228,-3.4413,-3.3507,-3.2621,-3.1463,-3.0391,0.0,-2.8329,0.0,0.0,0.0,0.0,0.0,0.0,0.0,0.0,-2.6064,-2.6898,-2.7001,-2.7098,-2.7188,-2.7271,-2.7077,-2.722,-2.7807,-2.7679,-2.753,-2.7596,-2.763,-2.7679,-2.775,-2.7764,-2.7884,-2.8068,-2.808,-2.808,-2.796,-2.7702,-2.7358,-2.6942,-2.7147,-2.738,-2.7303,-2.7898,-2.7965,-2.7451,-2.7067,-2.6733,-2.6398,-2.628,-2.6197,-2.6197,-2.6145,-2.6063,-2.6063,-2.6078,-2.6063,-2.6063,-2.6063,-2.6063,-2.6063,-2.5965,-2.5749,-2.533,-2.5004,-2.4672,-4.4765,-4.4285,-4.4285,-4.4285,-4.4285,-4.4285,-4.4285,-4.4309,-4.4741,-4.4693,-4.4285,-4.4285,-4.4237,-4.4141,-4.4237,-4.4237,-4.4141,-4.4237,-4.4285,-4.4285,-4.4285,-4.3974,-4.3326,-4.3326,-4.2949,-4.227,-4.1244,-4.0823,-4.08,-3.979,-3.9308,-3.9308,-3.9308,-3.9367,-3.9426,0.0,0.0,0.0,-4.1196,-4.1196,-4.1172,-4.044,-3.9789,-3.9329,-3.8134,0.0,-3.6874,-3.6452,-3.6013,-3.5704,-3.5156,0.0,0.0,0.0,0.0,0.0,0.0,0.0,0.0,0.0,0.0,0.0,-2.9715,-2.9034,-2.7181,-2.801,-2.8866,-2.9233,-2.9539,-2.9669,-2.953,-2.942,-2.9258,-2.8968,-2.8876,-2.8746,-2.8502,-2.8728,-2.8914,-2.8971,-2.9056,-2.9061,-2.8838,-2.8576,-2.8337,-2.808,-2.796,-2.79,-2.7719,-2.7892,-2.7955,-2.8037,-2.8178,-2.8263,-2.813,-2.7716,-2.7451,-2.7384,-2.6918,-2.6666,-2.6599,-2.6331,-2.6145,-2.613,-2.6063,-2.613,-2.613,-2.6063,-2.613,-2.613,-2.613,-2.6078,-2.5944,-2.5816,-2.5747,-4.4712,0.0,-4.4285,-4.4285,0.0,-4.4285,-4.4285,-4.4309,-4.4573,-4.4525,-4.4285,-4.4285,-4.4285,-4.4285,-4.4285,-4.4285,-4.4285,-4.4285,-4.4285,-4.4285,-4.4285,-4.4037,-4.3553,-4.3365,-4.3012,-4.2483,-4.1368,-4.0823,-4.0778,-3.979,-3.9308,-3.9308,-3.9308,-3.9308,-3.9308,-3.9626,-4.0211,-4.0966,-4.0966,-4.1024,-4.1172,-4.0793,-4.0326,-3.9779,0.0,0.0,0.0,0.0,0.0,0.0,0.0,0.0,0.0,0.0,0.0,-3.2534,-3.2137,-3.1742,-3.1423,-3.1402,-3.1455,-3.1561,-3.1827,-3.1338,-2.9962,-3.0408,-3.076,-3.0859,-3.1052,-3.1038,-3.0873,-3.0837,-3.075,-3.0497,-3.048,-3.0366,-3.0043,-3.0045,-3.0045,-2.9833,-2.9731,-2.9627,-2.945,-2.9272,-2.9094,-2.8797,-2.8618,-2.8439,-2.8253,-2.8167,-2.8226,-2.8473,-2.849,-2.8527,-2.8543,-2.8263,-2.7981,-2.7915,-2.7716,-2.7533,-2.7533,-2.7334,-2.7134,-2.6918,-2.6867,-2.6867,-2.6666,-2.6599,-2.6666,-2.6682,-2.6666,-2.6666,-2.6599,-2.6331,-2.5972,-4.4594,-4.4285,-4.4285,-4.4285,-4.4285,-4.4285,-4.4285,-4.4285,0.0,0.0,0.0,-4.4285,-4.4285,-4.4285,-4.4285,-4.4285,-4.4285,-4.4285,-4.4285,-4.4285,-4.4285,-4.4137,-4.3802,-4.349,-4.32,-4.2776,-4.1491,-4.0885,-4.0778,-3.979,-3.9308,-3.9308,-3.9308,-3.9308,-3.9308,-3.9544,-3.9978,-4.0503,-4.0677,-4.0826,-4.1115,-4.1172,-4.0865,-4.015,-3.9713,-3.9169,-3.8488,-3.8009,-3.7586,-3.714,-3.6949,-3.6599,-3.608,-3.5266,-3.4637,-3.4252,-3.3628,-3.3258,-3.3171,-3.3171,-3.3279,-3.3495,-3.3279,-3.2987,-3.2468,-3.2413,-3.2326,-3.215,-3.2117,-3.2044,-3.1993,-3.1978,-3.201,-3.2035,-3.2018,-3.1825,-3.1478,-3.1208,-3.0937,-3.0684,-3.0392,-3.0098,-3.0098,-3.0039,-2.9863,-2.9627,-2.9331,-2.8975,-2.8672,-2.8374,-2.8393,-2.8766,-2.8857,-2.8886,-2.8838,-2.8576,-2.8395,-2.8395,-2.8329,-2.8263,-2.8263,-2.8263,-2.8196,-2.7783,-2.7766,-2.765,-2.7467,-2.74,-2.74,-2.7334,-2.7267,-2.7267,-2.7134,-2.6733,-2.6254,-4.4594,-4.4285,-4.4285,-4.4285,-4.4285,-4.4285,-4.4285,-4.4285,-4.4285,-4.4285,-4.4285,-4.4285,-4.4285,-4.4285,-4.4285,-4.4285,-4.4285,-4.4285,-4.4285,0.0,-4.4285,-4.4137,-4.3802,-4.374,-4.3389,-4.2753,-4.1739,-4.1045,-4.0709,-3.9813,-3.9308,-3.9308,-3.9308,-3.9308,-3.9308,-3.9367,-3.9544,-3.9919,-4.0444,-4.0735,-4.0792,-4.1057,-4.1033,-4.0616,-3.9901,-3.9333,-3.8896,-3.8193,-3.7747,-3.7701,-3.7621,-3.7485,-3.719,-3.6986,-3.6613,-3.5927,-3.5759,-3.5502,-3.5079,-3.5056,-3.5056,-3.5056,-3.5034,-3.4417,-3.298,-3.2827,-3.2976,-3.3303,-3.3324,-3.3332,-3.3304,-3.3283,-3.3191,-3.3027,-3.2742,-3.2457,-3.2113,-3.1825,-3.1672,-3.1556,-3.1325,-3.0976,-3.0801,-3.0509,-3.0274,-2.9922,-2.9804,-2.9568,-2.9048,-2.8678,-2.8703,-2.8957,-2.909,-2.9124,-2.9146,-2.8932,-2.8774,-2.8741,-2.8527,-2.8395,-2.8395,-2.8395,-2.8329,-2.8263,-2.8196,-2.8196,-2.8064,-2.813,-2.7998,-2.7716,-2.765,-2.7584,-2.7334,-2.7134,-2.7051,-4.4902,-4.4532,-4.4409,-4.4285,-4.4285,-4.4285,-4.4285,-4.4285,-4.4285,-4.4285,-4.4285,-4.4285,-4.4285,-4.4285,-4.4285,-4.4285,-4.4285,-4.4285,-4.4285,-4.4285,-4.4285,-4.4223,-4.4075,-4.3864,-4.3615,-4.3255,-4.2241,-4.1506,-4.0999,-4.0186,-3.9561,-3.9331,-3.9308,-3.9308,-3.9308,-3.9308,-3.9367,-3.9544,-3.9978,-4.027,-4.0421,-4.0769,-4.0826,-4.0653,-4.03,-4.0009,-3.9639,-3.914,-3.8678,-3.8229,-3.8229,-3.8034,-3.7645,-3.7508,-3.7247,-3.685,-3.6657,-3.6432,-3.6071,-3.5944,-3.5785,-3.5643,-3.5643,-3.5278,-3.4317,-3.424,-3.4328,-3.4547,-3.459,-3.4401,-3.4142,-3.4086,-3.3918,-3.3445,-3.3275,-3.3105,-3.2991,-3.2685,-3.2457,-3.2285,-3.1998,-3.173,-3.1441,-3.1267,-3.1034,-3.0743,-3.045,-2.9981,-2.9568,-2.926,-2.9053,-2.8897,-2.9179,-2.9531,-2.952,-2.966,-2.9543,-2.9382,-2.9233,-2.9036,-2.8922,-2.8856,-2.879,-2.8593,-2.8609,-2.8461,-2.8329,-2.8263,-2.8196,-2.813,-2.8048,-2.7932,-2.7865,-2.7799,-2.7666,-4.5208,-4.4902,-4.4656,-4.447,-4.4409,-4.4409,-4.4347,-4.4285,-4.4285,-4.4285,-4.4285,-4.4285,-4.4285,-4.4285,-4.4285,-4.4285,-4.4285,-4.4285,-4.4285,-4.4285,-4.4285,-4.4285,-4.4285,-4.4013,-4.3888,-4.3692,-4.2809,-4.1985,-4.135,-4.0597,-3.9933,-3.9354,-3.9308,-3.9308,-3.9308,-3.9308,-3.9308,-3.9308,-3.9567,-3.9837,-4.013,-4.0421,-4.0619,-4.0677,-4.0595,-4.0479,-4.0305,-3.9978,-3.9522,-3.8919,-3.8815,-3.855,-3.8183,-3.7965,-3.7805,-3.7656,-3.7439,-3.711,-3.6825,-3.6691,-3.6392,-3.6004,-3.6004,-3.5895,-3.5643,-3.5643,-3.5511,-3.5423,-3.5368,-3.5146,-3.4813,-3.468,-3.4479,-3.3952,-3.384,-3.3749,-3.3692,-3.3501,-3.3197,-3.2913,-3.2685,-3.2399,-3.219,-3.2018,-3.1845,-3.1383,-3.0918,-3.0509,-3.0157,-2.9922,-2.948,-2.9186,-2.9386,-2.9689,-2.9796,-3.0123,-3.0195,-2.9952,-2.9952,-2.9757,-2.9578,-2.9513,-2.9364,-2.9119,-2.8939,-2.8856,-2.8593,-2.8527,-2.8527,-2.8461,-2.8395,-2.8395,-2.8263,-2.8196,-2.813,-4.555,-4.527,-4.5184,-4.5025,-4.4755,-4.4755,-4.457,-4.4347,-4.4285,-4.4285,-4.4285,-4.4285,-4.4285,-4.4285,-4.4285,-4.4285,-4.4261,-4.4285,-4.4261,-4.4237,-4.4285,-4.4285,-4.4261,-4.4285,-4.4075,-4.3755,-4.3265,-4.2583,-4.1737,-4.0898,-4.0111,-3.9436,-3.9308,-3.9308,-3.9308,-3.9308,-3.9308,-3.9308,-3.9367,-3.9485,-3.9861,-4.013,-4.0421,-4.0677,-4.0421,-4.0363,-4.0619,-4.0095,-3.9779,-3.9674,-3.9393,-3.9216,-3.9147,-3.9089,-3.8905,-3.8492,-3.8447,-3.8148,-3.753,-3.74,-3.7145,-3.6704,-3.6603,-3.6495,-3.6223,-3.6223,-3.6004,-3.5588,-3.5423,-3.5423,-3.5312,-3.5312,-3.5146,-3.4813,-3.459,-3.4311,-3.4086,-3.3749,-3.3579,-3.3501,-3.3445,-3.3332,-3.3048,-3.2742,-3.2399,-3.1845,-3.1498,-3.115,-3.0859,-3.0509,-3.0254,-2.9911,-2.9788,-2.9751,-2.9851,-3.0091,-3.0419,-3.0361,-3.0361,-3.0296,-3.0165,-2.9952,-2.9757,-2.9626,-2.9447,-2.9316,-2.925,-2.9185,-2.9053,-2.8856,-2.8807,-2.8675,-2.8395,-2.8329,-2.8329,-4.5285,-4.5055,-4.4579,-4.4448,-4.4572,-4.4621,-4.461,-4.4594,-4.4594,-4.447,-4.4285,-4.4285,-4.4285,-4.4285,-4.4285,-4.4117,-4.3805,-4.3866,-4.3697,-4.3457,-4.3697,-4.3866,-4.3829,-4.4141,-4.4223,-4.4075,-4.3736,-4.3028,-4.2039,-4.0761,-3.9952,-3.9567,-3.9426,-3.9308,-3.9308,-3.9308,-3.9308,-3.9308,-3.9308,-3.9367,-3.9485,-3.9779,-4.013,-4.0363,-4.0479,-4.0537,-4.0677,-4.0444,-4.0246,-4.0071,-3.9779,-3.9626,-3.9626,-3.9426,-3.9216,-3.901,-3.8885,-3.8596,-3.7934,-3.7831,-3.752,-3.6951,-3.6928,-3.6874,-3.682,-3.6634,-3.644,-3.6223,-3.6004,-3.584,-3.5698,-3.5621,-3.5533,-3.5257,-3.5091,-3.4924,-3.4646,-3.4534,-3.4311,-3.3974,-3.3918,-3.3805,-3.3501,-3.3332,-3.2991,-3.2457,-3.217,-3.194,-3.1498,-3.115,-3.0918,-3.0836,-3.0793,-3.0685,-3.0445,-3.0864,-3.1047,-3.0815,-3.0685,-3.0685,-3.0443,-3.0296,-3.0165,-3.0165,-2.997,-2.9905,-2.9987,-2.9709,-2.9561,-2.9382,-2.9185,-2.9053,-2.8922,-2.8922,-2.8922,-4.5235,-4.5076,-4.4284,-4.4107,-4.4417,-4.4417,-4.4459,-4.4524,-4.4671,-4.4499,-4.4278,-4.4336,-4.4312,-4.4069,-4.4069,-4.389,-4.3529,-4.3361,-4.312,-4.2891,-4.3144,-4.3313,-4.3361,-4.3697,-4.3914,-4.3853,-4.362,-4.302,-4.2006,-4.0657,-3.9861,-3.9743,-3.9544,-3.9426,-3.9426,-3.9485,-3.9544,-3.9426,-3.9426,-3.9367,-3.9367,-3.9626,-3.9919,-4.0165,-4.0421,-4.0653,-4.0826,-4.0735,-4.0595,-4.0363,-4.0071,-3.9861,-3.9802,-3.9544,-3.9426,-3.9344,-3.9256,-3.9046,-3.8614,-3.8357,-3.8005,-3.7534,-3.7345,-3.7197,-3.7089,-3.6928,-3.6796,-3.6796,-3.658,-3.6277,-3.6004,-3.5972,-3.5785,-3.5566,-3.5533,-3.5423,-3.5146,-3.5091,-3.4924,-3.4423,-3.4367,-3.4199,-3.3861,-3.3692,-3.3501,-3.3048,-3.2934,-3.282,-3.2305,-3.1903,-3.1696,-3.186,-3.1976,-3.168,-3.1219,-3.1552,-3.1707,-3.1525,-3.1377,-3.1267,-3.0897,-3.0768,-3.0573,-3.0555,-3.049,-3.0378,-3.0248,-3.01,-2.9887,-2.9757,-2.9626,-2.9382,-2.925,-2.9316,-2.9316,-4.5885,-4.5699,-4.4903,-4.4386,-4.4227,-4.4227,-4.4076,-4.387,-4.4288,-4.4328,-4.4075,-4.4487,-4.428,-4.3553,-4.3529,-4.3529,-4.3409,-4.3,-4.2795,-4.2747,-4.2819,-4.2843,-4.2867,-4.2891,-4.2916,-4.2976,-4.2976,-4.246,-4.1567,-4.0622,-4.0071,-3.9802,-3.9743,-3.9743,-3.9802,-4.0013,-4.0013,-3.9802,-3.9802,-3.9603,-3.9426,-3.9684,-3.9954,-4.0223,-4.0246,-4.0537,-4.1,-4.0884,-4.0677,-4.0677,-4.0363,-4.0071,-3.9861,-3.9802,-3.9626,-3.9367,-3.9579,-3.9698,-3.9447,-3.9187,-3.8777,-3.8357,-3.7833,-3.7489,-3.7227,-3.7143,-3.7089,-3.7066,-3.6874,-3.658,-3.6332,-3.6223,-3.6114,-3.5863,-3.5808,-3.5676,-3.5423,-3.5368,-3.5257,-3.498,-3.4924,-3.4702,-3.4199,-3.4086,-3.3918,-3.3636,-3.3579,-3.3388,-3.3105,-3.2799,-3.2683,-3.2822,-3.2834,-3.2752,-3.1994,-3.2163,-3.2365,-3.2166,-3.2038,-3.2166,-3.1846,-3.1589,-3.1267,-3.0944,-3.0815,-3.062,-3.0443,-3.0296,-3.0165,-3.0018,-2.9887,-2.9691,-2.9495,-2.9364,-2.9299,-4.5266,-4.4628,-4.4311,-4.4187,-4.4263,-4.4288,-4.4202,-4.4027,-4.42,-4.4122,-4.385,-4.3806,-4.3578,-4.3264,-4.2723,-4.2543,-4.2519,-4.2327,-4.2121,-4.1822,-4.2086,-4.2313,-4.2279,-4.2651,-4.2819,-4.2819,-4.2795,-4.2495,-4.179,-4.0715,-4.0165,-4.0071,-3.9861,-3.9802,-3.9861,-4.0071,-4.0106,-4.0048,-4.0071,-3.9989,-3.9873,-3.9989,-4.0188,-4.0479,-4.0537,-4.0711,-4.1196,-4.1081,-4.1024,-4.1,-4.0711,-4.0479,-4.0386,-4.0188,-3.9954,-3.9684,-4.0071,-4.0208,-3.9779,-3.9539,-3.9203,-3.8677,-3.815,-3.7785,-3.7655,-3.7518,-3.7435,-3.7382,-3.7143,-3.6904,-3.6766,-3.6495,-3.6277,-3.6168,-3.6114,-3.6004,-3.5753,-3.5643,-3.5588,-3.5312,-3.5257,-3.5091,-3.4879,-3.4668,-3.4479,-3.403,-3.3918,-3.3826,-3.3523,-3.3332,-3.3398,-3.3537,-3.3651,-3.3659,-3.3605,-3.3155,-3.2994,-3.274,-3.2549,-3.2422,-3.2166,-3.2166,-3.191,-3.1589,-3.1331,-3.1138,-3.1073,-3.075,-3.062,-3.0296,-3.0165,-3.0018,-2.9691,-2.9626,-2.9513,-4.5037,-4.3976,-4.3899,-4.3994,-4.4158,-4.4184,-4.4105,-4.3944,-4.4119,-4.3987,-4.3579,-4.3517,-4.3399,-4.3003,-4.2428,-4.2021,-4.19,-4.176,-4.1509,-4.1244,-4.1557,-4.1725,-4.1774,-4.2086,-4.2313,-4.2313,-4.2313,-4.2097,-4.1667,-4.0819,-4.0363,-4.0363,-4.0188,-4.0095,-4.0153,-4.0363,-4.0479,-4.0421,-4.0363,-4.0305,-4.0223,-4.0281,-4.0479,-4.0677,-4.0792,-4.0966,-4.1196,-4.1196,-4.1196,-4.1196,-4.0942,-4.085,-4.0653,-4.0421,-4.013,-4.0013,-4.0363,-4.0568,-4.0188,-3.997,-3.9633,-3.9104,-3.8575,-3.819,-3.8022,-3.7838,-3.7756,-3.7702,-3.7489,-3.7251,-3.7197,-3.682,-3.6549,-3.6417,-3.6386,-3.6223,-3.6004,-3.5972,-3.5931,-3.5813,-3.5747,-3.5625,-3.5625,-3.5635,-3.5467,-3.505,-3.4937,-3.4666,-3.4345,-3.4247,-3.4231,-3.4459,-3.4533,-3.4731,-3.478,-3.4507,-3.3922,-3.3607,-3.3292,-3.2975,-3.2721,-3.274,-3.2549,-3.223,-3.1974,-3.1846,-3.1653,-3.1267,-3.0944,-3.0638,-3.0555,-3.0426,-3.0148,-3.0035,-2.9839,-4.5154,-4.4006,-4.3899,-4.3955,-4.3976,-4.3976,-4.376,-4.3609,-4.4041,-4.3847,-4.344,-4.3796,-4.3523,-4.2971,-4.2452,-4.2093,-4.1695,-4.1499,-4.1302,-4.1196,-4.122,-4.1244,-4.1268,-4.1317,-4.1365,-4.1341,-4.1244,-4.1244,-4.1244,-4.0874,-4.0677,-4.0653,-4.0677,-4.0619,-4.0677,-4.0884,-4.1,-4.0769,-4.0735,-4.0537,-4.0281,-4.0537,-4.0735,-4.0792,-4.1024,-4.1196,-4.1196,-4.1196,-4.1196,-4.1196,-4.1172,-4.1024,-4.0735,-4.0421,-4.0223,-4.0281,-4.0537,-4.0711,-4.0697,-4.0473,-4.009,-3.9657,-3.9128,-3.8599,-3.819,-3.807,-3.8046,-3.7945,-3.7838,-3.7649,-3.7596,-3.7304,-3.6958,-3.6712,-3.6541,-3.6424,-3.6346,-3.6323,-3.6374,-3.6531,-3.6421,-3.642,-3.6735,-3.6757,-3.6655,-3.6484,-3.6334,-3.6051,-3.5606,-3.5438,-3.5438,-3.5515,-3.5478,-3.5544,-3.576,-3.5809,-3.517,-3.461,-3.4235,-3.3922,-3.3544,-3.3355,-3.3121,-3.2804,-3.2294,-3.2166,-3.1974,-3.1653,-3.1396,-3.1073,-3.1009,-3.0815,-3.0555,-3.0361,-3.0165,-4.5207,-4.4502,-4.4476,-4.4367,-4.4148,-4.4174,-4.3984,-4.3708,-4.3721,-4.3548,-4.335,-4.313,-4.2878,-4.2609,-4.2332,-4.2087,-4.1915,-4.1826,-4.1573,-4.123,-4.1196,-4.1254,-4.1254,-4.1196,-4.1196,-4.1196,-4.1196,-4.1196,-4.1139,-4.085,-4.0735,-4.0735,-4.0735,-4.0735,-4.0735,-4.1,-4.1139,-4.1057,-4.1081,-4.1024,-4.0884,-4.0942,-4.1081,-4.1081,-4.1115,-4.1196,-4.1196,-4.1196,-4.1196,-4.1196,-4.1196,-4.1081,-4.0792,-4.0826,-4.0769,-4.0619,-4.085,-4.1057,-4.1009,-4.0658,-4.0355,-4.009,-3.9657,-3.9128,-3.8647,-3.8688,-3.8626,-3.8388,-3.8315,-3.8368,-3.8157,-3.7892,-3.7489,-3.682,-3.6904,-3.7003,-3.6884,-3.7058,-3.73,-3.7382,-3.7314,-3.7292,-3.7235,-3.7246,-3.7234,-3.7061,-3.6866,-3.6697,-3.655,-3.6352,-3.6166,-3.6273,-3.6237,-3.6192,-3.6271,-3.63,-3.5932,-3.5356,-3.4984,-3.4673,-3.4298,-3.3985,-3.367,-3.3228,-3.2804,-3.2422,-3.223,-3.1974,-3.1717,-3.1525,-3.1396,-3.1138,-3.0815,-3.0685,-3.0555,-4.5216,-4.4694,-4.4694,-4.4613,-4.4476,-4.4476,-4.4313,-4.4064,-4.3874,-4.3628,-4.3351,-4.3017,-4.2793,-4.2625,-4.2369,-4.2256,-4.228,-4.2142,-4.1859,-4.1598,-4.1516,-4.1541,-4.1516,-4.1402,-4.1287,-4.123,-4.1196,-4.1196,-4.1196,-4.1,-4.0908,-4.0908,-4.0908,-4.0908,-4.0908,-4.1081,-4.1196,-4.1196,-4.1196,-4.1196,-4.1196,-4.1196,-4.1196,-4.1196,-4.1196,-4.1196,-4.1196,-4.1196,-4.1196,-4.1196,-4.1196,-4.1081,-4.0908,-4.1057,-4.1115,-4.1024,-4.1081,-4.1172,-4.1148,-4.0884,-4.0595,-4.0379,-4.009,-3.9681,-3.9303,-3.9376,-3.9272,-3.881,-3.8949,-3.8957,-3.8575,-3.8509,-3.8155,-3.7588,-3.7543,-3.7627,-3.7534,-3.7642,-3.7885,-3.7999,-3.8091,-3.8103,-3.8125,-3.8055,-3.7997,-3.7824,-3.7685,-3.7514,-3.7376,-3.7211,-3.7141,-3.7059,-3.6953,-3.685,-3.6764,-3.6728,-3.6606,-3.6178,-3.5665,-3.5232,-3.4859,-3.461,-3.4298,-3.367,-3.3165,-3.2867,-3.2657,-3.2294,-3.2038,-3.191,-3.1846,-3.1589,-3.1331,-3.1138,-3.1009,-4.519,-4.4694,-4.4694,-4.4668,-4.4668,-4.4694,-4.4531,-4.4367,-4.4258,-4.3958,-4.3572,-4.3381,-4.324,-4.2961,-4.2706,-4.2513,-4.2457,-4.2312,-4.2199,-4.2167,-4.2167,-4.211,-4.1972,-4.1745,-4.1492,-4.1287,-4.123,-4.123,-4.1196,-4.1172,-4.1196,-4.1196,-4.1115,-4.1172,-4.1196,-4.1196,-4.1196,-4.1196,-4.1196,-4.1196,-4.1196,-4.1196,-4.1196,-4.1196,-4.1196,-4.1196,-4.1196,-4.1196,-4.1196,-4.1196,-4.1196,-4.1196,-4.1196,-4.1196,-4.1172,-4.1172,-4.1196,-4.1196,-4.1196,-4.1124,-4.0956,-4.0571,-4.0475,-4.021,-3.9809,-3.9885,-3.9886,-3.9453,-3.9672,-3.9582,-3.9181,-3.9193,-3.9194,-3.8864,-3.8485,-3.8254,-3.8348,-3.8238,-3.8378,-3.8643,-3.87,-3.8757,-3.9101,-3.9111,-3.9111,-3.9053,-3.883,-3.8508,-3.8313,-3.8078,-3.794,-3.7829,-3.7673,-3.7462,-3.7335,-3.7214,-3.7093,-3.6789,-3.63,-3.5809,-3.5356,-3.5046,-3.4735,-3.4173,-3.367,-3.3355,-3.3038,-3.2804,-3.2485,-3.2358,-3.223,-3.1974,-3.1782,-3.1589,-3.1414,-4.4879,-4.4694,-4.4694,-4.4694,-4.4694,-4.4694,-4.4694,-4.4585,-4.4367,-4.4203,-4.3958,-4.3572,-4.3406,-4.3295,-4.2986,-4.2874,-4.2818,-4.2762,-4.2762,-4.2762,-4.2762,-4.2481,-4.2167,-4.2029,-4.1802,-4.1549,-4.1492,-4.1402,-4.1254,-4.123,-4.1254,-4.1196,-4.123,-4.1196,-4.1196,-4.1196,-4.1196,-4.1196,-4.1196,-4.1196,-4.1196,-4.1196,-4.1196,-4.1196,-4.1196,-4.1196,-4.1196,-4.1196,-4.1196,-4.1196,-4.1196,-4.1196,-4.1196,-4.1172,-4.123,-4.123,-4.123,-4.1196,-4.1196,-4.1196,-4.11,-4.1004,-4.0932,-4.0739,-4.0258,-4.0689,-4.0642,-4.0389,-4.0591,-4.0732,-4.0447,-4.0413,-4.0389,-4.0207,-3.9563,-3.9269,-3.952,-3.965,-3.957,-3.9511,-3.9453,-3.9428,-3.938,-3.9367,-3.9367,-3.9308,-3.9226,-3.9085,-3.8889,-3.8667,-3.8498,-3.8424,-3.8328,-3.8074,-3.7878,-3.7698,-3.7517,-3.7275,-3.685,-3.6361,-3.5809,-3.5294,-3.4984,-3.461,-3.4298,-3.3922,-3.367,-3.3355,-3.3184,-3.2867,-3.2549,-3.2294,-3.2185,-3.2057,-3.192,-4.4694,-4.4694,-4.4694,-4.4694,-4.4694,-4.4694,-4.4694,-4.4668,-4.4531,-4.4422,-4.4258,-4.3984,-4.3628,-4.3406,-4.324,-4.3098,-4.3042,-4.2986,-4.3042,-4.3184,-4.3321,-4.2986,-4.2425,-4.2256,-4.2086,-4.1859,-4.1777,-4.1745,-4.1631,-4.1573,-4.1516,-4.1402,-4.1402,-4.1287,-4.1196,-4.1196,-4.1196,-4.1196,-4.1196,-4.1196,-4.1196,-4.1196,-4.1196,-4.1196,-4.1196,-4.1196,-4.1196,-4.1196,-4.1196,-4.1196,-4.1196,-4.1196,-4.1196,-4.1344,-4.1402,-4.1378,-4.1459,-4.1516,-4.1402,-4.1344,-4.1287,-4.123,-4.1196,-4.1085,-4.1015,-4.1338,-4.1453,-4.1265,-4.1597,-4.1688,-4.1512,-4.1397,-4.1304,-4.1111,-4.0691,-4.0378,-4.0455,-4.0234,-4.0106,-4.0013,-3.9954,-3.9896,-3.972,-3.9638,-3.9603,-3.9544,-3.9544,-3.9426,-3.9285,-3.9108,-3.893,-3.8871,-3.8693,-3.8455,-3.8238,-3.8058,-3.7878,-3.7637,-3.7214,-3.6789,-3.6178,-3.5541,-3.5294,-3.4984,-3.4797,-3.4485,-3.4173,-3.3859,-3.3607,-3.3292,-3.2931,-3.2753,-3.2701,-3.2528,-3.2373,-4.4694,-4.4694,-4.4694,-4.4694,-4.4694,-4.4694,-4.4694,-4.4694,-4.4694,-4.4585,-4.4367,-4.4313,-4.3984,-4.3517,-4.3436,-4.3295,-4.3098,-4.3098,-4.3265,-4.3462,-4.3653,-4.3432,-4.2818,-4.2681,-4.2481,-4.2199,-4.2142,-4.211,-4.1997,-4.2054,-4.1915,-4.172,-4.1663,-4.1492,-4.1344,-4.1287,-4.123,-4.1196,-4.1196,-4.1196,-4.123,-4.123,-4.1287,-4.1287,-4.1369,-4.1402,-4.1344,-4.1344,-4.1369,-4.1311,-4.123,-4.1287,-4.1287,-4.1492,-4.1663,-4.1663,-4.1859,-4.1915,-4.1663,-4.1606,-4.1492,-4.1344,-4.123,-4.1287,-4.1501,-4.1817,-4.204,-4.2093,-4.2452,-4.2547,-4.248,-4.2309,-4.2083,-4.1808,-4.1647,-4.1378,-4.0942,-4.0537,-4.0281,-4.0246,-4.0223,-4.0223,-4.0223,-4.0165,-4.0106,-3.9837,-3.9779,-3.972,-3.9603,-3.9426,-3.9285,-3.9108,-3.893,-3.8752,-3.8596,-3.844,-3.8178,-3.7878,-3.7517,-3.7032,-3.6423,-3.5932,-3.5562,-3.5314,-3.5108,-3.4859,-3.4548,-3.4235,-3.4047,-3.3733,-3.3355,-3.3353,-3.3457,-3.3115,-3.2941,-4.4694,-4.4694,-4.4694,-4.4694,-4.4694,-4.4694,-4.4694,-4.4694,-4.4694,-4.4694,-4.4585,-4.4422,-4.4258,-4.4068,-4.3683,-4.3462,-4.3649,-4.3563,-4.3462,-4.3789,-4.3844,-4.3844,-4.3568,-4.3351,-4.2905,-4.2594,-4.2425,-4.2312,-4.2142,-4.2167,-4.211,-4.1972,-4.1972,-4.1802,-4.1549,-4.1516,-4.1402,-4.123,-4.1254,-4.1254,-4.1287,-4.1459,-4.1492,-4.1516,-4.1745,-4.1859,-4.1883,-4.194,-4.194,-4.1859,-4.1688,-4.1549,-4.1549,-4.1802,-4.1972,-4.2029,-4.2029,-4.211,-4.1972,-4.1777,-4.1582,-4.1549,-4.1402,-4.1287,-4.1606,-4.1915,-4.2319,-4.2674,-4.3063,-4.3267,-4.3384,-4.3072,-4.2811,-4.26,-4.2256,-4.1915,-4.1745,-4.1287,-4.0942,-4.0711,-4.0595,-4.0479,-4.0281,-4.0281,-4.0246,-4.013,-4.013,-4.0071,-3.9954,-3.9779,-3.9603,-3.9426,-3.9249,-3.9072,-3.8812,-3.8656,-3.8418,-3.8156,-3.7758,-3.7478,-3.685,-3.6239,-3.5932,-3.5665,-3.5479,-3.517,-3.4859,-3.4673,-3.4485,-3.411,-3.3816,-3.3819,-3.3759,-3.3598,-3.3486,-4.4694,-4.4694,-4.4694,-4.4694,-4.4694,-4.4694,-4.4694,-4.4694,-4.4694,-4.4694,-4.4694,-4.4531,-4.4422,-4.4313,-4.3984,-4.3976,-4.431,-4.454,-4.457,-4.4638,-4.4616,-4.4461,-4.4119,-4.3874,-4.3517,-4.3017,-4.2961,-4.2737,-4.2594,-4.2481,-4.2481,-4.2312,-4.2256,-4.2142,-4.1915,-4.1859,-4.1745,-4.1712,-4.1655,-4.1655,-4.1631,-4.1745,-4.1834,-4.1859,-4.1972,-4.211,-4.2054,-4.211,-4.211,-4.211,-4.2086,-4.1948,-4.1915,-4.2142,-4.2256,-4.2312,-4.2425,-4.2425,-4.2312,-4.2142,-4.1972,-4.1834,-4.1688,-4.1802,-4.1948,-4.2199,-4.265,-4.3209,-4.3598,-4.3764,-4.4039,-4.3874,-4.3543,-4.3154,-4.2818,-4.2481,-4.2256,-4.1859,-4.1573,-4.1344,-4.123,-4.1115,-4.0918,-4.0687,-4.0537,-4.0479,-4.0421,-4.0421,-4.0106,-4.0013,-3.9896,-3.972,-3.9626,-3.9426,-3.9108,-3.8871,-3.8693,-3.8395,-3.8058,-3.7818,-3.7456,-3.685,-3.63,-3.6055,-3.5726,-3.5541,-3.5232,-3.5108,-3.4859,-3.4548,-3.4315,-3.4199,-3.4123,-3.3959,-3.3953,-4.4694,-4.4694,-4.4694,-4.4694,-4.4694,-4.4694,-4.4694,-4.4694,-4.4694,-4.4694,-4.4694,-4.4694,-4.4585,-4.4422,-4.4468,-4.4587,-4.5047,-4.5576,-4.5663,-4.546,-4.5418,-4.5103,-4.4626,-4.439,-4.4068,-4.3572,-4.3462,-4.3295,-4.3073,-4.3042,-4.2849,-4.265,-4.2569,-4.2425,-4.2199,-4.2142,-4.2086,-4.2054,-4.1997,-4.1997,-4.2029,-4.211,-4.2142,-4.2256,-4.2312,-4.2312,-4.2312,-4.2312,-4.2256,-4.228,-4.2425,-4.2425,-4.2369,-4.2425,-4.2569,-4.2569,-4.2818,-4.2818,-4.2625,-4.2457,-4.2369,-4.2142,-4.211,-4.2199,-4.24,-4.2569,-4.3042,-4.3568,-4.3955,-4.4094,-4.4313,-4.4203,-4.3984,-4.3628,-4.3321,-4.3042,-4.2762,-4.2481,-4.2393,-4.1997,-4.1745,-4.1573,-4.1435,-4.1263,-4.1057,-4.0884,-4.0792,-4.0735,-4.0479,-4.0223,-4.0188,-4.0071,-3.9954,-3.9743,-3.9426,-3.9108,-3.893,-3.8633,-3.8276,-3.8058,-3.7818,-3.7275,-3.6728,-3.63,-3.5993,-3.5726,-3.5541,-3.5294,-3.5046,-3.4859,-3.4691,-3.4455,-3.4402,-3.4364,-3.4297,-4.4694,-4.4694,-4.4694,-4.4694,-4.4694,-4.4694,-4.4694,-4.4694,-4.4694,-4.4694,-4.4694,-4.4694,-4.4668,-4.4689,-4.4941,-4.5322,-4.5788,-4.6325,-4.6413,-4.6152,-4.5921,-4.5526,-4.5343,-4.4872,-4.45,-4.4203,-4.3929,-4.3708,-4.3406,-4.327,-4.3184,-4.2961,-4.293,-4.2762,-4.2569,-4.24,-4.2425,-4.2369,-4.2337,-4.228,-4.2256,-4.2369,-4.2538,-4.2706,-4.2762,-4.2762,-4.2818,-4.2818,-4.2874,-4.2874,-4.293,-4.2874,-4.2874,-4.293,-4.293,-4.2874,-4.293,-4.293,-4.2874,-4.2625,-4.2513,-4.2425,-4.2312,-4.2312,-4.2513,-4.2793,-4.3265,-4.3764,-4.4313,-4.4585,-4.4639,-4.4476,-4.4313,-4.4094,-4.3874,-4.3708,-4.3623,-4.3457,-4.3123,-4.2506,-4.2199,-4.1972,-4.1891,-4.172,-4.1402,-4.123,-4.1115,-4.1057,-4.0884,-4.0711,-4.0537,-4.0421,-4.0305,-4.0071,-3.9802,-3.9426,-3.9167,-3.8871,-3.8537,-3.8238,-3.7938,-3.7577,-3.7154,-3.6728,-3.63,-3.5993,-3.5747,-3.55,-3.5232,-3.5046,-3.4879,-3.4689,-3.4555,-3.4481,-3.4379,-4.4694,-4.4694,-4.4694,-4.4694,-4.4694,-4.4694,-4.4694,-4.4694,-4.4694,-4.4694,-4.4694,-4.4694,-4.4694,-4.485,-4.5239,-4.5831,-4.6616,-4.72,-4.7179,-4.6917,-4.663,-4.6316,-4.6055,-4.548,-4.5161,-4.4895,-4.4549,-4.4094,-4.3708,-4.3653,-4.3598,-4.3487,-4.3432,-4.3376,-4.3265,-4.3265,-4.3098,-4.2986,-4.3011,-4.293,-4.2737,-4.2818,-4.2874,-4.2986,-4.3042,-4.2986,-4.2986,-4.2986,-4.3073,-4.3184,-4.3184,-4.3321,-4.3376,-4.3432,-4.3321,-4.3098,-4.3042,-4.2986,-4.2986,-4.2793,-4.2849,-4.2961,-4.2793,-4.293,-4.3154,-4.3432,-4.3653,-4.4039,-4.4422,-4.4694,-4.4694,-4.4559,-4.4505,-4.4476,-4.4258,-4.4174,-4.4094,-4.401,-4.3543,-4.2986,-4.2818,-4.2594,-4.24,-4.2118,-4.1802,-4.1573,-4.1483,-4.1393,-4.1302,-4.1211,-4.1062,-4.0653,-4.0479,-4.0246,-3.9978,-3.9684,-3.9426,-3.9131,-3.8775,-3.8477,-3.8178,-3.7818,-3.7495,-3.7193,-3.6767,-3.6361,-3.5932,-3.5726,-3.5479,-3.5232,-3.5025,-3.4836,-3.4707,-3.4552,-3.4457,-4.4694,-4.4694,-4.4694,-4.4694,-4.4694,-4.4694,-4.4694,-4.4694,-4.4694,-4.4694,-4.4694,-4.4694,-4.4694,-4.4877,-4.5503,-4.6365,-4.7466,-4.7989,-4.7832,-4.7545,-4.7398,-4.7136,-4.6717,-4.6275,-4.5936,-4.5674,-4.5383,-4.4663,-4.4064,-4.401,-4.3955,-4.3844,-4.3844,-4.3899,-4.3844,-4.3734,-4.3899,-4.3899,-4.3899,-4.3708,-4.3517,-4.3321,-4.3154,-4.3154,-4.3209,-4.3209,-4.3265,-4.3265,-4.3321,-4.3462,-4.3517,-4.3653,-4.3844,-4.3899,-4.3679,-4.3265,-4.3154,-4.3098,-4.3073,-4.3073,-4.3184,-4.3406,-4.3462,-4.3653,-4.3764,-4.3819,-4.4039,-4.4367,-4.4585,-4.4694,-4.4694,-4.4694,-4.4668,-4.4613,-4.4531,-4.4367,-4.4313,-4.4258,-4.4203,-4.3764,-4.3487,-4.3179,-4.2899,-4.2675,-4.2305,-4.2201,-4.211,-4.1913,-4.1822,-4.174,-4.1519,-4.0956,-4.0595,-4.0363,-4.0071,-3.9919,-3.9684,-3.9426,-3.899,-3.8633,-3.8335,-3.8118,-3.7818,-3.7495,-3.7214,-3.6789,-3.634,-3.5911,-3.5726,-3.5479,-3.517,-3.4962,-3.4794,-3.4627,-3.4455,-4.4694,-4.4694,-4.4694,-4.4694,-4.4694,-4.4694,-4.4694,-4.4694,-4.4694,-4.4694,-4.4748,-4.4748,-4.4748,-4.5142,-4.6006,-4.7053,-4.7864,-4.821,-4.8236,-4.8111,-4.7942,-4.7762,-4.7608,-4.7386,-4.6853,-4.6508,-4.6271,-4.5465,-4.4713,-4.439,-4.4174,-4.401,-4.401,-4.3899,-4.401,-4.401,-4.3899,-4.3899,-4.3899,-4.3899,-4.3819,-4.3789,-4.3734,-4.3734,-4.3734,-4.3708,-4.3679,-4.3679,-4.3764,-4.3819,-4.3819,-4.3844,-4.3899,-4.3899,-4.3899,-4.3734,-4.3543,-4.3351,-4.3351,-4.3351,-4.3517,-4.3764,-4.3819,-4.3874,-4.3984,-4.4148,-4.4367,-4.4613,-4.4668,-4.4694,-4.4694,-4.4694,-4.4694,-4.4798,-4.4903,-4.4796,-4.4715,-4.4999,-4.4892,-4.4603,-4.427,-4.3751,-4.331,-4.3087,-4.2856,-4.2806,-4.2708,-4.2568,-4.2345,-4.2238,-4.191,-4.1369,-4.0874,-4.0595,-4.0363,-4.0153,-3.9919,-3.9743,-3.9367,-3.8871,-3.8574,-3.8358,-3.8058,-3.7758,-3.7517,-3.7214,-3.6828,-3.6401,-3.6055,-3.5747,-3.5479,-3.5232,-3.4942,-3.4735,-3.4485,-4.4694,-4.4694,-4.4694,-4.4694,-4.4694,-4.4694,-4.4694,-4.4694,-4.4694,-4.4776,-4.4964,-4.5018,-4.5415,-4.6183,-4.7192,-4.7959,-4.8589,-4.8695,-4.8721,-4.8721,-4.8572,-4.8528,-4.8421,-4.811,-4.7716,-4.7396,-4.6889,-4.6272,-4.552,-4.504,-4.4639,-4.4448,-4.4393,-4.4367,-4.4497,-4.4393,-4.4367,-4.4313,-4.4258,-4.4148,-4.4094,-4.401,-4.3899,-4.3899,-4.3899,-4.3899,-4.3899,-4.3899,-4.401,-4.4039,-4.4094,-4.4203,-4.4313,-4.4367,-4.4313,-4.4094,-4.3984,-4.3848,-4.3708,-4.3708,-4.3874,-4.4039,-4.4148,-4.4203,-4.4313,-4.4422,-4.4531,-4.4694,-4.4694,-4.4694,-4.4798,-4.4981,-4.5138,-4.5297,-4.5401,-4.5558,-4.5584,-4.5689,-4.5712,-4.537,-4.508,-4.4638,-4.4219,-4.4041,-4.3834,-4.3612,-4.3565,-4.3481,-4.3075,-4.2622,-4.2268,-4.1808,-4.1321,-4.0884,-4.0653,-4.0503,-4.0153,-3.9919,-3.9743,-3.9308,-3.8871,-3.8574,-3.8276,-3.7998,-3.7758,-3.7517,-3.7214,-3.685,-3.6423,-3.6116,-3.5788,-3.5479,-3.5232,-3.4922,-3.461,-4.4694,-4.4694,-4.4694,-4.4694,-4.4694,-4.4694,-4.4694,-4.4694,-4.4694,-4.491,-4.5179,-4.5473,-4.6271,-4.7258,-4.7953,-4.8482,-4.9041,-4.9125,-4.9125,-4.9125,-4.9183,-4.9186,-4.911,-4.8846,-4.8661,-4.8471,-4.7779,-4.716,-4.6675,-4.6246,-4.5709,-4.5201,-4.549,-4.5463,-4.5411,-4.538,-4.5323,-4.5213,-4.4866,-4.4707,-4.4626,-4.4281,-4.42,-4.4119,-4.4119,-4.4094,-4.4119,-4.4119,-4.4258,-4.4367,-4.4422,-4.4476,-4.4613,-4.4639,-4.4559,-4.4422,-4.4341,-4.4313,-4.4148,-4.4119,-4.4148,-4.4313,-4.4422,-4.4476,-4.4639,-4.4694,-4.4694,-4.4694,-4.4957,-4.4903,-4.5007,-4.5506,-4.5767,-4.595,-4.6133,-4.6342,-4.6499,-4.6395,-4.6264,-4.6003,-4.579,-4.5735,-4.5395,-4.5161,-4.4897,-4.4464,-4.4402,-4.4385,-4.3943,-4.3296,-4.2925,-4.2511,-4.1972,-4.1625,-4.1379,-4.1041,-4.0621,-4.0153,-4.0001,-3.9684,-3.9249,-3.8871,-3.8574,-3.8276,-3.8058,-3.7758,-3.7517,-3.7154,-3.681,-3.6484,-3.6116,-3.5809,-3.5479,-3.517,-3.4859,-4.4694,-4.4694,-4.4722,-4.4694,-4.4694,-4.4694,-4.4694,-4.4722,-4.4748,-4.4991,-4.5446,-4.6086,-4.6835,-4.7502,-4.8198,-4.8759,-4.9125,-4.9125,-4.9183,-4.9297,-4.9412,-4.9499,-4.9559,-4.9565,-4.9489,-4.9083,-4.8568,-4.8188,-4.7862,-4.7537,-4.6998,-4.6541,-4.6643,-4.699,-4.6935,-4.6528,-4.6359,-4.6114,-4.5767,-4.5503,-4.5346,-4.5031,-4.4718,-4.4666,-4.4694,-4.4668,-4.4613,-4.4613,-4.4668,-4.4722,-4.4668,-4.4668,-4.4776,-4.4722,-4.4668,-4.4613,-4.4639,-4.4611,-4.458,-4.4419,-4.4448,-4.4585,-4.4746,-4.477,-4.485,-4.472,-4.4694,-4.4798,-4.5138,-4.5425,-4.5689,-4.6029,-4.6369,-4.6525,-4.6682,-4.6839,-4.6917,-4.6813,-4.6682,-4.6499,-4.6421,-4.6365,-4.636,-4.615,-4.5745,-4.5367,-4.5238,-4.5244,-4.4774,-4.4205,-4.3841,-4.336,-4.2793,-4.2433,-4.2278,-4.1866,-4.1219,-4.0703,-4.0364,-4.0083,-3.9684,-3.9308,-3.893,-3.8574,-3.8335,-3.8096,-3.7818,-3.7456,-3.7093,-3.6789,-3.6484,-3.6116,-3.5788,-3.5418,-3.5108,-4.5018,-4.5018,-4.4776,-4.4694,-4.4694,-4.4694,-4.4694,-4.4748,-4.491,-4.5499,-4.6249,-4.7136,-4.7891,-4.8484,-4.905,-4.9454,-4.967,-4.967,-4.9613,-4.967,-4.9783,-4.984,-4.9897,-4.987,-4.9874,-4.9603,-4.9331,-4.9032,-4.8677,-4.8568,-4.8487,-4.8132,-4.7749,-4.7396,-4.7311,-4.7362,-4.7113,-4.681,-4.657,-4.6438,-4.6307,-4.5886,-4.5599,-4.579,-4.5367,-4.5287,-4.5261,-4.5261,-4.5261,-4.5234,-4.5099,-4.5045,-4.4938,-4.483,-4.4722,-4.4748,-4.4774,-4.4877,-4.5059,-4.49,-4.4796,-4.5135,-4.5242,-4.5216,-4.5245,-4.5009,-4.4981,-4.5164,-4.5477,-4.579,-4.6186,-4.663,-4.7022,-4.7074,-4.7205,-4.7362,-4.7362,-4.7283,-4.7179,-4.7048,-4.7022,-4.6939,-4.7017,-4.7038,-4.663,-4.6243,-4.6163,-4.5984,-4.5425,-4.5012,-4.4621,-4.423,-4.3684,-4.3321,-4.3164,-4.2472,-4.176,-4.1301,-4.0832,-4.0446,-4.0083,-3.9743,-3.9367,-3.899,-3.8633,-3.8335,-3.8036,-3.7758,-3.7396,-3.7032,-3.6728,-3.6423,-3.6055,-3.5665,-3.5418,-4.5287,-4.518,-4.4938,-4.4776,-4.4722,-4.4802,-4.483,-4.491,-4.518,-4.5874,-4.6921,-4.7812,-4.8517,-4.9169,-4.9711,-4.9926,-4.9953,-4.9953,-4.9953,-4.9953,-4.9953,-5.001,-5.001,-4.9983,-4.9983,-4.9901,-4.9684,-4.933,-4.933,-4.933,-4.9303,-4.9056,-4.8644,-4.8342,-4.8233,-4.8067,-4.7873,-4.7649,-4.7351,-4.7354,-4.7219,-4.6742,-4.648,-4.6673,-4.6353,-4.622,-4.622,-4.6247,-4.6061,-4.59,-4.5714,-4.5526,-4.5313,-4.5072,-4.4884,-4.4883,-4.4985,-4.5192,-4.5401,-4.5532,-4.5428,-4.582,-4.5872,-4.5872,-4.5767,-4.5506,-4.5637,-4.582,-4.6029,-4.629,-4.6761,-4.7231,-4.7545,-4.7623,-4.7754,-4.7885,-4.7911,-4.7858,-4.7754,-4.7623,-4.7597,-4.7571,-4.7482,-4.7476,-4.7127,-4.677,-4.6569,-4.633,-4.598,-4.565,-4.544,-4.5047,-4.4571,-4.4314,-4.4082,-4.3311,-4.2628,-4.1972,-4.1455,-4.089,-4.0504,-4.0165,-3.9825,-3.9367,-3.9012,-3.8633,-3.8335,-3.7998,-3.7577,-3.7154,-3.6911,-3.6667,-3.63,-3.5932,-3.5665,-4.5448,-4.5234,-4.518,-4.5018,-4.4776,-4.5072,-4.518,-4.518,-4.5502,-4.6169,-4.711,-4.792,-4.8626,-4.9223,-4.982,-4.9983,-5.001,-5.001,-5.001,-5.001,-5.001,-5.001,-5.001,-5.001,-5.001,-5.001,-4.9874,-4.982,-4.9901,-4.982,-4.9874,-4.9874,-4.9599,-4.9543,-4.9816,-4.9616,-4.9331,-4.8965,-4.8459,-4.8273,-4.8113,-4.766,-4.7449,-4.7479,-4.7292,-4.7159,-4.7241,-4.7213,-4.6972,-4.6625,-4.6409,-4.6061,-4.5608,-4.5341,-4.5206,-4.5286,-4.5461,-4.5613,-4.5715,-4.6215,-4.6477,-4.6447,-4.6473,-4.6447,-4.6473,-4.6425,-4.6372,-4.6533,-4.6843,-4.71,-4.7466,-4.7754,-4.7963,-4.8068,-4.8146,-4.8172,-4.8172,-4.8172,-4.8015,-4.7937,-4.8068,-4.8146,-4.8003,-4.7886,-4.7541,-4.7213,-4.6993,-4.6661,-4.6361,-4.6105,-4.5895,-4.571,-4.5256,-4.5181,-4.4839,-4.4156,-4.3443,-4.2793,-4.2151,-4.1574,-4.1009,-4.0563,-4.0176,-3.979,-3.9367,-3.9012,-3.8633,-3.8298,-3.7878,-3.7396,-3.7093,-3.685,-3.6484,-3.6178,-3.5911,-4.5822,-4.5688,-4.5341,-4.5234,-4.5287,-4.5234,-4.518,-4.5287,-4.5875,-4.6892,-4.792,-4.8463,-4.9118,-4.9772,-4.9903,-5.001,-5.001,-5.001,-5.001,-5.001,-5.001,-5.001,-5.001,-5.001,-5.001,-5.001,-5.001,-5.001,-4.9983,-5.001,-5.001,-5.001,-5.001,-5.001,-4.9953,-4.984,-4.9727,-4.9472,-4.9227,-4.9147,-4.9093,-4.861,-4.8344,-4.8484,-4.8188,-4.8081,-4.83,-4.819,-4.7866,-4.7406,-4.7217,-4.6572,-4.6035,-4.5689,-4.5661,-4.5927,-4.6215,-4.6612,-4.7221,-4.7857,-4.7788,-4.7376,-4.7105,-4.7105,-4.7048,-4.6882,-4.6991,-4.7284,-4.7516,-4.7832,-4.8232,-4.8105,-4.8178,-4.8146,-4.8172,-4.8172,-4.8172,-4.8172,-4.812,-4.812,-4.8172,-4.8172,-4.8114,-4.8055,-4.7821,-4.7527,-4.7197,-4.6959,-4.6661,-4.6361,-4.6165,-4.6165,-4.598,-4.5895,-4.5635,-4.4973,-4.4472,-4.3915,-4.3193,-4.2431,-4.1838,-4.1223,-4.0575,-4.0188,-3.9777,-3.9308,-3.8871,-3.8455,-3.8058,-3.7698,-3.7396,-3.7093,-3.6789,-3.6484,-3.6156,-4.606,-4.5954,-4.5662,-4.5502,-4.5555,-4.5395,-4.5448,-4.5822,-4.6377,-4.7425,-4.8596,-4.8842,-4.9447,-5.013,-5.0319,-5.0066,-5.001,-5.001,-5.001,-5.001,-5.001,-5.001,-5.001,-5.001,-5.001,-5.001,-5.001,-5.001,-5.001,-5.001,-5.001,-5.001,-5.001,-5.001,-5.001,-4.9953,-4.9897,-4.9727,-4.9646,-4.9673,-4.9592,-4.9376,-4.9272,-4.9414,-4.9335,-4.92,-4.931,-4.92,-4.8954,-4.8462,-4.7891,-4.7244,-4.6704,-4.6169,-4.6169,-4.6437,-4.7049,-4.7582,-4.8379,-4.8695,-4.8493,-4.8078,-4.7911,-4.7911,-4.7885,-4.7876,-4.7959,-4.8148,-4.8228,-4.844,-4.8673,-4.8521,-4.8347,-4.8347,-4.823,-4.823,-4.823,-4.823,-4.8172,-4.8172,-4.8172,-4.8172,-4.8172,-4.8172,-4.8055,-4.7762,-4.7493,-4.7197,-4.6959,-4.6661,-4.6421,-4.6421,-4.6301,-4.6165,-4.603,-4.5795,-4.5341,-4.5022,-4.4294,-4.3427,-4.2732,-4.2029,-4.1306,-4.0669,-4.0387,-3.9939,-3.9177,-3.8633,-3.8276,-3.7998,-3.7698,-3.7456,-3.7154,-3.6789,-3.6423,-4.6325,-4.606,-4.6034,-4.5928,-4.5742,-4.5902,-4.6247,-4.6848,-4.6928,-4.7823,-4.9083,-4.9138,-4.9775,-5.0435,-5.0571,-5.0319,-5.0123,-5.0066,-5.001,-5.001,-5.001,-5.001,-5.001,-5.001,-5.001,-5.001,-5.001,-5.001,-5.001,-5.001,-5.001,-5.001,-5.001,-5.001,-5.0066,-5.0066,-5.001,-4.9953,-4.9897,-4.9897,-4.9816,-4.9956,-4.9987,-5.0101,-5.0213,-5.0325,-5.0492,-5.0519,-5.0271,-4.9775,-4.9117,-4.846,-4.7699,-4.6729,-4.6651,-4.7028,-4.7909,-4.8575,-4.9,-4.9244,-4.9213,-4.8965,-4.9019,-4.9072,-4.8961,-4.8801,-4.8832,-4.8859,-4.8912,-4.8992,-4.9068,-4.8895,-4.8721,-4.8548,-4.8431,-4.8373,-4.8315,-4.8257,-4.8172,-4.8172,-4.8172,-4.8172,-4.8172,-4.8172,-4.8172,-4.8055,-4.7762,-4.7645,-4.7349,-4.684,-4.6661,-4.6601,-4.6481,-4.6301,-4.619,-4.6055,-4.5895,-4.55,-4.5196,-4.4491,-4.3706,-4.295,-4.2328,-4.1733,-4.1224,-4.0597,-3.9771,-3.9149,-3.8633,-3.8335,-3.8058,-3.7637,-3.7335,-3.7032,-3.6667,-4.6857,-4.6973,-4.6759,-4.6948,-4.7487,-4.7703,-4.7535,-4.6983,-4.7521,-4.8473,-4.9378,-4.9822,-5.0379,-5.1072,-5.0878,-5.0655,-5.0431,-5.0319,-5.0179,-5.0123,-5.0066,-5.001,-5.001,-5.001,-5.001,-5.001,-5.001,-5.001,-5.001,-5.001,-5.001,-5.001,-5.001,-5.015,-5.0263,-5.0375,-5.029,-5.0177,-5.0148,-5.0202,-5.0259,-5.0426,-5.0595,-5.0708,-5.0821,-5.1017,-5.1239,-5.11,-5.0768,-5.0323,-4.9856,-4.928,-4.8434,-4.8109,-4.8164,-4.8462,-4.9081,-4.9648,-4.97,-4.9727,-4.9727,-4.967,-4.967,-4.9469,-4.9354,-4.9297,-4.9442,-4.9469,-4.9469,-4.9469,-4.9354,-4.9183,-4.9068,-4.8895,-4.8721,-4.8606,-4.8489,-4.8431,-4.8373,-4.8315,-4.8257,-4.8172,-4.8172,-4.8172,-4.8172,-4.8172,-4.8114,-4.7997,-4.7703,-4.7257,-4.69,-4.684,-4.6601,-4.6421,-4.6301,-4.619,-4.6165,-4.6005,-4.5675,-4.532,-4.4674,-4.3937,-4.33,-4.2652,-4.1936,-4.1199,-4.0429,-3.9781,-3.9172,-3.8716,-3.8418,-3.7998,-3.7577,-3.7275,-3.6993,-4.7124,-4.7484,-4.7216,-4.7514,-4.8192,-4.8572,-4.8268,-4.7933,-4.8473,-4.9209,-5.006,-5.0423,-5.09,-5.1265,-5.1155,-5.0934,-5.0655,-5.0628,-5.046,-5.0263,-5.0206,-5.0123,-5.0066,-5.001,-5.001,-5.001,-5.001,-5.001,-5.0037,-5.001,-5.001,-5.001,-5.0093,-5.0346,-5.0513,-5.079,-5.0983,-5.0843,-5.0814,-5.0896,-5.1062,-5.1258,-5.1426,-5.1456,-5.1543,-5.1627,-5.1765,-5.1516,-5.1153,-5.09,-5.0571,-4.9993,-4.9362,-4.9253,-4.9064,-4.9281,-4.9771,-5.0097,-5.015,-5.0206,-5.0123,-5.001,-5.001,-4.9783,-4.967,-4.967,-4.9727,-4.9727,-4.9727,-4.9727,-4.964,-4.9526,-4.9412,-4.9297,-4.9068,-4.8895,-4.8779,-4.8663,-4.8548,-4.8431,-4.8315,-4.823,-4.8172,-4.8198,-4.8172,-4.8172,-4.8172,-4.8114,-4.7938,-4.7586,-4.7231,-4.7053,-4.678,-4.6481,-4.6421,-4.6301,-4.6215,-4.619,-4.608,-4.5725,-4.5345,-4.4897,-4.4339,-4.3421,-4.246,-4.1781,-4.114,-4.0383,-3.9794,-3.9291,-3.8812,-3.8395,-3.7998,-3.7698,-3.7335,-4.7336,-4.7886,-4.7674,-4.8056,-4.8409,-4.8845,-4.9142,-4.9302,-4.9598,-5.0116,-5.0803,-5.0997,-5.1201,-5.1485,-5.1486,-5.1266,-5.1045,-5.0962,-5.0822,-5.0571,-5.0487,-5.0431,-5.0235,-5.0123,-5.0235,-5.0123,-5.015,-5.0317,-5.0315,-5.0479,-5.0699,-5.0229,-5.0648,-5.1011,-5.1233,-5.1678,-5.2012,-5.2263,-5.2206,-5.2289,-5.248,-5.2731,-5.2901,-5.2906,-5.2686,-5.2491,-5.2463,-5.2264,-5.1843,-5.1509,-5.1148,-5.065,-5.0378,-5.0023,-4.9831,-4.9831,-5.0297,-5.0461,-5.0543,-5.0543,-5.0319,-5.0179,-5.0066,-5.001,-4.9953,-4.9953,-5.0037,-5.0066,-5.0123,-5.0179,-5.0123,-4.998,-4.981,-4.964,-4.9469,-4.924,-4.9125,-4.8952,-4.8779,-4.8658,-4.87,-4.8583,-4.8538,-4.859,-4.8695,-4.846,-4.8355,-4.8355,-4.814,-4.7847,-4.7586,-4.729,-4.6874,-4.6601,-4.6481,-4.6421,-4.6301,-4.624,-4.624,-4.6155,-4.5775,-4.5509,-4.5352,-4.4377,-4.3409,-4.258,-4.1888,-4.1188,-4.0444,-3.9659,-3.9226,-3.8812,-3.8477,-3.8178,-3.7758,-4.7871,-4.8543,-4.9419,-4.9829,-4.9994,-5.0519,-5.0766,-5.0876,-5.1148,-5.1087,-5.1054,-5.1499,-5.1781,-5.1704,-5.1924,-5.176,-5.1431,-5.1376,-5.11,-5.0906,-5.085,-5.0739,-5.0683,-5.0572,-5.0628,-5.0683,-5.0738,-5.093,-5.1287,-5.1672,-5.2031,-5.2031,-5.2147,-5.2121,-5.2319,-5.271,-5.3047,-5.3497,-5.3664,-5.3353,-5.3095,-5.3099,-5.313,-5.3272,-5.319,-5.3079,-5.2967,-5.2658,-5.2208,-5.1788,-5.1648,-5.1372,-5.1153,-5.0796,-5.063,-5.0602,-5.0685,-5.0795,-5.0822,-5.0822,-5.0655,-5.0515,-5.0346,-5.0206,-5.0206,-5.0319,-5.0402,-5.0459,-5.046,-5.0572,-5.0572,-5.0375,-5.0206,-5.0037,-4.981,-4.964,-4.9469,-4.924,-4.901,-4.9049,-4.9086,-4.9042,-4.8996,-4.9008,-4.9139,-4.9087,-4.8956,-4.8799,-4.8407,-4.816,-4.7932,-4.7611,-4.7078,-4.678,-4.6601,-4.6421,-4.6301,-4.6326,-4.624,-4.618,-4.612,-4.5949,-4.5633,-4.5182,-4.4426,-4.3613,-4.2842,-4.2088,-4.1318,-4.0388,-3.9661,-3.9367,-3.9072,-3.8775,-3.8298,-4.8058,-4.8978,-5.005,-5.0515,-5.0627,-5.1128,-5.1404,-5.1459,-5.1677,-5.159,-5.1391,-5.1889,-5.2113,-5.2004,-5.2275,-5.2304,-5.1978,-5.1978,-5.1706,-5.1458,-5.1266,-5.1045,-5.1017,-5.1017,-5.085,-5.0934,-5.1237,-5.1624,-5.2318,-5.2453,-5.2674,-5.2927,-5.2984,-5.3156,-5.3299,-5.358,-5.406,-5.454,-5.4821,-5.4564,-5.3939,-5.4083,-5.4169,-5.4284,-5.4061,-5.3866,-5.3613,-5.3304,-5.277,-5.2264,-5.1955,-5.1623,-5.1375,-5.1155,-5.11,-5.11,-5.1128,-5.1155,-5.1155,-5.11,-5.0989,-5.0822,-5.0872,-5.0812,-5.0892,-5.1033,-5.0869,-5.0898,-5.0738,-5.0795,-5.0795,-5.0628,-5.0487,-5.0319,-5.0206,-5.0037,-4.981,-4.9526,-4.9569,-4.9801,-4.9754,-4.9646,-4.9686,-4.9804,-4.9823,-4.9557,-4.9453,-4.9218,-4.8826,-4.8538,-4.8316,-4.7951,-4.7444,-4.6951,-4.6746,-4.6566,-4.6301,-4.6326,-4.6326,-4.624,-4.618,-4.612,-4.5889,-4.5523,-4.5132,-4.4691,-4.3853,-4.3055,-4.2193,-4.134,-4.0563,-3.9837,-3.9603,-3.9249,-3.8775,-4.8196,-4.9278,-5.0188,-5.0543,-5.0683,-5.1211,-5.1459,-5.1486,-5.1677,-5.1787,-5.1813,-5.2085,-5.225,-5.2329,-5.2544,-5.268,-5.2684,-5.2693,-5.242,-5.2061,-5.2065,-5.1844,-5.1541,-5.1238,-5.1432,-5.1822,-5.2268,-5.2769,-5.3384,-5.3607,-5.3718,-5.3351,-5.3381,-5.358,-5.3777,-5.4172,-5.4793,-5.5049,-5.5247,-5.55,-5.5526,-5.5554,-5.5383,-5.5215,-5.5018,-5.4709,-5.4428,-5.4063,-5.3445,-5.2883,-5.2293,-5.1874,-5.1624,-5.1486,-5.1486,-5.1431,-5.1431,-5.1431,-5.1431,-5.1431,-5.1322,-5.1266,-5.1371,-5.1503,-5.164,-5.161,-5.1473,-5.1395,-5.1236,-5.1238,-5.1321,-5.1238,-5.1098,-5.0902,-5.079,-5.0595,-5.0313,-4.9975,-5.0158,-5.0474,-5.0452,-5.0345,-5.0486,-5.0604,-5.0443,-5.0149,-4.9871,-4.961,-4.9348,-4.9139,-4.8923,-4.8484,-4.7973,-4.7513,-4.6976,-4.6566,-4.6326,-4.6326,-4.6326,-4.6326,-4.624,-4.618,-4.612,-4.5999,-4.5619,-4.5275,-4.4689,-4.3874,-4.303,-4.2204,-4.1399,-4.0622,-3.9896,-3.9544,-3.9167,-4.8936,-4.9884,-5.0547,-5.0962,-5.1211,-5.1596,-5.176,-5.1732,-5.1732,-5.1787,-5.195,-5.2329,-5.2437,-5.225,-5.2787,-5.3005,-5.307,-5.3217,-5.302,-5.2605,-5.2946,-5.2724,-5.2391,-5.2146,-5.2644,-5.3185,-5.3894,-5.4686,-5.4714,-5.5196,-5.5479,-5.5192,-5.5306,-5.5248,-5.5044,-5.5357,-5.5445,-5.5674,-5.5847,-5.6103,-5.6133,-5.593,-5.5582,-5.544,-5.5412,-5.5018,-5.4709,-5.4512,-5.4035,-5.3501,-5.2883,-5.2322,-5.193,-5.1735,-5.179,-5.1651,-5.1623,-5.1623,-5.1651,-5.1735,-5.1682,-5.1933,-5.1985,-5.2031,-5.2108,-5.2209,-5.2185,-5.2328,-5.2283,-5.2656,-5.2685,-5.2629,-5.2488,-5.2152,-5.1983,-5.1563,-5.117,-5.0837,-5.0667,-5.0926,-5.1094,-5.1201,-5.1496,-5.1527,-5.1416,-5.1154,-5.0725,-5.0437,-4.9871,-4.9688,-4.9557,-4.9038,-4.8547,-4.7862,-4.7274,-4.6686,-4.6386,-4.6326,-4.6361,-4.6421,-4.6421,-4.6301,-4.618,-4.612,-4.607,-4.581,-4.5161,-4.4541,-4.3786,-4.2978,-4.2262,-4.1457,-4.0622,-3.9942,-3.9636]},{"header":{"parameterUnit":"m.s-1","parameterCategory":1,"la1":31.0,"la2":29.5877,"lo1":-88.7671,"lo2":-86.6584,"dy":0.0162,"dx":0.0185,"nx":115,"ny":88,"refTime":"2024-03-07T06:00:00:Z","depth":0,"parameterNumber":3,"parameterNumberName":"V-component_of_WINDS"},"data":[0.0,0.0,0.0,0.0,0.0,0.0,0.0,0.0,0.0,0.0,0.0,0.0,0.0,0.0,0.0,0.0,0.0,0.0,0.0,0.0,0.0,0.0,0.0,0.0,0.0,0.0,0.0,0.0,0.0,0.0,0.0,0.0,0.0,0.0,0.0,0.0,0.0,0.0,0.0,0.0,0.0,0.0,0.0,0.0,0.0,0.0,0.0,0.0,0.0,0.0,0.0,0.0,0.0,0.0,0.0,0.0,0.0,0.0,0.0,0.0,0.0,0.0,0.0,0.0,0.0,0.0,0.0,0.0,0.0,0.0,0.0,0.0,0.0,0.0,0.0,0.0,0.0,0.0,0.0,0.0,0.0,0.0,0.0,0.0,0.0,0.0,0.0,0.0,0.0,0.0,0.0,0.0,0.0,0.0,0.0,0.0,0.0,0.0,0.0,0.0,0.0,0.0,0.0,0.0,0.0,0.0,0.0,0.0,0.0,0.0,0.0,0.0,0.0,0.0,0.0,0.0,0.0,0.0,0.0,0.0,0.0,0.0,0.0,0.0,0.0,0.0,0.0,0.0,0.0,0.0,0.0,0.0,0.0,0.0,0.0,0.0,0.0,0.0,0.0,0.0,0.0,0.0,0.0,0.0,0.0,0.0,0.0,0.0,0.0,0.0,0.0,0.0,0.0,0.0,0.0,0.0,0.0,0.0,0.0,0.0,0.0,0.0,0.0,0.0,0.0,0.0,0.0,0.0,0.0,0.0,0.0,0.0,0.0,0.0,0.0,0.0,0.0,0.0,0.0,0.0,0.0,0.0,0.0,0.0,0.0,0.0,0.0,0.0,0.0,0.0,0.0,0.0,0.0,0.0,0.0,0.0,0.0,0.0,0.0,0.0,0.0,0.0,0.0,0.0,0.0,0.0,0.0,0.0,0.0,0.0,0.0,0.0,0.0,0.0,0.0,0.0,0.0,0.0,0.0,0.0,0.0,0.0,0.0,0.0,0.0,0.0,0.0,0.0,0.0,0.0,0.0,0.0,0.0,0.0,0.0,0.0,0.0,0.0,0.0,0.0,0.0,0.0,0.0,0.0,0.0,0.0,0.0,0.0,0.0,0.0,0.0,0.0,0.0,0.0,0.0,0.0,0.0,0.0,0.0,0.0,0.0,0.0,0.0,0.0,0.0,0.0,0.0,0.0,0.0,0.0,0.0,0.0,0.0,0.0,0.0,0.0,0.0,0.0,0.0,0.0,0.0,0.0,0.0,0.0,0.0,0.0,0.0,0.0,0.0,0.0,0.0,0.0,0.0,0.0,0.0,0.0,0.0,0.0,0.0,0.0,0.0,0.0,0.0,0.0,0.0,0.0,0.0,0.0,0.0,0.0,0.0,0.0,0.0,0.0,0.0,0.0,0.0,0.0,0.0,0.0,0.0,0.0,0.0,0.0,0.0,0.0,0.0,0.0,0.0,0.0,0.0,0.0,0.0,0.0,0.0,0.0,0.0,0.0,0.0,0.0,0.0,0.0,0.0,0.0,0.0,0.0,0.0,0.0,0.0,0.0,0.0,0.0,0.0,0.0,0.0,0.0,0.0,0.0,0.0,0.0,0.0,0.0,0.0,0.0,0.0,0.0,0.0,0.0,0.0,0.0,0.0,0.0,0.0,0.0,0.0,0.0,0.0,0.0,0.0,0.0,0.0,0.0,0.0,0.0,0.0,0.0,0.0,0.0,0.0,0.0,0.0,0.0,0.0,0.0,0.0,0.0,0.0,0.0,0.0,0.0,0.0,0.0,0.0,0.0,0.0,0.0,0.0,0.0,0.0,0.0,0.0,0.0,0.0,0.0,0.0,0.0,0.0,0.0,0.0,0.0,0.0,0.0,0.0,0.0,0.0,0.0,0.0,0.0,0.0,0.0,0.0,0.0,0.0,0.0,0.0,0.0,0.0,0.0,0.0,0.0,0.0,0.0,0.0,0.0,0.0,0.0,0.0,0.0,0.0,0.0,0.0,0.0,0.0,0.0,0.0,0.0,0.0,0.0,0.0,0.0,0.0,0.0,0.0,0.0,0.0,0.0,0.0,0.0,0.0,0.0,0.0,0.0,0.0,0.0,0.0,0.0,0.0,0.0,0.0,0.0,0.0,0.0,0.0,0.0,0.0,0.0,0.0,0.0,0.0,0.0,0.0,0.0,0.0,0.0,0.0,0.0,0.0,0.0,0.0,0.0,0.0,0.0,0.0,0.0,0.0,0.0,0.0,0.0,0.0,0.0,0.0,0.0,0.0,0.0,0.0,0.0,0.0,0.0,0.0,0.0,0.0,0.0,0.0,0.0,0.0,0.0,0.0,0.0,0.0,0.0,0.0,0.0,0.0,0.0,0.0,0.0,0.0,0.0,0.0,0.0,0.0,0.0,0.0,0.0,0.0,0.0,0.0,0.0,0.0,0.0,0.0,0.0,0.0,0.0,0.0,0.0,0.0,0.0,0.0,0.0,0.0,0.0,0.0,0.0,0.0,0.0,0.0,0.0,0.0,0.0,0.0,0.0,0.0,0.0,0.0,0.0,0.0,0.0,0.0,0.0,0.0,0.0,0.0,0.0,0.0,0.0,0.0,0.0,0.0,0.0,0.0,0.0,0.0,0.0,0.0,0.0,0.0,0.0,0.0,0.0,0.0,0.0,0.0,0.0,0.0,0.0,0.0,0.0,0.0,0.0,0.0,0.0,0.0,0.0,0.0,0.0,0.0,0.0,0.0,0.0,0.0,0.0,0.0,0.0,0.0,0.0,0.0,0.0,0.0,0.0,0.0,0.0,0.0,0.0,0.0,0.0,0.0,0.0,0.0,0.0,0.0,0.0,0.0,0.0,0.0,0.0,0.0,0.0,0.0,0.0,0.0,0.0,0.0,0.0,0.0,0.0,0.0,0.0,0.0,0.0,0.0,0.0,0.0,0.0,0.0,0.0,0.0,0.0,0.0,0.0,0.0,0.0,0.0,0.0,0.0,0.0,0.0,0.0,0.0,0.0,0.0,0.0,0.0,0.0,0.0,0.0,0.0,0.0,0.0,0.0,0.0,0.0,0.0,0.0,0.0,0.0,0.0,0.0,0.0,0.0,0.0,0.0,0.0,0.0,0.0,0.0,0.0,0.0,0.0,0.0,0.0,0.0,0.0,0.0,0.0,0.0,0.0,0.0,0.0,0.0,0.0,0.0,0.0,0.0,0.0,0.0,0.0,0.0,0.0,0.0,0.0,0.0,0.0,0.0,0.0,0.0,0.0,0.0,0.0,0.0,0.0,0.0,0.0,0.0,0.0,0.0,0.0,0.0,0.0,0.0,0.0,0.0,0.0,0.0,0.0,0.0,0.0,0.0,0.0,0.0,0.0,0.0,0.0,0.0,0.0,0.0,0.0,0.0,0.0,0.0,0.0,0.0,0.0,0.0,0.0,0.0,0.0,0.0,0.0,0.0,0.0,0.0,0.0,0.0,0.0,0.0,0.0,0.0,0.0,0.0,0.0,0.0,0.0,0.0,0.0,0.0,0.0,0.0,0.0,0.0,0.0,0.0,0.0,0.0,0.0,0.0,0.0,0.0,0.0,0.0,0.0,0.0,0.0,0.0,0.0,0.0,0.0,0.0,0.0,0.0,0.0,0.0,0.0,0.0,0.0,0.0,0.0,0.0,0.0,0.0,0.0,0.0,0.0,0.0,0.0,0.0,0.0,0.0,0.0,0.0,0.0,0.0,0.0,0.0,0.0,0.0,0.0,0.0,0.0,0.0,0.0,0.0,0.0,0.0,0.0,0.0,0.0,0.0,0.0,0.0,0.0,0.0,0.0,0.0,0.0,0.0,0.0,0.0,0.0,0.0,0.0,0.0,0.0,0.0,0.0,0.0,0.0,0.0,0.0,0.0,0.0,0.0,0.0,0.0,0.0,0.0,0.0,0.0,0.0,0.0,0.0,0.0,0.0,0.0,0.0,0.0,0.0,0.0,0.0,0.0,0.0,0.0,0.0,0.0,0.0,0.0,0.0,0.0,0.0,0.0,0.0,0.0,0.0,0.0,0.0,0.0,0.0,0.0,0.0,0.0,0.0,0.0,0.0,0.0,0.0,0.0,0.0,0.0,0.0,0.0,0.0,0.0,0.0,0.0,0.0,0.0,0.0,0.0,0.0,0.0,0.0,0.0,0.0,0.0,0.0,0.0,0.0,0.0,0.0,0.0,0.0,0.0,0.0,0.0,0.0,0.0,0.0,0.0,0.0,0.0,0.0,0.0,0.0,0.0,0.0,0.0,2.3996,0.0,0.0,0.0,0.0,0.0,0.0,0.0,0.0,0.0,0.0,0.0,0.0,0.0,0.0,0.0,0.0,0.0,0.0,0.0,0.0,0.0,0.0,0.0,0.0,0.0,0.0,0.0,0.0,0.0,0.0,0.0,0.0,0.0,0.0,0.0,0.0,0.0,0.0,0.0,0.0,0.0,0.0,0.0,0.0,0.0,0.0,0.0,0.0,0.0,0.0,0.0,0.0,0.0,0.0,0.0,0.0,0.0,0.0,0.0,0.0,0.0,0.0,0.0,0.0,0.0,0.0,0.0,0.0,0.0,0.0,0.0,0.0,0.0,0.0,0.0,0.0,0.0,0.0,0.0,0.0,0.0,0.0,0.0,0.0,0.0,0.0,0.0,0.0,0.0,0.0,0.0,0.0,0.0,0.0,0.0,0.0,0.0,0.0,0.0,0.0,0.0,0.0,0.0,0.0,0.0,0.0,0.0,0.0,0.0,0.0,2.4257,2.4182,2.4066,2.3986,2.3955,0.0,0.0,0.0,0.0,0.0,0.0,0.0,0.0,0.0,0.0,0.0,0.0,0.0,0.0,0.0,0.0,0.0,0.0,0.0,0.0,0.0,0.0,0.0,0.0,0.0,0.0,0.0,0.0,0.0,0.0,0.0,0.0,0.0,0.0,0.0,0.0,0.0,0.0,0.0,0.0,0.0,0.0,0.0,0.0,0.0,0.0,0.0,0.0,0.0,0.0,0.0,0.0,0.0,0.0,0.0,0.0,0.0,0.0,0.0,0.0,0.0,0.0,0.0,0.0,0.0,0.0,0.0,0.0,0.0,0.0,0.0,0.0,0.0,0.0,0.0,0.0,0.0,0.0,0.0,0.0,0.0,0.0,0.0,0.0,0.0,0.0,0.0,0.0,0.0,0.0,0.0,0.0,0.0,0.0,0.0,0.0,0.0,0.0,0.0,0.0,0.0,0.0,0.0,0.0,0.0,0.0,0.0,0.0,0.0,0.0,0.0,0.0,2.4046,2.3966,2.3868,0.0,0.0,0.0,0.0,0.0,0.0,0.0,0.0,0.0,0.0,0.0,0.0,0.0,0.0,0.0,0.0,0.0,0.0,0.0,0.0,0.0,0.0,0.0,0.0,0.0,0.0,0.0,0.0,0.0,0.0,0.0,0.0,0.0,0.0,0.0,0.0,0.0,0.0,0.0,0.0,0.0,0.0,0.0,0.0,0.0,0.0,0.0,0.0,0.0,0.0,0.0,0.0,0.0,0.0,0.0,0.0,0.0,0.0,0.0,0.0,0.0,0.0,0.0,0.0,0.0,0.0,0.0,0.0,0.0,0.0,0.0,0.0,0.0,0.0,0.0,0.0,0.0,0.0,0.0,0.0,0.0,0.0,0.0,0.0,0.0,0.0,0.0,0.0,0.0,0.0,0.0,0.0,0.0,0.0,0.0,0.0,0.0,0.0,0.0,0.0,0.0,0.0,0.0,0.0,0.0,0.0,0.0,0.0,0.0,0.0,2.4182,2.4122,2.4036,0.0,2.3816,0.0,0.0,0.0,0.0,0.0,0.0,0.0,0.0,0.0,0.0,0.0,0.0,0.0,0.0,0.0,0.0,0.0,0.0,0.0,0.0,0.0,0.0,0.0,0.0,0.0,0.0,0.0,0.0,0.0,0.0,0.0,0.0,0.0,0.0,0.0,0.0,0.0,0.0,0.0,0.0,0.0,0.0,0.0,0.0,0.0,0.0,0.0,0.0,0.0,0.0,0.0,0.0,0.0,0.0,0.0,0.0,0.0,0.0,0.0,0.0,0.0,0.0,0.0,0.0,0.0,0.0,0.0,0.0,0.0,0.0,0.0,0.0,0.0,0.0,0.0,0.0,0.0,0.0,0.0,0.0,0.0,0.0,0.0,0.0,0.0,0.0,0.0,0.0,0.0,0.0,0.0,0.0,0.0,0.0,0.0,0.0,0.0,0.0,0.0,0.0,0.0,0.0,0.0,0.0,0.0,0.0,0.0,0.0,0.0,0.0,2.4371,2.4715,2.4616,2.4573,0.0,0.0,0.0,0.0,0.0,0.0,0.0,0.0,0.0,0.0,0.0,0.0,0.0,0.0,0.0,0.0,0.0,0.0,0.0,0.0,0.0,0.0,0.0,0.0,0.0,0.0,0.0,0.0,0.0,0.0,0.0,0.0,0.0,0.0,0.0,0.0,0.0,0.0,0.0,0.0,0.0,0.0,0.0,0.0,0.0,0.0,0.0,0.0,0.0,0.0,0.0,0.0,0.0,0.0,0.0,0.0,0.0,0.0,0.0,0.0,0.0,0.0,0.0,0.0,0.0,0.0,0.0,0.0,0.0,0.0,0.0,0.0,0.0,0.0,0.0,0.0,0.0,0.0,0.0,0.0,0.0,0.0,0.0,0.0,0.0,0.0,0.0,0.0,0.0,0.0,0.0,0.0,0.0,0.0,0.0,0.0,0.0,0.0,0.0,0.0,0.0,0.0,0.0,0.0,0.0,0.0,0.0,0.0,0.0,0.0,2.4471,2.4777,2.5368,2.5386,2.5353,2.5316,0.0,0.0,0.0,0.0,0.0,0.0,0.0,0.0,0.0,0.0,0.0,0.0,0.0,0.0,0.0,0.0,0.0,0.0,0.0,0.0,0.0,0.0,0.0,0.0,0.0,0.0,0.0,0.0,0.0,0.0,0.0,0.0,0.0,0.0,0.0,0.0,0.0,0.0,0.0,0.0,0.0,0.0,0.0,0.0,0.0,0.0,0.0,0.0,0.0,0.0,0.0,0.0,0.0,0.0,0.0,0.0,0.0,0.0,0.0,0.0,0.0,0.0,0.0,0.0,0.0,0.0,0.0,0.0,0.0,0.0,0.0,0.0,0.0,0.0,0.0,0.0,0.0,0.0,0.0,0.0,0.0,0.0,0.0,0.0,0.0,0.0,0.0,0.0,0.0,0.0,0.0,0.0,0.0,0.0,0.0,0.0,0.0,0.0,0.0,0.0,0.0,0.0,0.0,0.0,0.0,0.0,0.0,0.0,2.5126,2.5152,2.5495,2.6218,2.6172,2.6138,0.0,0.0,0.0,0.0,0.0,0.0,0.0,0.0,0.0,0.0,0.0,0.0,0.0,0.0,0.0,0.0,0.0,0.0,0.0,0.0,0.0,0.0,0.0,0.0,0.0,0.0,0.0,0.0,0.0,0.0,0.0,0.0,0.0,0.0,0.0,0.0,0.0,0.0,0.0,0.0,0.0,0.0,0.0,0.0,0.0,0.0,0.0,0.0,0.0,0.0,0.0,0.0,0.0,0.0,0.0,0.0,0.0,0.0,0.0,0.0,0.0,0.0,0.0,0.0,0.0,0.0,0.0,0.0,0.0,0.0,0.0,0.0,0.0,0.0,0.0,0.0,0.0,0.0,0.0,0.0,0.0,0.0,0.0,0.0,0.0,0.0,0.0,0.0,0.0,0.0,0.0,0.0,0.0,0.0,0.0,0.0,0.0,0.0,0.0,0.0,0.0,0.0,0.0,0.0,0.0,0.0,0.0,0.0,0.0,2.5764,2.6236,2.661,2.6838,2.685,2.6862,0.0,0.0,0.0,0.0,0.0,0.0,0.0,0.0,0.0,0.0,0.0,0.0,0.0,0.0,0.0,0.0,0.0,0.0,0.0,0.0,0.0,0.0,0.0,0.0,0.0,0.0,0.0,0.0,0.0,0.0,0.0,0.0,0.0,0.0,0.0,0.0,0.0,0.0,0.0,0.0,0.0,0.0,0.0,0.0,0.0,0.0,0.0,0.0,0.0,0.0,0.0,0.0,0.0,0.0,0.0,0.0,0.0,0.0,0.0,0.0,0.0,0.0,0.0,0.0,0.0,0.0,0.0,0.0,0.0,0.0,0.0,0.0,0.0,0.0,0.0,0.0,0.0,0.0,0.0,0.0,0.0,0.0,0.0,0.0,0.0,0.0,0.0,0.0,0.0,0.0,0.0,0.0,0.0,0.0,0.0,0.0,0.0,0.0,0.0,0.0,0.0,0.0,0.0,0.0,0.0,0.0,0.0,0.0,0.0,2.6715,0.0,2.8264,2.8264,2.8291,2.82,0.0,0.0,0.0,0.0,0.0,0.0,0.0,0.0,0.0,0.0,0.0,0.0,0.0,0.0,0.0,0.0,0.0,0.0,0.0,0.0,0.0,0.0,0.0,0.0,0.0,0.0,0.0,0.0,0.0,0.0,0.0,0.0,0.0,0.0,0.0,0.0,0.0,0.0,0.0,0.0,0.0,0.0,0.0,0.0,0.0,0.0,0.0,0.0,0.0,0.0,0.0,0.0,0.0,0.0,0.0,0.0,0.0,0.0,0.0,0.0,0.0,0.0,0.0,0.0,0.0,0.0,0.0,0.0,0.0,0.0,0.0,0.0,0.0,0.0,0.0,0.0,0.0,0.0,0.0,0.0,0.0,0.0,0.0,0.0,0.0,0.0,0.0,0.0,0.0,0.0,0.0,0.0,0.0,0.0,0.0,0.0,0.0,0.0,0.0,0.0,0.0,0.0,0.0,0.0,0.0,0.0,0.0,0.0,2.6718,2.8115,2.9682,3.0451,3.0502,3.049,3.027,0.0,0.0,0.0,0.0,0.0,0.0,0.0,0.0,0.0,0.0,0.0,0.0,0.0,0.0,0.0,0.0,0.0,0.0,0.0,0.0,0.0,0.0,0.0,0.0,0.0,0.0,0.0,0.0,0.0,0.0,0.0,0.0,0.0,0.0,0.0,0.0,0.0,0.0,0.0,0.0,0.0,0.0,0.0,0.0,0.0,0.0,0.0,0.0,0.0,0.0,0.0,0.0,0.0,0.0,0.0,0.0,0.0,0.0,0.0,0.0,0.0,0.0,0.0,0.0,0.0,0.0,0.0,0.0,0.0,0.0,0.0,0.0,0.0,0.0,0.0,0.0,0.0,0.0,0.0,0.0,0.0,0.0,0.0,0.0,0.0,0.0,0.0,0.0,0.0,0.0,0.0,0.0,0.0,0.0,0.0,0.0,0.0,0.0,0.0,0.0,0.0,0.0,0.0,0.0,0.0,0.0,0.0,0.0,0.0,3.0124,3.1173,3.17,3.1616,3.1254,3.106,0.0,0.0,0.0,0.0,0.0,0.0,0.0,0.0,0.0,0.0,0.0,0.0,0.0,0.0,0.0,0.0,0.0,0.0,0.0,0.0,0.0,0.0,0.0,0.0,0.0,0.0,0.0,0.0,0.0,0.0,0.0,0.0,0.0,0.0,0.0,0.0,0.0,0.0,0.0,0.0,0.0,0.0,0.0,0.0,0.0,0.0,0.0,0.0,0.0,0.0,0.0,0.0,0.0,0.0,0.0,0.0,0.0,0.0,0.0,0.0,0.0,0.0,0.0,0.0,0.0,0.0,0.0,0.0,0.0,0.0,0.0,0.0,0.0,0.0,0.0,0.0,0.0,0.0,0.0,0.0,0.0,0.0,0.0,0.0,0.0,0.0,0.0,0.0,0.0,0.0,0.0,0.0,0.0,0.0,0.0,0.0,0.0,0.0,0.0,0.0,0.0,0.0,0.0,0.0,0.0,0.0,0.0,0.0,0.0,3.3377,3.3509,3.359,3.3552,3.3066,3.2651,3.2256,0.0,0.0,0.0,0.0,0.0,0.0,0.0,0.0,0.0,0.0,0.0,0.0,0.0,0.0,0.0,0.0,0.0,0.0,0.0,0.0,0.0,0.0,0.0,0.0,0.0,0.0,0.0,0.0,0.0,0.0,0.0,0.0,0.0,0.0,0.0,0.0,0.0,0.0,0.0,0.0,0.0,0.0,0.0,0.0,0.0,0.0,0.0,0.0,0.0,0.0,0.0,0.0,0.0,0.0,0.0,0.0,0.0,0.0,0.0,0.0,0.0,0.0,0.0,0.0,0.0,0.0,0.0,0.0,0.0,0.0,0.0,0.0,0.0,0.0,0.0,0.0,0.0,0.0,0.0,0.0,0.0,0.0,0.0,0.0,0.0,0.0,0.0,0.0,0.0,0.0,0.0,0.0,0.0,0.0,0.0,0.0,0.0,0.0,0.0,0.0,0.0,0.0,0.0,0.0,0.0,0.0,0.0,0.0,3.7486,3.6656,3.623,3.6202,3.5787,3.4979,0.0,0.0,0.0,0.0,0.0,0.0,0.0,0.0,0.0,0.0,0.0,0.0,0.0,0.0,0.0,0.0,0.0,0.0,0.0,0.0,0.0,0.0,0.0,0.0,0.0,0.0,0.0,0.0,0.0,0.0,0.0,0.0,0.0,0.0,0.0,0.0,0.0,0.0,0.0,0.0,0.0,0.0,0.0,0.0,0.0,0.0,0.0,0.0,0.0,0.0,0.0,0.0,0.0,0.0,0.0,0.0,0.0,0.0,0.0,0.0,0.0,0.0,0.0,0.0,0.0,0.0,0.0,0.0,0.0,0.0,0.0,0.0,0.0,0.0,0.0,0.0,0.0,0.0,0.0,0.0,0.0,0.0,0.0,0.0,0.0,0.0,0.0,0.0,0.0,0.0,0.0,0.0,0.0,0.0,0.0,0.0,0.0,0.0,0.0,0.0,0.0,0.0,0.0,0.0,0.0,0.0,0.0,0.0,0.0,4.0304,4.0861,4.0419,3.8873,3.7968,3.7258,0.0,0.0,0.0,0.0,0.0,0.0,0.0,0.0,0.0,0.0,0.0,0.0,0.0,0.0,0.0,0.0,0.0,0.0,0.0,0.0,0.0,0.0,0.0,0.0,0.0,0.0,0.0,0.0,0.0,0.0,0.0,0.0,0.0,0.0,0.0,0.0,0.0,0.0,0.0,0.0,0.0,0.0,0.0,0.0,0.0,0.0,0.0,0.0,0.0,0.0,0.0,0.0,0.0,0.0,0.0,0.0,0.0,0.0,0.0,0.0,0.0,0.0,0.0,0.0,0.0,0.0,0.0,0.0,0.0,0.0,0.0,0.0,0.0,0.0,0.0,0.0,0.0,0.0,0.0,0.0,0.0,0.0,0.0,0.0,0.0,0.0,0.0,0.0,0.0,0.0,0.0,0.0,0.0,0.0,0.0,0.0,0.0,0.0,0.0,0.0,0.0,0.0,0.0,0.0,0.0,0.0,0.0,0.0,4.1044,4.2565,4.3537,4.3558,4.267,4.056,3.8995,0.0,0.0,0.0,0.0,0.0,0.0,0.0,0.0,0.0,0.0,0.0,0.0,0.0,0.0,0.0,0.0,0.0,0.0,0.0,0.0,0.0,0.0,0.0,0.0,0.0,0.0,0.0,0.0,0.0,0.0,0.0,0.0,0.0,0.0,0.0,0.0,0.0,0.0,0.0,0.0,0.0,0.0,0.0,0.0,0.0,0.0,0.0,0.0,0.0,0.0,0.0,0.0,0.0,0.0,0.0,0.0,0.0,0.0,0.0,0.0,0.0,0.0,0.0,0.0,0.0,0.0,0.0,0.0,0.0,0.0,0.0,0.0,0.0,0.0,0.0,0.0,0.0,0.0,0.0,0.0,0.0,0.0,0.0,0.0,0.0,0.0,0.0,0.0,0.0,0.0,0.0,0.0,0.0,0.0,0.0,0.0,0.0,0.0,0.0,0.0,0.0,0.0,0.0,0.0,0.0,0.0,0.0,0.0,4.2697,4.4491,4.5309,4.5996,4.6552,4.318,4.057,0.0,0.0,0.0,0.0,0.0,0.0,0.0,0.0,0.0,0.0,0.0,0.0,0.0,0.0,0.0,0.0,0.0,0.0,0.0,0.0,0.0,0.0,0.0,0.0,0.0,0.0,0.0,0.0,0.0,0.0,0.0,0.0,0.0,0.0,0.0,0.0,0.0,0.0,0.0,0.0,0.0,0.0,0.0,0.0,0.0,0.0,0.0,0.0,0.0,0.0,0.0,0.0,0.0,0.0,0.0,0.0,0.0,0.0,0.0,0.0,0.0,0.0,0.0,0.0,0.0,0.0,0.0,0.0,0.0,0.0,0.0,0.0,0.0,0.0,0.0,0.0,0.0,0.0,0.0,0.0,0.0,0.0,0.0,0.0,0.0,0.0,0.0,0.0,0.0,0.0,0.0,0.0,0.0,0.0,0.0,0.0,0.0,0.0,0.0,0.0,0.0,0.0,0.0,0.0,0.0,0.0,0.0,0.0,4.5272,4.6549,4.7615,4.7914,4.7241,4.483,4.3024,0.0,0.0,0.0,0.0,0.0,0.0,0.0,0.0,0.0,0.0,0.0,0.0,0.0,0.0,0.0,0.0,0.0,0.0,0.0,0.0,0.0,0.0,0.0,0.0,0.0,0.0,0.0,0.0,0.0,0.0,0.0,0.0,0.0,0.0,0.0,0.0,0.0,0.0,0.0,0.0,0.0,0.0,0.0,0.0,0.0,0.0,0.0,0.0,2.7555,0.0,0.0,0.0,0.0,0.0,0.0,0.0,0.0,0.0,0.0,0.0,0.0,0.0,0.0,0.0,0.0,0.0,0.0,0.0,0.0,0.0,0.0,0.0,0.0,0.0,0.0,0.0,0.0,0.0,0.0,0.0,0.0,0.0,0.0,0.0,0.0,0.0,0.0,0.0,0.0,0.0,0.0,0.0,0.0,0.0,0.0,0.0,0.0,0.0,0.0,0.0,0.0,0.0,0.0,0.0,0.0,0.0,0.0,0.0,4.6127,4.7621,4.855,4.8816,4.8386,4.657,4.4715,0.0,0.0,0.0,0.0,0.0,0.0,0.0,0.0,0.0,0.0,0.0,0.0,0.0,0.0,0.0,0.0,0.0,0.0,0.0,0.0,0.0,0.0,0.0,0.0,0.0,0.0,0.0,0.0,0.0,0.0,0.0,0.0,0.0,0.0,0.0,0.0,0.0,0.0,0.0,0.0,0.0,0.0,0.0,0.0,0.0,0.0,0.0,0.0,0.0,0.0,0.0,0.0,0.0,0.0,0.0,0.0,0.0,0.0,0.0,0.0,0.0,0.0,0.0,0.0,0.0,0.0,0.0,0.0,0.0,0.0,0.0,0.0,0.0,0.0,0.0,0.0,0.0,0.0,0.0,0.0,0.0,0.0,0.0,0.0,0.0,0.0,0.0,0.0,0.0,0.0,0.0,0.0,0.0,0.0,0.0,0.0,0.0,0.0,0.0,0.0,0.0,0.0,0.0,0.0,0.0,0.0,0.0,4.4384,4.6517,4.8269,4.8969,4.9401,4.9597,4.8166,4.5954,4.3053,0.0,0.0,0.0,0.0,0.0,0.0,0.0,0.0,0.0,0.0,0.0,0.0,0.0,0.0,0.0,0.0,0.0,0.0,0.0,0.0,0.0,0.0,0.0,0.0,0.0,0.0,0.0,0.0,0.0,0.0,0.0,0.0,0.0,0.0,0.0,0.0,0.0,0.0,2.9125,3.1314,0.0,0.0,0.0,0.0,0.0,0.0,0.0,0.0,3.0053,0.0,0.0,0.0,0.0,0.0,0.0,0.0,0.0,0.0,0.0,0.0,0.0,0.0,0.0,0.0,0.0,0.0,0.0,0.0,0.0,0.0,0.0,0.0,0.0,0.0,0.0,0.0,0.0,0.0,0.0,0.0,0.0,0.0,0.0,0.0,0.0,0.0,0.0,0.0,0.0,0.0,0.0,0.0,0.0,0.0,0.0,0.0,0.0,0.0,0.0,0.0,0.0,0.0,0.0,0.0,0.0,4.3023,4.6094,4.8072,4.8871,5.0131,5.0444,4.963,4.8663,4.6962,4.4518,0.0,0.0,0.0,0.0,0.0,0.0,0.0,0.0,0.0,0.0,0.0,0.0,0.0,0.0,0.0,0.0,0.0,0.0,0.0,0.0,0.0,0.0,0.0,0.0,0.0,0.0,0.0,0.0,0.0,0.0,0.0,0.0,0.0,0.0,0.0,0.0,0.0,0.0,0.0,3.2794,3.3769,0.0,0.0,0.0,0.0,0.0,0.0,0.0,0.0,3.2019,0.0,0.0,0.0,0.0,0.0,0.0,0.0,0.0,0.0,0.0,0.0,0.0,0.0,0.0,0.0,0.0,0.0,0.0,0.0,0.0,0.0,0.0,0.0,0.0,0.0,0.0,0.0,0.0,0.0,0.0,0.0,0.0,0.0,0.0,0.0,0.0,0.0,0.0,0.0,0.0,0.0,0.0,0.0,0.0,0.0,0.0,0.0,0.0,0.0,0.0,0.0,0.0,0.0,0.0,0.0,4.4414,4.6943,4.8621,4.958,5.0649,5.0672,4.963,4.8763,4.7228,0.0,0.0,0.0,0.0,0.0,0.0,0.0,0.0,0.0,0.0,0.0,0.0,0.0,0.0,0.0,0.0,0.0,0.0,0.0,0.0,0.0,0.0,0.0,0.0,0.0,0.0,0.0,0.0,0.0,0.0,0.0,0.0,0.0,0.0,0.0,0.0,0.0,0.0,0.0,0.0,3.5103,3.6333,3.6759,0.0,0.0,0.0,0.0,0.0,0.0,3.503,3.4264,0.0,0.0,0.0,0.0,0.0,0.0,0.0,0.0,0.0,0.0,0.0,0.0,0.0,0.0,0.0,0.0,0.0,0.0,0.0,0.0,0.0,0.0,0.0,0.0,0.0,0.0,0.0,0.0,0.0,0.0,0.0,0.0,0.0,0.0,0.0,0.0,0.0,0.0,0.0,0.0,0.0,0.0,0.0,0.0,0.0,0.0,0.0,0.0,0.0,0.0,0.0,0.0,0.0,0.0,0.0,4.5339,4.7331,4.891,5.0029,5.0811,5.0704,4.963,4.873,4.7167,0.0,0.0,0.0,0.0,0.0,0.0,0.0,0.0,0.0,0.0,0.0,0.0,0.0,0.0,0.0,0.0,0.0,0.0,0.0,0.0,0.0,0.0,0.0,0.0,0.0,0.0,0.0,0.0,0.0,0.0,0.0,0.0,0.0,0.0,0.0,0.0,0.0,0.0,0.0,0.0,0.0,3.8858,3.9385,4.0,0.0,0.0,0.0,0.0,3.845,3.7558,0.0,0.0,0.0,0.0,0.0,0.0,0.0,0.0,0.0,0.0,0.0,0.0,0.0,0.0,0.0,0.0,0.0,0.0,0.0,0.0,0.0,0.0,0.0,0.0,0.0,0.0,0.0,0.0,0.0,0.0,0.0,0.0,0.0,0.0,0.0,0.0,0.0,0.0,0.0,0.0,0.0,0.0,0.0,0.0,0.0,0.0,0.0,0.0,0.0,0.0,0.0,0.0,0.0,0.0,0.0,0.0,4.482,4.7508,4.9216,4.9844,5.0736,5.0672,4.9594,4.863,4.7074,0.0,0.0,0.0,0.0,0.0,0.0,0.0,0.0,0.0,0.0,0.0,0.0,0.0,0.0,0.0,0.0,0.0,0.0,0.0,0.0,0.0,0.0,0.0,0.0,0.0,0.0,0.0,0.0,0.0,0.0,0.0,0.0,0.0,0.0,0.0,0.0,0.0,0.0,0.0,0.0,0.0,4.0088,4.2248,4.2677,4.3082,0.0,0.0,4.1682,4.1643,4.0428,0.0,0.0,0.0,0.0,0.0,0.0,0.0,0.0,0.0,0.0,0.0,0.0,0.0,0.0,0.0,0.0,0.0,0.0,0.0,0.0,0.0,0.0,0.0,0.0,0.0,0.0,0.0,0.0,0.0,0.0,0.0,0.0,0.0,0.0,0.0,0.0,0.0,0.0,0.0,0.0,0.0,0.0,0.0,0.0,0.0,0.0,0.0,0.0,0.0,0.0,0.0,0.0,0.0,0.0,0.0,4.3774,4.5887,4.8131,4.9861,5.096,5.1391,5.1334,5.0805,4.9456,4.7881,0.0,0.0,0.0,0.0,0.0,0.0,0.0,0.0,0.0,0.0,0.0,0.0,0.0,0.0,0.0,0.0,0.0,0.0,0.0,0.0,0.0,0.0,0.0,0.0,0.0,0.0,0.0,0.0,0.0,0.0,0.0,0.0,0.0,0.0,0.0,0.0,0.0,0.0,0.0,0.0,0.0,0.0,4.3534,4.4543,0.0,0.0,0.0,4.4051,4.4161,0.0,0.0,0.0,0.0,0.0,0.0,0.0,0.0,0.0,0.0,0.0,0.0,0.0,0.0,0.0,0.0,0.0,0.0,0.0,0.0,0.0,0.0,0.0,0.0,0.0,0.0,0.0,0.0,0.0,0.0,0.0,0.0,0.0,0.0,0.0,0.0,0.0,0.0,0.0,0.0,0.0,0.0,0.0,0.0,0.0,0.0,0.0,0.0,0.0,0.0,0.0,0.0,0.0,0.0,0.0,0.0,0.0,4.6945,4.878,5.0403,5.1706,5.1848,5.1803,5.1582,5.0015,0.0,0.0,0.0,0.0,0.0,0.0,0.0,0.0,0.0,0.0,0.0,0.0,0.0,0.0,0.0,0.0,0.0,0.0,0.0,0.0,0.0,0.0,0.0,0.0,0.0,0.0,0.0,2.6347,0.0,0.0,0.0,0.0,0.0,0.0,0.0,0.0,0.0,0.0,0.0,0.0,0.0,0.0,4.3906,4.5196,4.6525,4.7529,0.0,0.0,4.6626,4.6608,4.5377,4.4161,0.0,0.0,0.0,0.0,0.0,0.0,0.0,0.0,0.0,0.0,0.0,0.0,0.0,0.0,0.0,0.0,0.0,0.0,0.0,0.0,0.0,0.0,0.0,0.0,0.0,0.0,0.0,0.0,0.0,0.0,0.0,0.0,0.0,0.0,0.0,0.0,0.0,0.0,0.0,0.0,0.0,0.0,0.0,0.0,0.0,0.0,0.0,0.0,0.0,0.0,0.0,0.0,0.0,0.0,0.0,4.7397,4.9373,5.0728,5.1304,5.1731,5.1765,5.1397,4.9842,4.8326,0.0,0.0,0.0,0.0,0.0,0.0,0.0,0.0,0.0,0.0,0.0,0.0,0.0,0.0,0.0,0.0,0.0,0.0,0.0,0.0,0.0,0.0,0.0,0.0,0.0,0.0,0.0,0.0,0.0,0.0,0.0,0.0,0.0,0.0,0.0,0.0,0.0,0.0,0.0,0.0,0.0,4.5688,4.7996,4.903,4.9899,0.0,0.0,4.9611,4.9052,4.8353,4.7335,4.5735,0.0,0.0,0.0,0.0,0.0,0.0,0.0,0.0,0.0,0.0,0.0,0.0,0.0,0.0,0.0,0.0,0.0,0.0,0.0,0.0,0.0,0.0,0.0,0.0,0.0,0.0,0.0,0.0,0.0,0.0,0.0,0.0,0.0,0.0,0.0,0.0,0.0,0.0,0.0,0.0,0.0,0.0,0.0,0.0,0.0,0.0,0.0,0.0,0.0,0.0,0.0,0.0,0.0,4.5449,4.7019,4.9533,5.108,5.1706,5.2101,5.2402,5.2572,5.0585,4.9194,0.0,0.0,0.0,0.0,0.0,0.0,0.0,0.0,0.0,0.0,0.0,0.0,0.0,0.0,0.0,0.0,0.0,0.0,0.0,0.0,0.0,0.0,0.0,0.0,0.0,0.0,0.0,0.0,3.0229,3.0597,3.0644,0.0,0.0,0.0,0.0,0.0,0.0,0.0,0.0,0.0,0.0,4.7022,4.9049,4.9932,0.0,0.0,5.0916,5.0657,5.0522,4.9846,4.9185,4.8749,4.7237,0.0,0.0,0.0,0.0,0.0,0.0,0.0,0.0,0.0,0.0,0.0,0.0,0.0,0.0,0.0,0.0,0.0,0.0,0.0,0.0,0.0,0.0,0.0,0.0,0.0,0.0,0.0,0.0,0.0,0.0,0.0,0.0,0.0,0.0,0.0,0.0,0.0,0.0,0.0,0.0,0.0,0.0,0.0,0.0,0.0,0.0,0.0,0.0,0.0,0.0,0.0,0.0,4.5872,4.7113,4.9749,5.1316,5.1871,5.2422,5.2861,5.3115,5.1312,5.0048,0.0,0.0,0.0,0.0,0.0,0.0,0.0,0.0,0.0,0.0,0.0,0.0,0.0,0.0,0.0,0.0,0.0,0.0,0.0,0.0,0.0,0.0,0.0,0.0,0.0,0.0,0.0,0.0,3.181,3.2287,3.2829,0.0,0.0,0.0,0.0,0.0,0.0,0.0,0.0,0.0,0.0,4.8998,5.0478,5.1479,5.2119,5.2418,5.2438,5.2407,5.2325,5.1658,5.1156,5.1146,0.0,0.0,0.0,0.0,0.0,0.0,0.0,0.0,0.0,0.0,0.0,0.0,0.0,0.0,0.0,0.0,0.0,0.0,0.0,0.0,0.0,0.0,0.0,0.0,0.0,0.0,0.0,0.0,0.0,0.0,3.9722,0.0,0.0,0.0,0.0,0.0,0.0,0.0,0.0,0.0,0.0,0.0,0.0,0.0,0.0,0.0,0.0,0.0,0.0,0.0,0.0,0.0,0.0,4.7389,4.7808,5.0088,5.1413,5.1727,5.2555,5.2972,5.2877,5.1879,5.068,4.9227,0.0,0.0,0.0,0.0,0.0,0.0,0.0,0.0,0.0,0.0,0.0,0.0,0.0,0.0,0.0,0.0,0.0,0.0,0.0,0.0,0.0,0.0,0.0,0.0,0.0,0.0,3.1326,3.2639,3.4213,0.0,0.0,0.0,0.0,0.0,0.0,0.0,0.0,0.0,0.0,4.9565,5.1763,5.2587,5.4082,5.5049,5.5383,5.5442,5.5236,5.4658,5.3984,5.3325,0.0,0.0,0.0,0.0,0.0,0.0,0.0,0.0,0.0,0.0,0.0,0.0,0.0,0.0,0.0,0.0,0.0,0.0,0.0,0.0,0.0,0.0,0.0,0.0,0.0,0.0,0.0,4.2659,4.2535,0.0,0.0,0.0,0.0,0.0,0.0,0.0,0.0,0.0,0.0,0.0,4.9574,4.9574,0.0,0.0,0.0,0.0,0.0,0.0,0.0,0.0,0.0,0.0,0.0,0.0,4.7366,4.8177,5.0247,5.1276,5.1265,5.2387,5.2796,5.2304,5.1604,5.0373,4.853,0.0,0.0,0.0,0.0,0.0,0.0,0.0,0.0,0.0,0.0,0.0,0.0,0.0,0.0,0.0,0.0,0.0,0.0,0.0,0.0,0.0,0.0,0.0,0.0,0.0,3.3618,0.0,0.0,0.0,0.0,0.0,0.0,0.0,0.0,0.0,0.0,0.0,4.6664,4.8251,5.0663,5.2585,5.3453,5.4428,5.5143,0.0,0.0,0.0,0.0,0.0,0.0,0.0,0.0,0.0,0.0,0.0,0.0,0.0,0.0,4.9859,4.7686,4.7046,4.6906,4.7164,0.0,0.0,0.0,0.0,0.0,0.0,0.0,0.0,0.0,0.0,0.0,0.0,0.0,0.0,0.0,0.0,4.4258,0.0,0.0,0.0,0.0,0.0,0.0,0.0,0.0,4.9865,5.0608,5.1777,5.1809,5.1238,0.0,4.9963,4.8544,0.0,0.0,0.0,0.0,0.0,0.0,0.0,0.0,4.7823,4.8667,5.0248,5.1146,5.1394,5.252,5.2923,5.2365,5.1506,5.0253,4.8529,4.7719,4.6612,0.0,0.0,0.0,0.0,0.0,0.0,0.0,0.0,0.0,0.0,0.0,0.0,0.0,0.0,0.0,0.0,0.0,0.0,0.0,0.0,0.0,0.0,0.0,3.5948,0.0,0.0,0.0,0.0,0.0,0.0,0.0,0.0,0.0,4.4452,4.6435,4.8483,5.0018,5.196,5.3566,5.4435,0.0,0.0,0.0,0.0,0.0,0.0,0.0,5.6351,5.6595,5.6218,5.5913,5.5997,5.5636,5.5367,5.5524,0.0,0.0,5.1061,5.0462,5.0447,5.0353,5.0719,5.1061,5.0979,5.0929,5.0912,0.0,0.0,0.0,0.0,0.0,0.0,0.0,0.0,4.7844,4.7505,0.0,4.6849,0.0,0.0,0.0,0.0,0.0,0.0,0.0,0.0,5.1651,5.2501,5.3343,5.3375,5.3108,5.2612,5.1949,5.1254,5.039,4.8091,0.0,0.0,0.0,0.0,0.0,0.0,4.8795,4.9312,5.0263,5.1166,5.1971,5.2872,5.3251,5.2923,5.1763,5.0487,4.9274,4.8529,4.769,4.6675,4.5043,0.0,0.0,0.0,0.0,0.0,0.0,0.0,0.0,0.0,0.0,0.0,0.0,0.0,0.0,0.0,0.0,0.0,0.0,0.0,0.0,3.7503,0.0,0.0,0.0,0.0,0.0,0.0,0.0,0.0,0.0,0.0,4.669,4.8612,5.057,5.1898,0.0,0.0,0.0,0.0,5.7036,5.7199,5.7325,5.7449,5.7632,5.7668,5.774,5.8037,0.0,0.0,5.8282,5.8327,5.8334,5.8517,5.8465,5.7707,5.4985,5.438,5.4306,5.4218,5.4054,5.4,5.3944,5.3664,5.3682,5.1632,0.0,0.0,0.0,0.0,5.0111,5.0618,5.0996,5.0996,5.0622,4.9934,4.9506,0.0,0.0,0.0,0.0,0.0,0.0,5.1205,5.2707,5.3384,5.4172,5.5065,5.5096,5.4597,5.3672,5.345,5.2752,5.1579,5.0866,4.9917,4.8716,0.0,0.0,0.0,0.0,4.9312,4.9854,5.0857,5.1541,5.177,5.2859,5.3118,5.2499,5.131,5.0413,4.9844,4.9365,4.8629,4.769,4.6035,0.0,0.0,0.0,0.0,0.0,0.0,0.0,0.0,0.0,0.0,0.0,0.0,0.0,0.0,0.0,0.0,0.0,0.0,0.0,3.9608,3.9886,4.0293,0.0,0.0,0.0,0.0,0.0,0.0,0.0,0.0,0.0,5.0092,5.0928,5.1634,0.0,0.0,5.5338,5.5554,5.6361,5.7071,5.7673,0.0,0.0,0.0,5.9107,5.9233,5.9383,5.9407,5.9432,5.9469,5.953,5.9578,5.9698,5.9722,5.9462,5.8807,5.7464,5.6586,5.6395,5.5946,5.5498,5.536,5.5299,5.5279,5.4388,5.309,5.161,5.1371,5.19,5.2379,5.2841,5.3241,5.3241,5.2869,5.2219,5.1816,5.1355,5.0882,5.0965,0.0,0.0,0.0,5.2896,5.3937,5.462,5.5331,5.6071,5.6102,5.5844,5.5335,5.4767,5.4071,5.325,5.2712,5.195,5.0953,0.0,0.0,5.0025,5.0078,5.032,5.0782,5.1369,5.1836,5.2113,5.2691,5.2688,5.2049,5.1232,5.0621,5.0177,4.9913,4.9363,4.8594,4.7261,4.5909,0.0,0.0,0.0,0.0,0.0,0.0,0.0,0.0,0.0,0.0,0.0,3.6414,3.6684,0.0,0.0,0.0,3.9423,4.0636,4.1527,4.1915,0.0,0.0,0.0,0.0,0.0,0.0,0.0,4.8686,5.0151,5.1397,5.2278,5.286,5.3177,5.3177,5.4444,5.5472,5.5758,0.0,5.7379,5.7846,5.8277,5.8808,5.933,5.9815,6.03,6.0809,6.0923,6.0949,6.0949,6.0949,6.0974,6.1051,6.1076,6.1101,6.1176,5.9916,5.8821,5.8563,5.8098,5.7722,5.7618,5.7316,5.7014,5.6471,5.567,5.42,5.381,5.4157,5.4188,5.4452,5.4837,5.4898,5.4529,5.3853,5.3868,5.3589,5.3135,5.3313,0.0,5.3166,5.3847,5.436,5.4775,5.5499,5.606,5.6606,5.6559,5.6791,5.7123,5.5841,5.5134,5.5007,5.3818,5.3186,5.3155,5.2523,5.2019,5.1675,5.1496,5.1553,5.1989,5.1832,5.2082,5.2712,5.243,5.2121,5.1748,5.1371,5.0914,5.0317,5.0145,4.9908,4.9378,4.8561,4.7296,4.566,0.0,0.0,0.0,0.0,0.0,0.0,0.0,0.0,0.0,0.0,0.0,0.0,0.0,0.0,0.0,4.2018,0.0,4.3034,4.3804,0.0,0.0,0.0,4.6212,4.7709,4.7957,4.8876,5.1034,0.0,0.0,5.3501,0.0,5.4853,5.4853,5.4993,5.5352,5.6134,5.7061,5.779,5.8005,5.8689,5.9274,5.9517,6.0159,6.1,6.1824,6.2238,6.2245,6.2245,6.2245,6.2344,6.2271,6.2344,6.2308,6.2344,6.1605,6.1109,6.0567,6.0249,6.0127,5.9944,5.9323,5.8738,5.7179,5.6532,5.6135,5.5703,5.5347,5.5902,5.621,5.633,5.6823,5.6361,5.5222,5.5222,5.49,5.4283,5.4329,5.4329,5.4314,5.5008,5.5331,5.5499,5.6176,5.6772,5.7246,5.7246,5.723,5.7155,5.6347,5.5651,5.507,5.4261,5.385,5.385,5.3692,5.2849,5.1496,5.188,5.2008,5.1801,5.2206,5.2634,5.2935,5.2051,5.159,5.1675,5.0767,5.0279,5.0317,5.0242,5.0133,4.9876,4.8765,4.7833,4.7303,4.5909,0.0,0.0,0.0,0.0,0.0,0.0,0.0,0.0,0.0,3.9683,4.0406,0.0,4.1577,0.0,4.3765,4.4992,4.5675,4.5935,0.0,0.0,4.7569,4.7751,4.8137,4.9328,5.0294,5.0822,5.2501,5.3732,5.4084,5.4822,5.535,5.5314,5.551,5.5964,5.6737,5.7078,5.7761,5.8944,5.9487,5.996,6.0641,6.107,6.1428,6.1692,6.1868,6.1923,6.195,6.2033,6.2087,6.2087,6.2087,6.2087,6.2087,6.1906,6.1787,6.1577,6.0799,6.0051,6.0051,5.988,5.9527,5.7426,5.681,5.681,5.6563,5.6207,5.6656,5.681,5.684,5.721,5.6933,5.6146,5.6146,5.5807,5.5191,5.5499,5.5468,5.5222,5.5869,5.6176,5.6224,5.6625,5.705,5.7495,5.7495,5.7558,5.7642,5.6663,5.5999,5.5557,5.4577,5.4103,5.4103,5.4103,5.3553,5.2488,5.2703,5.2673,5.2352,5.2589,5.2743,5.2877,5.2045,5.1577,5.1518,5.069,5.0208,5.016,5.0207,5.0122,4.9689,4.9248,4.8662,4.7927,4.6878,4.6127,0.0,0.0,0.0,0.0,0.0,0.0,0.0,0.0,0.0,0.0,0.0,4.3902,0.0,4.5556,4.6398,4.7354,4.7444,4.7976,4.9164,4.9444,4.966,5.0063,5.0913,5.166,5.2094,5.3276,5.422,5.4565,5.4984,5.5299,5.5299,5.5472,5.5783,5.6422,5.7081,5.7983,5.8923,5.9722,6.041,6.111,6.1357,6.1473,6.1595,6.168,6.1736,6.1736,6.1792,6.1848,6.1812,6.1812,6.1812,6.1812,6.1812,6.1812,6.1732,6.1236,6.0791,6.0851,6.0586,6.0114,5.7426,5.681,5.681,5.681,5.681,5.681,5.681,5.681,5.6902,5.6902,5.681,5.681,5.6471,5.5899,5.6532,5.6471,5.5899,5.6532,5.681,5.681,5.681,5.705,5.7495,5.7495,5.7778,5.8211,5.6852,5.6189,5.6157,5.4767,5.4103,5.4103,5.4103,5.4017,5.3833,5.3584,5.3321,5.3042,5.2819,5.2729,5.2698,5.2229,5.184,5.1432,5.0902,5.0416,5.005,5.016,4.9992,4.9387,4.9721,4.9442,4.8249,4.7988,4.7704,0.0,4.6229,0.0,0.0,0.0,0.0,0.0,0.0,0.0,0.0,4.5258,4.6355,4.7242,4.7412,4.781,4.8571,4.8724,4.9359,5.0686,5.0978,5.1369,5.2175,5.2378,5.2749,5.3593,5.3762,5.414,5.4791,5.4961,5.4961,5.5022,5.5109,5.5324,5.5701,5.7076,5.8219,5.8384,5.9658,6.0661,6.0938,6.1152,6.1299,6.1444,6.1537,6.153,6.153,6.1595,6.1587,6.1587,6.1623,6.1587,6.1587,6.1587,6.1587,6.1587,6.1544,6.1592,6.1723,6.1308,6.0684,5.7426,5.681,5.681,5.681,5.681,5.681,5.681,5.684,5.7395,5.7333,5.681,5.681,5.6748,5.6625,5.6748,5.6748,5.6625,5.6748,5.681,5.681,5.681,5.705,5.7495,5.7495,5.7778,5.818,5.6897,5.6189,5.6157,5.4767,5.4103,5.4103,5.4103,5.406,5.4017,0.0,0.0,0.0,5.2729,5.2729,5.2698,5.2229,5.2089,5.2192,5.1184,0.0,5.0753,5.0287,5.0026,5.0055,4.963,0.0,0.0,0.0,0.0,0.0,0.0,0.0,0.0,0.0,0.0,0.0,4.7669,4.7263,4.6144,4.7197,4.8279,4.9015,4.9651,5.0118,5.0382,5.0447,5.0676,5.1201,5.1298,5.1461,5.1819,5.2364,5.2841,5.2943,5.3653,5.4227,5.4523,5.4749,5.4873,5.4961,5.5022,5.5053,5.5144,5.6715,5.8118,5.8945,5.9915,6.0609,6.0671,6.0818,6.0938,6.0968,6.1176,6.1328,6.1357,6.1473,6.1595,6.1559,6.1587,6.1559,6.1559,6.1587,6.1559,6.1559,6.1559,6.1623,6.168,6.1564,6.1212,5.6972,0.0,5.681,5.681,0.0,5.681,5.681,5.684,5.7179,5.7118,5.681,5.681,5.681,5.681,5.681,5.681,5.681,5.681,5.681,5.681,5.681,5.7002,5.7275,5.7417,5.7731,5.8072,5.6807,5.6189,5.6125,5.4767,5.4103,5.4103,5.4103,5.4103,5.4103,5.3919,5.3484,5.2908,5.2908,5.2863,5.2698,5.2449,5.2317,5.2194,0.0,0.0,0.0,0.0,0.0,0.0,0.0,0.0,0.0,0.0,0.0,4.9388,4.9134,4.8879,4.862,4.8587,4.8553,4.8484,4.8777,4.8721,4.8067,4.8663,4.9226,4.9625,5.0057,5.0525,5.1128,5.1195,5.143,5.2034,5.2134,5.2201,5.2432,5.2836,5.3105,5.327,5.3774,5.4143,5.4239,5.4335,5.4431,5.4589,5.4683,5.4776,5.5004,5.6187,5.7553,5.8866,5.9898,6.0485,6.0521,6.0609,6.0696,6.0727,6.0818,6.0944,6.0944,6.1034,6.1123,6.1176,6.1241,6.1241,6.1328,6.1357,6.1328,6.1364,6.1328,6.1328,6.1357,6.1473,6.1371,5.6567,5.681,5.681,5.681,5.681,5.681,5.681,5.681,0.0,0.0,0.0,5.681,5.681,5.681,5.681,5.681,5.681,5.681,5.681,5.681,5.681,5.6875,5.7084,5.7322,5.759,5.7808,5.6717,5.6144,5.6125,5.4767,5.4103,5.4103,5.4103,5.4103,5.4103,5.3931,5.3659,5.3264,5.3131,5.2966,5.2743,5.2698,5.2541,5.2206,5.2343,5.2215,5.1895,5.1956,5.1733,5.1236,5.1326,5.1192,5.0699,5.0365,5.0279,5.0306,4.9973,4.9657,4.9527,4.9527,4.9455,4.9309,4.9455,4.9603,4.9758,4.9793,4.9897,5.0103,5.0171,5.0542,5.145,5.1551,5.1853,5.2662,5.2764,5.2835,5.3042,5.3247,5.3315,5.3551,5.3717,5.3882,5.3882,5.3915,5.4013,5.4143,5.4303,5.4494,5.4787,5.5688,5.6947,5.8332,5.9331,6.0055,6.0121,6.0419,6.0547,6.0547,6.0578,6.0609,6.0609,6.0609,6.064,6.0788,6.0752,6.0848,6.0974,6.1004,6.1004,6.1034,6.1064,6.1064,6.1123,6.1299,6.1293,5.6567,5.681,5.681,5.681,5.681,5.681,5.681,5.681,5.681,5.681,5.681,5.681,5.681,5.681,5.681,5.681,5.681,5.681,5.681,0.0,5.681,5.6875,5.7084,5.7132,5.7448,5.7777,5.6535,5.5978,5.6031,5.4798,5.4103,5.4103,5.4103,5.4103,5.4103,5.406,5.3931,5.3702,5.3308,5.3086,5.3042,5.2788,5.2757,5.2931,5.2592,5.2434,5.2565,5.2208,5.1954,5.1891,5.19,5.195,5.2018,5.1972,5.1806,5.1428,5.1307,5.1057,5.0448,5.0416,5.0416,5.0416,5.0384,5.043,5.0543,5.0549,5.0779,5.1405,5.1438,5.1572,5.1776,5.1743,5.1849,5.2092,5.2272,5.2449,5.2661,5.2835,5.2972,5.3041,5.3179,5.3382,5.3484,5.3651,5.3783,5.398,5.4045,5.4175,5.4632,5.5532,5.6485,5.7451,5.8345,5.8895,5.9102,5.9816,6.0325,6.0427,6.0485,6.0547,6.0547,6.0547,6.0578,6.0609,6.064,6.064,6.0701,6.0671,6.0732,6.0818,6.0848,6.0878,6.1034,6.1123,6.1117,5.6323,5.6616,5.6713,5.681,5.681,5.681,5.681,5.681,5.681,5.681,5.681,5.681,5.681,5.681,5.681,5.681,5.681,5.681,5.681,5.681,5.681,5.6858,5.6923,5.7036,5.7227,5.7402,5.6697,5.6221,5.5915,5.5058,5.4451,5.4134,5.4103,5.4103,5.4103,5.4103,5.406,5.3931,5.3659,5.344,5.3277,5.3011,5.2966,5.31,5.2878,5.2854,5.3083,5.3016,5.2871,5.2618,5.2618,5.2469,5.2172,5.2222,5.2218,5.2021,5.2109,5.1789,5.104,5.0508,5.0285,5.0434,5.0434,5.0499,5.0639,5.0644,5.0773,5.1097,5.1162,5.1242,5.1462,5.1499,5.161,5.1871,5.198,5.2089,5.2161,5.2307,5.2449,5.2555,5.2731,5.2938,5.311,5.3213,5.3349,5.3517,5.3684,5.3948,5.4175,5.4741,5.5513,5.6561,5.7733,5.843,5.8567,5.9327,5.9908,6.0075,6.0104,6.0199,6.0297,6.0329,6.036,6.0454,6.0489,6.0516,6.0578,6.0609,6.064,6.0671,6.0666,6.0762,6.0793,6.0823,6.0884,5.6077,5.6323,5.6519,5.6664,5.6713,5.6713,5.6761,5.681,5.681,5.681,5.681,5.681,5.681,5.681,5.681,5.681,5.681,5.681,5.681,5.681,5.681,5.681,5.681,5.6971,5.7067,5.707,5.6809,5.6353,5.5754,5.5241,5.4711,5.4166,5.4103,5.4103,5.4103,5.4103,5.4103,5.4103,5.3962,5.3714,5.3496,5.3277,5.3175,5.3131,5.3144,5.3233,5.3365,5.3659,5.3656,5.3323,5.3302,5.306,5.2554,5.2616,5.2635,5.2549,5.2608,5.2267,5.1271,5.05,5.0089,5.0129,5.0129,5.0207,5.0434,5.0434,5.048,5.0589,5.0628,5.0781,5.101,5.1054,5.1237,5.154,5.1614,5.1721,5.1758,5.1835,5.1984,5.2164,5.2307,5.2485,5.2659,5.2764,5.2868,5.3144,5.3416,5.3651,5.3849,5.398,5.4578,5.562,5.7057,5.7955,5.8164,5.8961,5.9582,5.9748,5.9748,5.9846,5.9978,6.001,6.004,6.0202,6.0333,6.0329,6.0454,6.0485,6.0485,6.0516,6.0547,6.0547,6.0609,6.064,6.0671,5.575,5.6028,5.6047,5.6225,5.639,5.639,5.6537,5.6761,5.681,5.681,5.681,5.681,5.681,5.681,5.681,5.681,5.6779,5.681,5.6779,5.6748,5.681,5.681,5.6779,5.681,5.6923,5.7022,5.6512,5.6,5.5513,5.5019,5.458,5.4155,5.4103,5.4103,5.4103,5.4103,5.4103,5.4103,5.406,5.3974,5.3746,5.3496,5.3277,5.3131,5.3277,5.3321,5.3175,5.3571,5.3758,5.3738,5.3848,5.3976,5.3882,5.3924,5.3671,5.3102,5.3039,5.2386,5.0951,5.0659,5.0313,4.9716,4.9693,4.9773,4.9971,4.9971,5.0129,5.0473,5.0589,5.0589,5.0666,5.0666,5.0781,5.101,5.1162,5.135,5.1499,5.1721,5.1831,5.1835,5.1871,5.1944,5.2125,5.2272,5.2485,5.2868,5.3076,5.3281,5.345,5.3651,5.3884,5.4521,5.5876,5.6999,5.7344,5.8583,5.938,5.9586,5.9586,5.9619,5.9685,5.9748,5.9846,5.9911,6.0043,6.0107,6.0139,6.0171,6.0234,6.0329,6.0396,6.0458,6.0547,6.0578,6.0578,5.5058,5.5145,5.4928,5.5135,5.5536,5.5597,5.5957,5.6567,5.6567,5.6664,5.681,5.681,5.681,5.681,5.681,5.6594,5.6193,5.6146,5.593,5.5622,5.593,5.6146,5.6224,5.6625,5.6858,5.6923,5.6741,5.6201,5.5285,5.4585,5.4115,5.3962,5.4017,5.4103,5.4103,5.4103,5.4103,5.4103,5.4103,5.406,5.3974,5.3758,5.3496,5.3321,5.3233,5.3188,5.3131,5.3308,5.3409,5.354,5.3758,5.3919,5.3919,5.4017,5.3976,5.3692,5.3154,5.2398,5.1381,5.0777,5.0131,4.9484,4.9452,4.9493,4.9533,4.9622,4.9812,4.9971,5.0129,5.0246,5.0395,5.0402,5.0512,5.0705,5.082,5.0934,5.1124,5.1199,5.135,5.1573,5.161,5.1684,5.1835,5.1944,5.2161,5.2449,5.2626,5.2765,5.3076,5.3281,5.3687,5.4363,5.5552,5.6369,5.6809,5.8047,5.9011,5.9352,5.9419,5.9419,5.9588,5.9619,5.9685,5.9685,5.9783,5.9816,5.9818,5.9914,5.9943,6.0075,6.0171,6.0234,6.0297,6.0297,6.0297,5.4389,5.4318,5.396,5.4104,5.4607,5.4607,5.5025,5.5725,5.5908,5.6194,5.6419,5.6621,5.659,5.6532,5.6532,5.6176,5.5715,5.5499,5.5191,5.4775,5.5222,5.5438,5.5499,5.593,5.6207,5.6255,5.6337,5.5813,5.4868,5.4077,5.3746,5.3833,5.3931,5.4017,5.4017,5.3974,5.3931,5.4017,5.4017,5.406,5.406,5.3919,5.3702,5.3421,5.3277,5.31,5.2966,5.3086,5.3144,5.3321,5.354,5.3746,5.3789,5.3931,5.4017,5.4028,5.3416,5.2648,5.1947,5.1017,5.0206,4.9583,4.9334,4.925,4.9331,4.9452,4.9501,4.9501,4.9661,4.9931,5.0129,5.02,5.0285,5.0441,5.0512,5.0589,5.0781,5.082,5.0934,5.1275,5.1312,5.1424,5.1647,5.1758,5.1835,5.2125,5.2197,5.2269,5.2589,5.2834,5.3276,5.4223,5.5106,5.5995,5.6611,5.781,5.8703,5.8978,5.9012,5.9115,5.9353,5.9421,5.9521,5.9486,5.952,5.9621,5.9687,5.9718,5.9781,5.9846,5.9911,6.0075,6.0139,6.0107,6.0107,5.3843,5.3744,5.3394,5.3368,5.3652,5.3652,5.3827,5.4296,5.4813,5.5232,5.5534,5.6054,5.6168,5.5745,5.5715,5.5715,5.5561,5.5037,5.4652,5.4591,5.4683,5.4714,5.4745,5.4775,5.4806,5.5007,5.5007,5.4715,5.4171,5.3663,5.354,5.3789,5.3833,5.3833,5.3789,5.3584,5.3584,5.3789,5.3789,5.3888,5.4017,5.3876,5.3627,5.3377,5.3409,5.3188,5.2833,5.2922,5.3131,5.3131,5.3321,5.354,5.3746,5.3789,5.3919,5.406,5.3856,5.3283,5.2348,5.1417,5.0649,4.9987,4.9306,4.9078,4.9178,4.9291,4.9331,4.93,4.9493,4.9661,4.9892,4.9971,5.005,5.0278,5.0317,5.0363,5.0589,5.0628,5.0705,5.0896,5.0934,5.1086,5.1424,5.1499,5.161,5.1794,5.1831,5.1908,5.2089,5.2236,5.2815,5.3692,5.4644,5.5602,5.6984,5.7874,5.8388,5.8631,5.8701,5.8631,5.8806,5.8944,5.9115,5.9285,5.9352,5.9453,5.9588,5.9619,5.9685,5.9716,5.9781,5.9879,5.9975,6.004,6.0072,5.2418,5.1679,5.1539,5.1851,5.2401,5.2431,5.2912,5.3766,5.3978,5.4243,5.4514,5.4949,5.503,5.488,5.456,5.4453,5.4422,5.4176,5.3791,5.3529,5.3868,5.4037,5.4114,5.4468,5.4683,5.4683,5.4652,5.4391,5.3851,5.3543,5.3421,5.354,5.3746,5.3789,5.3746,5.354,5.3465,5.3509,5.354,5.3552,5.364,5.3552,5.3452,5.3233,5.3188,5.3055,5.2729,5.2819,5.2863,5.2833,5.3055,5.3233,5.3352,5.3452,5.3627,5.3876,5.354,5.2997,5.2194,5.1296,5.0518,4.9839,4.916,4.88,4.8852,4.9006,4.9118,4.9159,4.9291,4.9421,4.9573,4.9773,4.9931,5.001,5.005,5.0129,5.0356,5.0434,5.0473,5.0666,5.0705,5.082,5.1107,5.1156,5.1237,5.1536,5.161,5.1717,5.1868,5.1944,5.2551,5.3801,5.4512,5.5332,5.7049,5.7717,5.8169,5.8312,5.8419,5.849,5.8631,5.8631,5.8771,5.8944,5.9081,5.9183,5.9217,5.9386,5.9453,5.9619,5.9685,5.9716,5.9879,5.9911,6.001,5.1582,5.0589,5.0501,5.0833,5.1361,5.1391,5.1869,5.272,5.293,5.3242,5.3577,5.3979,5.4074,5.3941,5.3699,5.3423,5.3269,5.333,5.3129,5.279,5.3191,5.3406,5.3468,5.3868,5.4037,5.4037,5.4037,5.376,5.3452,5.3317,5.3321,5.3321,5.3452,5.3571,5.3528,5.3321,5.3233,5.3277,5.3321,5.3365,5.3377,5.3334,5.3233,5.3131,5.3042,5.2908,5.2729,5.2729,5.2729,5.2729,5.2877,5.2997,5.31,5.3277,5.3496,5.3584,5.3321,5.2869,5.2374,5.1506,5.0728,5.0051,4.9374,4.8881,4.8666,4.8759,4.8872,4.8914,4.9078,4.921,4.925,4.9533,4.9733,4.9781,4.9852,4.9971,5.0129,5.02,5.0373,5.0792,5.0934,5.1115,5.1353,5.1488,5.1604,5.1841,5.1918,5.2005,5.189,5.2235,5.2712,5.3959,5.4467,5.5312,5.6478,5.7147,5.7588,5.7772,5.7954,5.8135,5.8278,5.8312,5.8419,5.8596,5.8736,5.8806,5.8909,5.9115,5.9285,5.9488,5.9486,5.9553,5.965,5.9751,5.9849,5.1375,5.0512,5.0501,5.0453,5.0589,5.0589,5.0674,5.106,5.1565,5.2139,5.258,5.3248,5.327,5.3064,5.3131,5.2918,5.2535,5.2641,5.2745,5.2729,5.276,5.279,5.2821,5.2883,5.2944,5.2914,5.279,5.279,5.279,5.3028,5.3131,5.31,5.3131,5.3175,5.3131,5.2922,5.2833,5.3011,5.3086,5.3188,5.3334,5.3188,5.3086,5.3042,5.2863,5.2729,5.2729,5.2729,5.2729,5.2729,5.2698,5.2863,5.3086,5.3277,5.3377,5.3334,5.3188,5.3055,5.2918,5.2154,5.1313,5.0759,5.0082,4.9404,4.8881,4.8727,4.8696,4.8676,4.8759,4.8955,4.8996,4.9169,4.9381,4.9613,4.9836,5.0018,5.0026,4.9995,5.0295,5.1097,5.1415,5.1893,5.2341,5.2373,5.2349,5.2468,5.262,5.2577,5.2172,5.2663,5.3415,5.3785,5.4371,5.5259,5.5863,5.648,5.6834,5.7176,5.7402,5.7588,5.7808,5.7918,5.8097,5.8277,5.8561,5.8631,5.8736,5.8909,5.9047,5.9217,5.9251,5.9352,5.9486,5.9586,5.9685,5.065,4.997,4.9941,5.0038,5.0231,5.026,5.0375,5.0614,5.0965,5.1214,5.1434,5.1974,5.2131,5.215,5.2275,5.2322,5.2109,5.2231,5.2382,5.2653,5.2729,5.2684,5.2684,5.2729,5.2729,5.2729,5.2729,5.2729,5.2774,5.2997,5.3086,5.3086,5.3086,5.3086,5.3086,5.2833,5.2774,5.2788,5.2819,5.2863,5.2922,5.2877,5.2819,5.2819,5.2743,5.2729,5.2729,5.2729,5.2729,5.2729,5.2729,5.2819,5.3042,5.2966,5.3011,5.3175,5.2997,5.2788,5.2726,5.2158,5.1652,5.1313,5.0759,5.0082,4.9466,4.9186,4.8887,4.8477,4.8385,4.8343,4.851,4.8718,4.9078,4.9533,5.0102,5.0466,5.065,5.1006,5.1457,5.1688,5.1833,5.2041,5.2322,5.2458,5.2562,5.2684,5.2773,5.2653,5.2565,5.2892,5.3492,5.4031,5.4619,5.507,5.5719,5.6165,5.6402,5.6719,5.6949,5.7139,5.7364,5.7551,5.7735,5.7991,5.8277,5.849,5.8596,5.8736,5.8875,5.8978,5.9047,5.9183,5.9352,5.9419,5.9486,5.0328,4.9746,4.9746,4.9766,4.9941,4.9941,5.0086,5.0357,5.0471,5.0632,5.087,5.1152,5.1339,5.1479,5.1741,5.1834,5.1864,5.1926,5.2155,5.2413,5.2427,5.2458,5.2427,5.2518,5.2608,5.2653,5.2729,5.2729,5.2729,5.2833,5.2953,5.2953,5.2953,5.2953,5.2953,5.2819,5.2729,5.2729,5.2729,5.2729,5.2729,5.2729,5.2729,5.2729,5.2729,5.2729,5.2729,5.2729,5.2729,5.2729,5.2729,5.2819,5.2953,5.2788,5.2743,5.2863,5.2819,5.2698,5.2667,5.2329,5.1959,5.1682,5.1313,5.079,5.0193,4.9837,4.9371,4.8791,4.8529,4.8323,4.8279,4.863,4.9057,4.9542,5.0163,5.0734,5.119,5.1692,5.2144,5.2302,5.2428,5.2564,5.2837,5.2984,5.3025,5.3149,5.32,5.3082,5.3131,5.339,5.3914,5.4301,5.4657,5.515,5.5676,5.5886,5.5966,5.6244,5.6525,5.6796,5.7025,5.7176,5.7364,5.7735,5.8027,5.8241,5.8314,5.8561,5.8701,5.8771,5.8806,5.8944,5.9081,5.9183,5.9251,5.0299,4.9746,4.9746,4.9717,4.9717,4.9746,4.9892,5.0038,5.0135,5.0346,5.068,5.0793,5.0964,5.1199,5.1463,5.1572,5.1618,5.1787,5.188,5.1956,5.1956,5.2002,5.2063,5.2246,5.2397,5.2608,5.2653,5.2653,5.2729,5.2698,5.2729,5.2729,5.2743,5.2698,5.2729,5.2729,5.2729,5.2729,5.2729,5.2729,5.2729,5.2729,5.2729,5.2729,5.2729,5.2729,5.2729,5.2729,5.2729,5.2729,5.2729,5.2729,5.2729,5.2729,5.2698,5.2698,5.2729,5.2729,5.2729,5.2637,5.2421,5.1929,5.1805,5.1467,5.0839,5.0481,5.0031,4.9377,4.9101,4.8771,4.8493,4.8834,4.9384,4.9743,5.0381,5.0996,5.1706,5.2031,5.2461,5.2944,5.3144,5.3344,5.3818,5.3956,5.3956,5.3999,5.4063,5.3861,5.3712,5.3879,5.431,5.453,5.4686,5.502,5.5483,5.5564,5.5645,5.5846,5.6165,5.648,5.6719,5.6911,5.7101,5.7439,5.7735,5.7918,5.8099,5.8277,5.8455,5.8525,5.8596,5.8736,5.884,5.8944,5.9081,4.9843,4.9746,4.9746,4.9746,4.9746,4.9746,4.9746,4.9844,5.0038,5.0183,5.0346,5.068,5.0822,5.0917,5.1229,5.1323,5.1369,5.1416,5.1416,5.1416,5.1416,5.1649,5.1956,5.2017,5.22,5.2352,5.2397,5.2518,5.2684,5.2653,5.2684,5.2729,5.2653,5.2729,5.2729,5.2729,5.2729,5.2729,5.2729,5.2729,5.2729,5.2729,5.2729,5.2729,5.2729,5.2729,5.2729,5.2729,5.2729,5.2729,5.2729,5.2729,5.2729,5.2698,5.2653,5.2653,5.2653,5.2729,5.2729,5.2729,5.2606,5.2483,5.239,5.2144,5.1528,5.1039,5.0526,4.9877,4.946,4.9193,4.9175,4.9354,4.9877,5.0774,5.1327,5.1993,5.2684,5.2977,5.3232,5.3518,5.3561,5.3773,5.3954,5.406,5.406,5.4103,5.4114,5.4168,5.402,5.4084,5.4348,5.4495,5.4611,5.4883,5.5113,5.5237,5.536,5.5523,5.5806,5.6126,5.648,5.6757,5.6949,5.7176,5.7364,5.7588,5.7735,5.7918,5.8061,5.8241,5.8419,5.8561,5.8665,5.8735,5.8943,4.9746,4.9746,4.9746,4.9746,4.9746,4.9746,4.9746,4.9717,4.9892,4.999,5.0135,5.0375,5.0632,5.0822,5.0964,5.1135,5.1182,5.1229,5.1182,5.1011,5.0947,5.1229,5.1695,5.1834,5.1972,5.2155,5.217,5.2246,5.2337,5.2382,5.2427,5.2518,5.2518,5.2608,5.2729,5.2729,5.2729,5.2729,5.2729,5.2729,5.2729,5.2729,5.2729,5.2729,5.2729,5.2729,5.2729,5.2729,5.2729,5.2729,5.2729,5.2729,5.2729,5.2563,5.2518,5.2487,5.2473,5.2427,5.2518,5.2563,5.2608,5.2653,5.2729,5.2469,5.2027,5.1621,5.1076,5.017,4.9794,4.9463,4.9253,4.9554,5.0442,5.1452,5.2082,5.2622,5.3201,5.3271,5.3465,5.3584,5.3627,5.3671,5.3801,5.3813,5.3888,5.3931,5.3931,5.4017,5.4071,5.42,5.4327,5.437,5.4497,5.4665,5.4864,5.4989,5.5113,5.5278,5.5564,5.5846,5.6244,5.6603,5.6757,5.6949,5.7063,5.7252,5.7439,5.7625,5.7772,5.7954,5.8205,5.8484,5.8692,5.8833,5.9008,4.9746,4.9746,4.9746,4.9746,4.9746,4.9746,4.9746,4.9746,4.9746,4.9844,5.0038,5.0086,5.0375,5.0728,5.0745,5.0917,5.1135,5.1135,5.0994,5.0775,5.0662,5.0852,5.1369,5.1433,5.1649,5.188,5.1926,5.2002,5.2094,5.2048,5.2109,5.2215,5.2261,5.2397,5.2563,5.2608,5.2653,5.2729,5.2729,5.2729,5.2653,5.2653,5.2608,5.2608,5.2594,5.2518,5.2563,5.2563,5.2594,5.2639,5.2653,5.2608,5.2608,5.2397,5.2261,5.2261,5.2155,5.2109,5.2261,5.2306,5.2397,5.2563,5.2653,5.2608,5.229,5.1987,5.1455,5.0499,5.0147,4.9707,4.9301,4.9756,5.0711,5.1744,5.2124,5.2487,5.2877,5.3188,5.3334,5.3409,5.3377,5.3377,5.3377,5.3421,5.3465,5.3714,5.3758,5.3801,5.3888,5.4017,5.4071,5.42,5.4327,5.4454,5.4613,5.4771,5.4906,5.5113,5.536,5.5685,5.6086,5.6402,5.6636,5.679,5.6872,5.7025,5.7214,5.7402,5.7514,5.7698,5.7918,5.8504,5.8984,5.9132,5.9274,4.9746,4.9746,4.9746,4.9746,4.9746,4.9746,4.9746,4.9746,4.9746,4.9746,4.9844,4.999,5.0135,5.025,5.0585,5.0775,5.0769,5.0894,5.0775,5.0596,5.0548,5.0548,5.0787,5.087,5.1246,5.1556,5.1695,5.1787,5.1926,5.1956,5.2002,5.2063,5.2063,5.22,5.2352,5.2427,5.2518,5.2653,5.2684,5.2684,5.2608,5.2473,5.2397,5.2427,5.2246,5.2155,5.2185,5.2139,5.2139,5.2155,5.2291,5.2352,5.2352,5.22,5.2063,5.2017,5.2017,5.2002,5.2063,5.217,5.2276,5.2352,5.2518,5.2608,5.2306,5.2109,5.1681,5.1083,5.0756,5.0325,5.0017,5.0543,5.102,5.1449,5.1834,5.2109,5.2246,5.2608,5.2877,5.3055,5.3144,5.3233,5.3334,5.3334,5.3409,5.3496,5.3496,5.354,5.3627,5.3758,5.3888,5.4017,5.4146,5.4274,5.4412,5.4571,5.4739,5.4874,5.5196,5.5433,5.5806,5.6205,5.6402,5.6525,5.6641,5.6834,5.7025,5.7139,5.7252,5.7476,5.7695,5.8281,5.8767,5.9084,5.9641,4.9746,4.9746,4.9746,4.9746,4.9746,4.9746,4.9746,4.9746,4.9746,4.9746,4.9746,4.9892,4.999,5.0086,5.0375,5.0589,5.0972,5.1238,5.116,5.0789,5.0652,5.0476,5.0309,5.0471,5.0728,5.1152,5.1199,5.1386,5.1556,5.1649,5.1649,5.1787,5.1834,5.1926,5.2109,5.2155,5.2246,5.2322,5.2367,5.2367,5.2337,5.2246,5.2124,5.2155,5.2063,5.2002,5.2048,5.2002,5.2002,5.2002,5.1972,5.2033,5.2109,5.1926,5.1834,5.1787,5.1695,5.1695,5.1787,5.1926,5.2063,5.2124,5.2291,5.22,5.2033,5.188,5.1509,5.1041,5.071,5.0567,5.0327,5.0471,5.0757,5.1088,5.1369,5.1649,5.1834,5.2155,5.2382,5.2563,5.2653,5.2743,5.2846,5.3024,5.3188,5.3233,5.3277,5.3277,5.3465,5.3584,5.3671,5.3801,5.3919,5.4017,5.42,5.437,5.4497,5.4707,5.4989,5.5155,5.5401,5.5806,5.6165,5.6323,5.6486,5.6603,5.6796,5.6872,5.7025,5.7214,5.7536,5.8059,5.8511,5.8967,5.9556,4.9746,4.9746,4.9746,4.9746,4.9746,4.9746,4.9746,4.9746,4.9746,4.9746,4.9746,4.9746,4.9844,4.999,5.0262,5.073,5.1366,5.1628,5.1499,5.1157,5.0776,5.0534,5.033,5.0174,5.025,5.068,5.0775,5.0917,5.1105,5.1182,5.1293,5.1509,5.1526,5.1695,5.188,5.1926,5.1972,5.2048,5.2094,5.2094,5.2017,5.2002,5.1926,5.1834,5.1787,5.1787,5.1787,5.1787,5.1834,5.1864,5.1695,5.1695,5.1741,5.1695,5.1526,5.1526,5.1369,5.1369,5.1479,5.1618,5.1741,5.1926,5.2002,5.188,5.1665,5.1526,5.1182,5.0787,5.0453,5.0279,5.0086,5.0183,5.0375,5.0632,5.0947,5.1182,5.1416,5.1649,5.1771,5.2094,5.2246,5.2382,5.2442,5.2577,5.2788,5.2922,5.3042,5.3086,5.3233,5.3377,5.3452,5.354,5.3627,5.3833,5.4017,5.42,5.4327,5.4539,5.479,5.4989,5.5155,5.5523,5.5886,5.6165,5.6362,5.6486,5.6603,5.6757,5.6911,5.7025,5.731,5.7771,5.8257,5.8777,5.9404,4.9746,4.9746,4.9746,4.9746,4.9746,4.9746,4.9746,4.9746,4.9746,4.9746,4.9746,4.9746,4.9717,4.996,5.0573,5.1227,5.1754,5.1903,5.1773,5.1482,5.1112,5.0784,5.0581,5.0164,5.0077,5.0183,5.0423,5.0614,5.0822,5.0887,5.1011,5.1199,5.1276,5.1416,5.1526,5.1665,5.1695,5.1741,5.1818,5.1864,5.1834,5.1741,5.1602,5.1463,5.1416,5.1416,5.1369,5.1369,5.1323,5.1323,5.1276,5.1323,5.1323,5.1276,5.1276,5.1323,5.1276,5.1276,5.1323,5.1479,5.1572,5.1695,5.1787,5.1787,5.1572,5.1339,5.0994,5.0567,5.0086,4.9844,4.9795,4.9941,5.0086,5.0279,5.0471,5.0614,5.0739,5.0882,5.1165,5.1679,5.188,5.2063,5.2079,5.2215,5.2518,5.2653,5.2743,5.2788,5.2922,5.3055,5.3188,5.3277,5.3365,5.354,5.3789,5.4017,5.4157,5.437,5.4655,5.4864,5.5072,5.5319,5.5604,5.5886,5.6165,5.6362,5.6519,5.6674,5.6796,5.6911,5.7196,5.7448,5.7939,5.8392,5.895,4.9746,4.9746,4.9746,4.9746,4.9746,4.9746,4.9746,4.9746,4.9746,4.9746,4.9746,4.9746,4.9746,4.9921,5.0464,5.135,5.2115,5.2536,5.2397,5.2107,5.1788,5.1439,5.1149,5.0511,5.0377,5.03,5.0243,5.0279,5.0614,5.0662,5.071,5.0805,5.0852,5.0899,5.0994,5.0994,5.1135,5.1229,5.1259,5.1276,5.1386,5.1369,5.1323,5.1229,5.1182,5.1229,5.1229,5.1229,5.1105,5.1011,5.1011,5.0947,5.0899,5.0852,5.0947,5.1135,5.1182,5.1229,5.1229,5.1339,5.1293,5.1199,5.1339,5.1276,5.1088,5.0852,5.0662,5.0327,4.999,4.9746,4.9746,4.9815,4.9863,4.9941,5.0135,5.026,5.0279,5.0405,5.0757,5.1229,5.1369,5.1556,5.1665,5.1895,5.22,5.2382,5.2503,5.2624,5.2745,5.2866,5.3032,5.31,5.3233,5.3409,5.3659,5.3876,5.4017,5.4231,5.4486,5.4697,5.4906,5.5155,5.5328,5.5531,5.5814,5.6126,5.6402,5.6486,5.6641,5.6796,5.7015,5.7268,5.762,5.8077,5.8496,4.9746,4.9746,4.9746,4.9746,4.9746,4.9746,4.9746,4.9746,4.9746,4.9746,4.9746,4.9746,4.9746,4.995,5.0647,5.1606,5.2717,5.3297,5.3123,5.2804,5.241,5.2121,5.1657,5.1056,5.0572,5.0283,5.0072,4.9931,5.0357,5.0405,5.0453,5.0548,5.0548,5.0501,5.0548,5.0644,5.0501,5.0501,5.0501,5.0614,5.0728,5.0947,5.1088,5.1088,5.1041,5.1041,5.0994,5.0994,5.0947,5.0775,5.0728,5.0662,5.0548,5.0501,5.0692,5.0994,5.1088,5.1135,5.1105,5.1105,5.1011,5.0822,5.0775,5.0662,5.0567,5.0519,5.0327,5.0038,4.9844,4.9746,4.9746,4.9746,4.9717,4.9766,4.9892,5.0038,5.0086,5.0135,5.0183,5.0567,5.0805,5.1118,5.1353,5.1539,5.1894,5.2581,5.2704,5.2811,5.2933,5.2947,5.3022,5.3015,5.3144,5.3321,5.354,5.3702,5.3876,5.4017,5.4285,5.4539,5.4749,5.4948,5.5155,5.5328,5.5564,5.5846,5.6093,5.6369,5.6486,5.6641,5.6834,5.7053,5.7339,5.7486,5.7771,4.9746,4.9746,4.9746,4.9746,4.9746,4.9746,4.9746,4.9746,4.9746,4.9746,4.9698,4.9698,4.9698,5.0026,5.0983,5.2143,5.3042,5.3308,5.3337,5.3082,5.2549,5.2237,5.1955,5.115,5.0685,5.0312,4.9946,4.9944,5.0096,5.0174,5.026,5.0405,5.0405,5.0501,5.0405,5.0405,5.0501,5.0501,5.0501,5.0501,5.0519,5.0596,5.0644,5.0644,5.0644,5.0614,5.0692,5.0692,5.0567,5.0519,5.0519,5.0548,5.0501,5.0501,5.0501,5.0644,5.0757,5.087,5.087,5.087,5.0728,5.0567,5.0519,5.0471,5.0375,5.0231,5.0038,4.9766,4.9717,4.9746,4.9746,4.9746,4.9746,4.9863,4.9979,4.997,4.9989,5.0417,5.0408,5.0194,5.0592,5.0887,5.116,5.1349,5.1643,5.2392,5.2976,5.3038,5.3116,5.3101,5.3162,5.3189,5.3028,5.3144,5.3321,5.3528,5.3702,5.3833,5.406,5.437,5.4581,5.4781,5.4989,5.5196,5.536,5.5564,5.5774,5.6053,5.6323,5.6519,5.6641,5.6796,5.702,5.7101,5.7252,4.9746,4.9746,4.9746,4.9746,4.9746,4.9746,4.9746,4.9746,4.9746,4.962,4.9502,4.9453,4.9779,5.04,5.1276,5.211,5.291,5.3025,5.3054,5.3054,5.266,5.2382,5.2268,5.1704,5.1057,5.0714,5.0172,4.9839,4.9894,4.9803,4.9795,5.0019,5.0067,5.0038,5.0184,5.0067,5.0038,5.0086,5.0135,5.0231,5.0279,5.0405,5.0501,5.0501,5.0501,5.0501,5.0501,5.0501,5.0405,5.0327,5.0279,5.0183,5.0086,5.0038,5.0086,5.0279,5.0375,5.0442,5.0614,5.0614,5.0471,5.0327,5.0231,5.0183,5.0086,4.999,4.9892,4.9746,4.9746,4.9746,4.9863,5.0066,5.024,5.0307,5.0423,5.0598,5.0627,5.0743,5.088,5.061,5.0397,5.0789,5.1206,5.1565,5.1894,5.2437,5.3084,5.3455,5.3432,5.3344,5.3377,5.3391,5.3127,5.2922,5.31,5.3264,5.3528,5.3702,5.3833,5.4103,5.437,5.4581,5.479,5.5031,5.5196,5.536,5.5564,5.5806,5.6086,5.6284,5.6447,5.6641,5.6796,5.6987,5.7176,4.9746,4.9746,4.9746,4.9746,4.9746,4.9746,4.9746,4.9746,4.9746,4.9551,4.9412,4.9408,4.9946,5.0789,5.1423,5.2105,5.2705,5.268,5.268,5.268,5.2627,5.2516,5.232,5.1925,5.1616,5.1526,5.0569,5.0132,4.9944,4.981,4.9774,4.9762,5.008,5.0051,4.9994,5.0179,5.0336,5.0435,5.0379,5.0311,5.033,5.0271,5.029,5.0309,5.0309,5.0279,5.0309,5.0309,5.0135,5.0038,4.999,4.9941,4.9766,4.9795,4.9815,4.999,5.0009,5.0086,5.0231,5.0309,5.0231,5.0086,4.999,4.9941,4.9795,4.9746,4.9746,4.9746,4.993,4.9979,5.0095,5.054,5.083,5.1033,5.1236,5.1468,5.1643,5.1527,5.1381,5.1091,5.0967,5.1017,5.1423,5.1837,5.222,5.264,5.3151,5.3724,5.3784,5.3705,5.3603,5.3683,5.3361,5.3038,5.3082,5.3245,5.3419,5.3528,5.369,5.3876,5.4146,5.437,5.4581,5.479,5.4989,5.5196,5.536,5.5604,5.5879,5.6046,5.6284,5.648,5.6641,5.6834,5.7025,4.9746,4.9746,4.9669,4.9746,4.9746,4.9746,4.9746,4.9669,4.9698,4.9531,4.9379,4.9638,5.0115,5.0829,5.1461,5.206,5.268,5.268,5.2627,5.2519,5.2411,5.2275,5.211,5.1889,5.1584,5.1161,5.0735,5.0558,5.0436,5.0313,5.007,4.9909,5.0348,5.0612,5.0663,5.0666,5.0926,5.0991,5.083,5.0647,5.0473,5.0231,4.9882,4.9824,4.9746,4.9717,4.9766,4.9766,4.9717,4.9669,4.9717,4.9717,4.962,4.9669,4.9717,4.9766,4.9795,4.9873,5.0058,5.0096,5.0019,4.9844,4.9805,4.9941,4.9921,4.9776,4.9746,4.9863,5.024,5.056,5.0743,5.112,5.1497,5.1672,5.1846,5.202,5.2107,5.1991,5.1846,5.1643,5.1556,5.1606,5.1715,5.2163,5.2623,5.3001,5.3674,5.428,5.4315,5.4225,5.4018,5.3905,5.3558,5.3346,5.3269,5.3346,5.3355,5.3406,5.3565,5.3678,5.3876,5.4103,5.4327,5.4581,5.4749,5.4915,5.5155,5.5401,5.5645,5.5846,5.6046,5.6284,5.6447,5.668,5.6872,4.9453,4.9453,4.962,4.9746,4.9746,4.9746,4.9746,4.9698,4.9551,4.9437,4.938,4.9779,5.0247,5.0869,5.1463,5.1887,5.2113,5.2113,5.2167,5.2113,5.2004,5.195,5.1896,5.1868,5.1646,5.1365,5.1084,5.0885,5.0738,5.0735,5.065,5.061,5.0758,5.0714,5.0846,5.1012,5.119,5.1308,5.1157,5.1013,5.0868,5.0406,4.9981,4.9753,4.9293,4.9207,4.9178,4.9178,4.9178,4.9256,4.9433,4.9482,4.9473,4.9571,4.9669,4.9698,4.9727,4.995,5.0153,5.0086,4.997,5.0348,5.0357,5.0328,5.0249,4.9988,5.0066,5.027,5.0618,5.0967,5.1294,5.1788,5.2223,5.2281,5.2426,5.2601,5.2601,5.2514,5.2397,5.2252,5.2223,5.2245,5.2333,5.2471,5.2938,5.3432,5.417,5.468,5.4739,5.4726,5.4491,5.4256,5.3945,5.3736,5.3661,5.3514,5.333,5.3341,5.3454,5.3552,5.3678,5.3833,5.406,5.4285,5.4539,5.4749,5.4957,5.5196,5.5442,5.5685,5.5886,5.6086,5.6323,5.6525,5.668,4.9207,4.9305,4.9473,4.962,4.9669,4.9649,4.9571,4.9551,4.9305,4.9302,4.9444,4.9836,5.035,5.0916,5.1478,5.1813,5.1841,5.1841,5.1841,5.1841,5.1841,5.1787,5.1787,5.1759,5.1759,5.1674,5.145,5.1194,5.1194,5.1194,5.1166,5.1133,5.1148,5.1165,5.1161,5.1209,5.1337,5.1546,5.1449,5.1339,5.1305,5.0787,5.0392,5.016,4.9817,4.9674,4.9674,4.9702,4.9502,4.9438,4.9345,4.9358,4.9342,4.9404,4.9522,4.9629,4.9852,5.0191,5.0423,5.0569,5.0452,5.0888,5.0946,5.0946,5.083,5.054,5.0685,5.0888,5.112,5.141,5.1933,5.2455,5.2804,5.2891,5.3036,5.3181,5.321,5.3152,5.3036,5.2891,5.2862,5.2833,5.2966,5.3076,5.3385,5.3802,5.4285,5.4848,5.504,5.501,5.4879,5.4647,5.4431,5.4238,5.4074,5.3844,5.359,5.3361,5.3419,5.341,5.3508,5.3665,5.3821,5.406,5.4316,5.4539,5.4749,5.5031,5.5319,5.5604,5.5766,5.5927,5.6165,5.6402,5.6525,4.9058,4.9256,4.9305,4.9453,4.962,4.9404,4.9305,4.9305,4.9009,4.908,4.9427,4.984,5.0354,5.0972,5.159,5.1759,5.1787,5.1787,5.1787,5.1787,5.1787,5.1787,5.1787,5.1787,5.1787,5.1787,5.1646,5.159,5.1674,5.159,5.1646,5.1646,5.1586,5.164,5.1811,5.2056,5.2326,5.2509,5.1966,5.1766,5.1595,5.1109,5.0772,5.0582,5.0383,5.0241,5.0109,5.0189,4.9933,4.9456,4.9551,4.9395,4.9016,4.9157,4.9334,4.9421,5.0159,5.0548,5.0772,5.1215,5.1505,5.1585,5.1614,5.1585,5.1614,5.1447,5.1389,5.1454,5.1911,5.231,5.2717,5.3036,5.3268,5.3384,5.3471,5.35,5.35,5.35,5.3326,5.3239,5.3384,5.3471,5.3547,5.3652,5.3854,5.4193,5.4539,5.4875,5.5128,5.519,5.506,5.496,5.4778,5.4688,5.4515,5.4165,5.3888,5.3558,5.3469,5.3573,5.3565,5.3708,5.3803,5.3895,5.406,5.4316,5.4539,5.4822,5.5113,5.5442,5.5645,5.5806,5.6046,5.6244,5.6369,4.871,4.8781,4.9157,4.9256,4.9207,4.9256,4.9305,4.9207,4.8767,4.877,4.9406,4.964,5.0311,5.1092,5.1564,5.1787,5.1787,5.1787,5.1787,5.1787,5.1787,5.1787,5.1787,5.1787,5.1787,5.1787,5.1787,5.1787,5.1759,5.1787,5.1787,5.1787,5.1787,5.1787,5.1841,5.195,5.2059,5.2247,5.2102,5.2017,5.196,5.1449,5.1056,5.0869,5.0558,5.0336,5.0125,5.034,5.0001,4.9413,4.9432,4.9291,4.883,4.8888,4.918,4.9467,5.0105,5.0535,5.1196,5.1885,5.2266,5.2272,5.2201,5.2201,5.2252,5.1613,5.1619,5.1828,5.2197,5.2544,5.2867,5.3192,5.339,5.3471,5.35,5.35,5.35,5.35,5.3442,5.3442,5.35,5.35,5.3553,5.3605,5.3815,5.4075,5.4414,5.4619,5.4875,5.5128,5.514,5.514,5.504,5.506,5.487,5.4556,5.431,5.4109,5.3938,5.3945,5.3913,5.3844,5.3845,5.3941,5.4002,5.4103,5.437,5.4665,5.4989,5.5237,5.5442,5.5645,5.5846,5.6046,5.6211,4.8431,4.8531,4.8859,4.9009,4.8959,4.9108,4.9058,4.871,4.8235,4.8471,4.9236,4.9378,5.0098,5.1124,5.1541,5.1732,5.1787,5.1787,5.1787,5.1787,5.1787,5.1787,5.1787,5.1787,5.1787,5.1787,5.1787,5.1787,5.1787,5.1787,5.1787,5.1787,5.1787,5.1787,5.1787,5.1841,5.1896,5.2059,5.1974,5.2002,5.1917,5.1692,5.1358,5.1058,5.0754,5.0395,5.0178,5.0067,4.9925,4.9423,4.9162,4.9136,4.8788,4.8758,4.908,4.9472,5.0343,5.0914,5.188,5.2333,5.2574,5.2583,5.263,5.263,5.2601,5.2133,5.211,5.2201,5.2287,5.2517,5.2886,5.3184,5.3343,5.3343,5.3448,5.3448,5.3448,5.3448,5.35,5.35,5.35,5.35,5.35,5.35,5.3605,5.3867,5.4156,5.4414,5.4619,5.4875,5.5078,5.5078,5.5179,5.514,5.51,5.494,5.4759,5.4616,5.4455,5.4352,5.4205,5.416,5.4075,5.397,5.4085,5.4222,5.4295,5.4539,5.479,5.5031,5.5237,5.5401,5.5604,5.5846,5.6086,4.8286,4.8538,4.8509,4.8717,4.8945,4.9009,4.8522,4.7778,4.7754,4.8243,4.9083,4.9138,4.9993,5.1099,5.1349,5.1541,5.1677,5.1732,5.1787,5.1787,5.1787,5.1787,5.1787,5.1787,5.1787,5.1787,5.1787,5.1787,5.1787,5.1787,5.1787,5.1787,5.1787,5.1787,5.1732,5.1732,5.1787,5.1841,5.1896,5.1896,5.1811,5.1731,5.1537,5.1318,5.1098,5.0877,5.0712,5.063,5.0381,4.9993,4.9656,4.9206,4.8858,4.8601,4.8946,4.9666,5.0929,5.175,5.2316,5.2462,5.2544,5.2509,5.2566,5.2623,5.2619,5.2448,5.2366,5.2395,5.2452,5.2537,5.2734,5.2894,5.3054,5.3213,5.3319,5.3372,5.3424,5.3477,5.35,5.35,5.35,5.35,5.35,5.35,5.35,5.3605,5.3867,5.3971,5.423,5.4722,5.4875,5.4926,5.5027,5.5179,5.517,5.513,5.506,5.483,5.4827,5.4698,5.4579,5.4481,5.4422,5.4388,5.4335,5.4366,5.449,5.4507,5.4539,5.4749,5.4989,5.5278,5.5483,5.5685,5.5927,4.8206,4.8855,4.9059,4.9365,4.9606,4.9398,4.869,4.781,4.7937,4.8367,4.8842,4.9282,4.9941,5.0739,5.0989,5.1211,5.1431,5.1541,5.1623,5.1677,5.1732,5.1787,5.1787,5.1787,5.1787,5.1787,5.1787,5.1787,5.1787,5.1787,5.1787,5.1787,5.1787,5.1706,5.1596,5.1486,5.1624,5.1734,5.1816,5.1872,5.1818,5.1764,5.1599,5.1488,5.1266,5.1017,5.0793,5.0767,5.0436,4.9886,4.9856,4.9604,4.9287,4.9277,4.955,5.0403,5.1271,5.1863,5.203,5.2059,5.2059,5.2113,5.2113,5.2358,5.2465,5.2519,5.2329,5.2358,5.2358,5.2358,5.2465,5.2627,5.2734,5.2894,5.3054,5.316,5.3266,5.3319,5.3372,5.3424,5.3477,5.35,5.35,5.35,5.35,5.35,5.3553,5.3658,5.3919,5.4363,5.4671,5.4722,5.4926,5.5078,5.5179,5.517,5.514,5.507,5.504,5.4978,5.4801,5.4744,5.4802,5.4715,5.4528,5.4549,5.4637,5.4628,5.4539,5.4528,5.4739,5.5031,5.5319,5.5523,5.5758,4.8164,4.885,4.9108,4.9526,4.9904,4.9643,4.9011,4.8354,4.8367,4.8569,4.8873,4.9227,4.9801,5.0488,5.0711,5.0934,5.1211,5.1183,5.1348,5.1596,5.1651,5.1677,5.1732,5.1787,5.1787,5.1787,5.1787,5.1787,5.1815,5.1787,5.1787,5.1787,5.176,5.1569,5.1515,5.1572,5.1655,5.1738,5.1822,5.1905,5.1961,5.1933,5.1877,5.1681,5.1319,5.0956,5.0648,5.0735,5.0268,4.9801,4.9913,4.9775,4.9578,4.9685,4.9927,5.0698,5.1203,5.1539,5.1706,5.1651,5.1677,5.1787,5.1787,5.2004,5.2113,5.2113,5.2059,5.2059,5.2059,5.2059,5.2195,5.2304,5.2411,5.2519,5.2734,5.2894,5.3001,5.3107,5.3213,5.3319,5.3424,5.3448,5.35,5.353,5.35,5.35,5.35,5.3553,5.371,5.4023,5.4333,5.4487,5.4773,5.5027,5.5078,5.5179,5.52,5.517,5.516,5.51,5.5008,5.5073,5.5122,5.4955,5.4715,5.4696,5.4594,5.4574,5.4522,5.4453,5.4412,5.4707,5.5031,5.5237,5.5483,4.8065,4.8729,4.9046,4.9655,5.002,4.9814,4.9465,4.9195,4.8953,4.8927,4.906,4.914,4.966,5.0264,5.0375,5.0599,5.0822,5.085,5.1045,5.1349,5.1376,5.1431,5.1568,5.1677,5.1568,5.1677,5.1706,5.1652,5.1763,5.1931,5.2044,5.1901,5.1765,5.1683,5.1683,5.1791,5.1899,5.2035,5.2092,5.2175,5.248,5.2616,5.2556,5.2218,5.1774,5.1247,5.0884,5.0471,5.0064,4.996,4.9826,4.9665,4.9831,5.0132,5.0378,5.0597,5.1071,5.1238,5.1321,5.1321,5.1541,5.1623,5.1732,5.1787,5.1841,5.1841,5.1815,5.1732,5.1677,5.1623,5.1677,5.1869,5.2033,5.2195,5.2358,5.2573,5.268,5.2841,5.3001,5.3218,5.3497,5.3603,5.3907,5.3965,5.4081,5.382,5.3704,5.3704,5.3582,5.3844,5.4023,5.4282,5.4641,5.4926,5.5027,5.5078,5.5179,5.5229,5.5229,5.525,5.516,5.5329,5.5508,5.5292,5.5064,5.4622,5.4466,5.4411,5.4285,5.4088,5.4114,5.4412,5.4697,5.4906,5.5196,4.7975,4.9398,5.0399,5.0928,5.0985,5.0519,5.0216,5.0105,4.9826,4.9442,4.9194,4.9407,4.9678,5.0039,4.9924,5.0093,5.0431,5.0487,5.0767,5.0906,5.0962,5.1072,5.1128,5.1238,5.1183,5.1128,5.1183,5.1488,5.1849,5.2238,5.2487,5.2487,5.2261,5.2121,5.1978,5.2139,5.2243,5.2342,5.2506,5.2544,5.2749,5.2523,5.2325,5.2236,5.1929,5.1483,5.115,5.0851,5.0417,5.0121,4.9985,5.0045,5.0268,5.0574,5.074,5.0823,5.0906,5.1017,5.1045,5.1045,5.1211,5.1404,5.1569,5.1651,5.1651,5.1541,5.1514,5.1459,5.1348,5.1238,5.1238,5.1486,5.1651,5.1815,5.2033,5.2195,5.2358,5.2573,5.2787,5.3177,5.3568,5.3872,5.4178,5.4429,5.4575,5.4517,5.4371,5.4197,5.3762,5.3722,5.3821,5.4052,5.4517,5.4773,5.4926,5.5078,5.5179,5.5209,5.5229,5.528,5.533,5.5371,5.548,5.5546,5.5353,5.4952,5.4467,5.4114,5.3968,5.384,5.3844,5.406,5.4274,5.4486,5.4822,4.7953,4.9408,5.082,5.1404,5.1294,5.0794,5.0515,5.0459,5.0123,4.982,4.952,4.9565,4.967,4.9783,4.9499,4.9526,4.9867,4.9867,5.015,5.0348,5.0599,5.0712,5.0795,5.0795,5.0962,5.0934,5.1237,5.1624,5.209,5.2453,5.2674,5.2697,5.2639,5.2465,5.2376,5.2424,5.2548,5.2669,5.294,5.3038,5.3006,5.2916,5.2884,5.2766,5.2434,5.2018,5.1774,5.1475,5.096,5.0471,5.0173,5.0179,5.0376,5.06,5.0656,5.0656,5.0683,5.0711,5.0711,5.0767,5.0878,5.1155,5.1655,5.1933,5.2128,5.2045,5.1878,5.1794,5.1183,5.1017,5.1017,5.1183,5.1376,5.1541,5.1651,5.1815,5.2033,5.2304,5.2693,5.3172,5.3589,5.4061,5.4342,5.471,5.4851,5.5039,5.4923,5.4662,5.4226,5.3907,5.3896,5.3961,5.4458,5.473,5.4854,5.5006,5.5179,5.5209,5.5209,5.5229,5.528,5.533,5.5421,5.5469,5.5486,5.5189,5.4762,5.4249,5.3883,5.3754,5.3708,5.3714,5.3888,5.4146,5.4486,4.8091,4.9385,5.0739,5.1321,5.1238,5.0655,5.0459,5.0375,5.0123,5.001,4.9926,4.9643,4.9583,4.9442,4.9213,4.9125,4.9236,4.9569,4.9744,4.9837,5.0059,5.0175,5.0319,5.0572,5.0542,5.0925,5.1363,5.1856,5.2346,5.2564,5.2674,5.2657,5.2572,5.2424,5.2502,5.2657,5.2913,5.2929,5.3119,5.3362,5.3504,5.3531,5.3483,5.332,5.313,5.2832,5.2561,5.2208,5.1611,5.1068,5.0498,5.0313,5.029,5.0375,5.0375,5.0431,5.0431,5.0431,5.0431,5.0431,5.0654,5.1043,5.1821,5.2295,5.2434,5.2519,5.2379,5.2072,5.146,5.1126,5.1098,5.1126,5.1321,5.1461,5.1572,5.1599,5.1874,5.2091,5.2511,5.3073,5.3632,5.4106,5.4615,5.4984,5.5291,5.5452,5.5387,5.5097,5.4807,5.4575,5.4454,5.4322,5.4462,5.4657,5.476,5.5006,5.5209,5.5209,5.5209,5.5209,5.5229,5.528,5.533,5.5431,5.534,5.5167,5.494,5.4544,5.4218,5.3776,5.3709,5.3663,5.3671,5.3931,5.4157,4.8511,4.9884,5.0657,5.085,5.0655,5.0263,5.0093,5.0066,5.0066,5.001,4.984,4.9442,4.9328,4.9583,4.901,4.889,4.9165,4.9409,4.9334,4.9377,4.9698,4.9706,4.9717,4.9918,4.9848,5.047,5.1255,5.1782,5.2263,5.2493,5.2763,5.295,5.2944,5.3004,5.3272,5.3341,5.3193,5.318,5.3113,5.324,5.3152,5.3308,5.3558,5.3537,5.351,5.313,5.2832,5.2642,5.2181,5.1665,5.1068,5.0637,5.0367,5.0288,5.0232,5.0206,5.0179,5.0179,5.0206,5.0288,5.0566,5.1146,5.1871,5.2487,5.2795,5.3244,5.3104,5.3017,5.2512,5.1971,5.1886,5.1832,5.1919,5.1925,5.1983,5.2015,5.2184,5.2072,5.2238,5.2966,5.3724,5.4429,5.5223,5.562,5.5988,5.607,5.609,5.5771,5.5387,5.5184,5.5039,5.4822,5.4632,5.4456,5.4503,5.4905,5.5158,5.5209,5.5128,5.5078,5.5078,5.5179,5.528,5.533,5.527,5.508,5.4907,5.4758,5.4314,5.391,5.373,5.3664,5.3663,5.3734,5.4057]}]]